[[{"header":{"parameterUnit":"m.s-1","parameterCategory":1,"la1":31.0,"la2":29.5877,"lo1":-88.7671,"lo2":-86.6584,"dy":0.0162,"dx":0.0185,"nx":115,"ny":88,"refTime":"2026-04-01T00:00:00:Z","depth":0,"parameterNumber":2,"parameterNumberName":"U-component_of_WINDS"},"data":[0.0,0.0,0.0,0.0,0.0,0.0,0.0,0.0,0.0,0.0,0.0,0.0,0.0,0.0,0.0,0.0,0.0,0.0,0.0,0.0,0.0,0.0,0.0,0.0,0.0,0.0,0.0,0.0,0.0,0.0,0.0,0.0,0.0,0.0,0.0,0.0,0.0,0.0,0.0,0.0,0.0,0.0,0.0,0.0,0.0,0.0,0.0,0.0,0.0,0.0,0.0,0.0,0.0,0.0,0.0,0.0,0.0,0.0,0.0,0.0,0.0,0.0,0.0,0.0,0.0,0.0,0.0,0.0,0.0,0.0,0.0,0.0,0.0,0.0,0.0,0.0,0.0,0.0,0.0,0.0,0.0,0.0,0.0,0.0,0.0,0.0,0.0,0.0,0.0,0.0,0.0,0.0,0.0,0.0,0.0,0.0,0.0,0.0,0.0,0.0,0.0,0.0,0.0,0.0,0.0,0.0,0.0,0.0,0.0,0.0,0.0,0.0,0.0,0.0,0.0,0.0,0.0,0.0,0.0,0.0,0.0,0.0,0.0,0.0,0.0,0.0,0.0,0.0,0.0,0.0,0.0,0.0,0.0,0.0,0.0,0.0,0.0,0.0,0.0,0.0,0.0,0.0,0.0,0.0,0.0,0.0,0.0,0.0,0.0,0.0,0.0,0.0,0.0,0.0,0.0,0.0,0.0,0.0,0.0,0.0,0.0,0.0,0.0,0.0,0.0,0.0,0.0,0.0,0.0,0.0,0.0,0.0,0.0,0.0,0.0,0.0,0.0,0.0,0.0,0.0,0.0,0.0,0.0,0.0,0.0,0.0,0.0,0.0,0.0,0.0,0.0,0.0,0.0,0.0,0.0,0.0,0.0,0.0,0.0,0.0,0.0,0.0,0.0,0.0,0.0,0.0,0.0,0.0,0.0,0.0,0.0,0.0,0.0,0.0,0.0,0.0,0.0,0.0,0.0,0.0,0.0,0.0,0.0,0.0,0.0,0.0,0.0,0.0,0.0,0.0,0.0,0.0,0.0,0.0,0.0,0.0,0.0,0.0,0.0,0.0,0.0,0.0,0.0,0.0,0.0,0.0,0.0,0.0,0.0,0.0,0.0,0.0,0.0,0.0,0.0,0.0,0.0,0.0,0.0,0.0,0.0,0.0,0.0,0.0,0.0,0.0,0.0,0.0,0.0,0.0,0.0,0.0,0.0,0.0,0.0,0.0,0.0,0.0,0.0,0.0,0.0,0.0,0.0,0.0,0.0,0.0,0.0,0.0,0.0,0.0,0.0,0.0,0.0,0.0,0.0,0.0,0.0,0.0,0.0,0.0,0.0,0.0,0.0,0.0,0.0,0.0,0.0,0.0,0.0,0.0,0.0,0.0,0.0,0.0,0.0,0.0,0.0,0.0,0.0,0.0,0.0,0.0,0.0,0.0,0.0,0.0,0.0,0.0,0.0,0.0,0.0,0.0,0.0,0.0,0.0,0.0,0.0,0.0,0.0,0.0,0.0,0.0,0.0,0.0,0.0,0.0,0.0,0.0,0.0,0.0,0.0,0.0,0.0,0.0,0.0,0.0,0.0,0.0,0.0,0.0,0.0,0.0,0.0,0.0,0.0,0.0,0.0,0.0,0.0,0.0,0.0,0.0,0.0,0.0,0.0,0.0,0.0,0.0,0.0,0.0,0.0,0.0,0.0,0.0,0.0,0.0,0.0,0.0,0.0,0.0,0.0,0.0,0.0,0.0,0.0,0.0,0.0,0.0,0.0,0.0,0.0,0.0,0.0,0.0,0.0,0.0,0.0,0.0,0.0,0.0,0.0,0.0,0.0,0.0,0.0,0.0,0.0,0.0,0.0,0.0,0.0,0.0,0.0,0.0,0.0,0.0,0.0,0.0,0.0,0.0,0.0,0.0,0.0,0.0,0.0,0.0,0.0,0.0,0.0,0.0,0.0,0.0,0.0,0.0,0.0,0.0,0.0,0.0,0.0,0.0,0.0,0.0,0.0,0.0,0.0,0.0,0.0,0.0,0.0,0.0,0.0,0.0,0.0,0.0,0.0,0.0,0.0,0.0,0.0,0.0,0.0,0.0,0.0,0.0,0.0,0.0,0.0,0.0,0.0,0.0,0.0,0.0,0.0,0.0,0.0,0.0,0.0,0.0,0.0,0.0,0.0,0.0,0.0,0.0,0.0,0.0,0.0,0.0,0.0,0.0,0.0,0.0,0.0,0.0,0.0,0.0,0.0,0.0,0.0,0.0,0.0,0.0,0.0,0.0,0.0,0.0,0.0,0.0,0.0,0.0,0.0,0.0,0.0,0.0,0.0,0.0,0.0,0.0,0.0,0.0,0.0,0.0,0.0,0.0,0.0,0.0,0.0,0.0,0.0,0.0,0.0,0.0,0.0,0.0,0.0,0.0,0.0,0.0,0.0,0.0,0.0,0.0,0.0,0.0,0.0,0.0,0.0,0.0,0.0,0.0,0.0,0.0,0.0,0.0,0.0,0.0,0.0,0.0,0.0,0.0,0.0,0.0,0.0,0.0,0.0,0.0,0.0,0.0,0.0,0.0,0.0,0.0,0.0,0.0,0.0,0.0,0.0,0.0,0.0,0.0,0.0,0.0,0.0,0.0,0.0,0.0,0.0,0.0,0.0,0.0,0.0,0.0,0.0,0.0,0.0,0.0,0.0,0.0,0.0,0.0,0.0,0.0,0.0,0.0,0.0,0.0,0.0,0.0,0.0,0.0,0.0,0.0,0.0,0.0,0.0,0.0,0.0,0.0,0.0,0.0,0.0,0.0,0.0,0.0,0.0,0.0,0.0,0.0,0.0,0.0,0.0,0.0,0.0,0.0,0.0,0.0,0.0,0.0,0.0,0.0,0.0,0.0,0.0,0.0,0.0,0.0,0.0,0.0,0.0,0.0,0.0,0.0,0.0,0.0,0.0,0.0,0.0,0.0,0.0,0.0,0.0,0.0,0.0,0.0,0.0,0.0,0.0,0.0,0.0,0.0,0.0,0.0,0.0,0.0,0.0,0.0,0.0,0.0,0.0,0.0,0.0,0.0,0.0,0.0,0.0,0.0,0.0,0.0,0.0,0.0,0.0,0.0,0.0,0.0,0.0,0.0,0.0,0.0,0.0,0.0,0.0,0.0,0.0,0.0,0.0,0.0,0.0,0.0,0.0,0.0,0.0,0.0,0.0,0.0,0.0,0.0,0.0,0.0,0.0,0.0,0.0,0.0,0.0,0.0,0.0,0.0,0.0,0.0,0.0,0.0,0.0,0.0,0.0,0.0,0.0,0.0,0.0,0.0,0.0,0.0,0.0,0.0,0.0,0.0,0.0,0.0,0.0,0.0,0.0,0.0,0.0,0.0,0.0,0.0,0.0,0.0,0.0,0.0,0.0,0.0,0.0,0.0,0.0,0.0,0.0,0.0,0.0,0.0,0.0,0.0,0.0,0.0,0.0,0.0,0.0,0.0,0.0,0.0,0.0,0.0,0.0,0.0,0.0,0.0,0.0,0.0,0.0,0.0,0.0,0.0,0.0,0.0,0.0,0.0,0.0,0.0,0.0,0.0,0.0,0.0,0.0,0.0,0.0,0.0,0.0,0.0,0.0,0.0,0.0,0.0,0.0,0.0,0.0,0.0,0.0,0.0,0.0,0.0,0.0,0.0,0.0,0.0,0.0,0.0,0.0,0.0,0.0,0.0,0.0,0.0,0.0,0.0,0.0,0.0,0.0,0.0,0.0,0.0,0.0,0.0,0.0,0.0,0.0,0.0,0.0,0.0,0.0,0.0,0.0,0.0,0.0,0.0,0.0,0.0,0.0,0.0,0.0,0.0,0.0,0.0,0.0,0.0,0.0,0.0,0.0,0.0,0.0,0.0,0.0,0.0,0.0,0.0,0.0,0.0,0.0,0.0,0.0,0.0,0.0,0.0,0.0,0.0,0.0,0.0,0.0,0.0,0.0,0.0,0.0,0.0,0.0,0.0,0.0,0.0,0.0,0.0,0.0,0.0,0.0,0.0,0.0,0.0,0.0,0.0,0.0,0.0,0.0,0.0,0.0,0.0,0.0,0.0,0.0,0.0,0.0,0.0,0.0,0.0,0.0,0.0,0.0,0.0,0.0,0.0,0.0,0.0,0.0,0.0,0.0,0.0,0.0,0.0,0.0,0.0,0.0,0.0,0.0,0.0,0.0,0.0,0.0,0.0,0.0,0.0,0.0,0.0,0.0,0.0,0.0,0.0,0.0,0.0,0.0,0.0,0.0,0.0,4.4357,0.0,0.0,0.0,0.0,0.0,0.0,0.0,0.0,0.0,0.0,0.0,0.0,0.0,0.0,0.0,0.0,0.0,0.0,0.0,0.0,0.0,0.0,0.0,0.0,0.0,0.0,0.0,0.0,0.0,0.0,0.0,0.0,0.0,0.0,0.0,0.0,0.0,0.0,0.0,0.0,0.0,0.0,0.0,0.0,0.0,0.0,0.0,0.0,0.0,0.0,0.0,0.0,0.0,0.0,0.0,0.0,0.0,0.0,0.0,0.0,0.0,0.0,0.0,0.0,0.0,0.0,0.0,0.0,0.0,0.0,0.0,0.0,0.0,0.0,0.0,0.0,0.0,0.0,0.0,0.0,0.0,0.0,0.0,0.0,0.0,0.0,0.0,0.0,0.0,0.0,0.0,0.0,0.0,0.0,0.0,0.0,0.0,0.0,0.0,0.0,0.0,0.0,0.0,0.0,0.0,0.0,0.0,0.0,0.0,0.0,4.5592,4.5592,4.5592,4.54,4.5054,0.0,0.0,0.0,0.0,0.0,0.0,0.0,0.0,0.0,0.0,0.0,0.0,0.0,0.0,0.0,0.0,0.0,0.0,0.0,0.0,0.0,0.0,0.0,0.0,0.0,0.0,0.0,0.0,0.0,0.0,0.0,0.0,0.0,0.0,0.0,0.0,0.0,0.0,0.0,0.0,0.0,0.0,0.0,0.0,0.0,0.0,0.0,0.0,0.0,0.0,0.0,0.0,0.0,0.0,0.0,0.0,0.0,0.0,0.0,0.0,0.0,0.0,0.0,0.0,0.0,0.0,0.0,0.0,0.0,0.0,0.0,0.0,0.0,0.0,0.0,0.0,0.0,0.0,0.0,0.0,0.0,0.0,0.0,0.0,0.0,0.0,0.0,0.0,0.0,0.0,0.0,0.0,0.0,0.0,0.0,0.0,0.0,0.0,0.0,0.0,0.0,0.0,0.0,0.0,0.0,0.0,0.0,0.0,0.0,0.0,0.0,0.0,4.5975,4.5706,4.5323,0.0,0.0,0.0,0.0,0.0,0.0,0.0,0.0,0.0,0.0,0.0,0.0,0.0,0.0,0.0,0.0,0.0,0.0,0.0,0.0,0.0,0.0,0.0,0.0,0.0,0.0,0.0,0.0,0.0,0.0,0.0,0.0,0.0,0.0,0.0,0.0,0.0,0.0,0.0,0.0,0.0,0.0,0.0,0.0,0.0,0.0,0.0,0.0,0.0,0.0,0.0,0.0,0.0,0.0,0.0,0.0,0.0,0.0,0.0,0.0,0.0,0.0,0.0,0.0,0.0,0.0,0.0,0.0,0.0,0.0,0.0,0.0,0.0,0.0,0.0,0.0,0.0,0.0,0.0,0.0,0.0,0.0,0.0,0.0,0.0,0.0,0.0,0.0,0.0,0.0,0.0,0.0,0.0,0.0,0.0,0.0,0.0,0.0,0.0,0.0,0.0,0.0,0.0,0.0,0.0,0.0,0.0,0.0,0.0,0.0,4.7892,4.7853,4.7161,0.0,4.4511,0.0,0.0,0.0,0.0,0.0,0.0,0.0,0.0,0.0,0.0,0.0,0.0,0.0,0.0,0.0,0.0,0.0,0.0,0.0,0.0,0.0,0.0,0.0,0.0,0.0,0.0,0.0,0.0,0.0,0.0,0.0,0.0,0.0,0.0,0.0,0.0,0.0,0.0,0.0,0.0,0.0,0.0,0.0,0.0,0.0,0.0,0.0,0.0,0.0,0.0,0.0,0.0,0.0,0.0,0.0,0.0,0.0,0.0,0.0,0.0,0.0,0.0,0.0,0.0,0.0,0.0,0.0,0.0,0.0,0.0,0.0,0.0,0.0,0.0,0.0,0.0,0.0,0.0,0.0,0.0,0.0,0.0,0.0,0.0,0.0,0.0,0.0,0.0,0.0,0.0,0.0,0.0,0.0,0.0,0.0,0.0,0.0,0.0,0.0,0.0,0.0,0.0,0.0,0.0,0.0,0.0,0.0,0.0,0.0,0.0,0.0,5.0313,4.8582,4.6801,0.0,0.0,0.0,0.0,0.0,0.0,0.0,0.0,0.0,0.0,0.0,0.0,0.0,0.0,0.0,0.0,0.0,0.0,0.0,0.0,0.0,0.0,0.0,0.0,0.0,0.0,0.0,0.0,0.0,0.0,0.0,0.0,0.0,0.0,0.0,0.0,0.0,0.0,0.0,0.0,0.0,0.0,0.0,0.0,0.0,0.0,0.0,0.0,0.0,0.0,0.0,0.0,0.0,0.0,0.0,0.0,0.0,0.0,0.0,0.0,0.0,0.0,0.0,0.0,0.0,0.0,0.0,0.0,0.0,0.0,0.0,0.0,0.0,0.0,0.0,0.0,0.0,0.0,0.0,0.0,0.0,0.0,0.0,0.0,0.0,0.0,0.0,0.0,0.0,0.0,0.0,0.0,0.0,0.0,0.0,0.0,0.0,0.0,0.0,0.0,0.0,0.0,0.0,0.0,0.0,0.0,0.0,0.0,0.0,0.0,4.8933,0.0,5.0697,4.8622,4.6604,4.487,0.0,0.0,0.0,0.0,0.0,0.0,0.0,0.0,0.0,0.0,0.0,0.0,0.0,0.0,0.0,0.0,0.0,0.0,0.0,0.0,0.0,0.0,0.0,0.0,0.0,0.0,0.0,0.0,0.0,0.0,0.0,0.0,0.0,0.0,0.0,0.0,0.0,0.0,0.0,0.0,0.0,0.0,0.0,0.0,0.0,0.0,0.0,0.0,0.0,0.0,0.0,0.0,0.0,0.0,0.0,0.0,0.0,0.0,0.0,0.0,0.0,0.0,0.0,0.0,0.0,0.0,0.0,0.0,0.0,0.0,0.0,0.0,0.0,0.0,0.0,0.0,0.0,0.0,0.0,0.0,0.0,0.0,0.0,0.0,0.0,0.0,0.0,0.0,0.0,0.0,0.0,0.0,0.0,0.0,0.0,0.0,0.0,0.0,0.0,0.0,0.0,0.0,0.0,0.0,0.0,0.0,0.0,0.0,0.0,4.8971,4.9048,4.8315,4.6627,4.4919,0.0,0.0,0.0,0.0,0.0,0.0,0.0,0.0,0.0,0.0,0.0,0.0,0.0,0.0,0.0,0.0,0.0,0.0,0.0,0.0,0.0,0.0,0.0,0.0,0.0,0.0,0.0,0.0,0.0,0.0,0.0,0.0,0.0,0.0,0.0,0.0,0.0,0.0,0.0,0.0,0.0,0.0,0.0,0.0,0.0,0.0,0.0,0.0,0.0,0.0,0.0,0.0,0.0,0.0,0.0,0.0,0.0,0.0,0.0,0.0,0.0,0.0,0.0,0.0,0.0,0.0,0.0,0.0,0.0,0.0,0.0,0.0,0.0,0.0,0.0,0.0,0.0,0.0,0.0,0.0,0.0,0.0,0.0,0.0,0.0,0.0,0.0,0.0,0.0,0.0,0.0,0.0,0.0,0.0,0.0,0.0,0.0,0.0,0.0,0.0,0.0,0.0,0.0,0.0,0.0,0.0,0.0,0.0,0.0,4.812,5.0007,5.0082,4.8161,4.7007,4.5322,0.0,0.0,0.0,0.0,0.0,0.0,0.0,0.0,0.0,0.0,0.0,0.0,0.0,0.0,0.0,0.0,0.0,0.0,0.0,0.0,0.0,0.0,0.0,0.0,0.0,0.0,0.0,0.0,0.0,0.0,0.0,0.0,0.0,0.0,0.0,0.0,0.0,0.0,0.0,0.0,0.0,0.0,0.0,0.0,0.0,0.0,0.0,0.0,0.0,0.0,0.0,0.0,0.0,0.0,0.0,0.0,0.0,0.0,0.0,0.0,0.0,0.0,0.0,0.0,0.0,0.0,0.0,0.0,0.0,0.0,0.0,0.0,0.0,0.0,0.0,0.0,0.0,0.0,0.0,0.0,0.0,0.0,0.0,0.0,0.0,0.0,0.0,0.0,0.0,0.0,0.0,0.0,0.0,0.0,0.0,0.0,0.0,0.0,0.0,0.0,0.0,0.0,0.0,0.0,0.0,0.0,0.0,0.0,0.0,4.893,0.0,5.1216,0.0,4.762,4.5772,0.0,0.0,0.0,0.0,0.0,0.0,0.0,0.0,0.0,0.0,0.0,0.0,0.0,0.0,0.0,0.0,0.0,0.0,0.0,0.0,0.0,0.0,0.0,0.0,0.0,0.0,0.0,0.0,0.0,0.0,0.0,0.0,0.0,0.0,0.0,0.0,0.0,0.0,0.0,0.0,0.0,0.0,0.0,0.0,0.0,0.0,0.0,0.0,0.0,0.0,0.0,0.0,0.0,0.0,0.0,0.0,0.0,0.0,0.0,0.0,0.0,0.0,0.0,0.0,0.0,0.0,0.0,0.0,0.0,0.0,0.0,0.0,0.0,0.0,0.0,0.0,0.0,0.0,0.0,0.0,0.0,0.0,0.0,0.0,0.0,0.0,0.0,0.0,0.0,0.0,0.0,0.0,0.0,0.0,0.0,0.0,0.0,0.0,0.0,0.0,0.0,0.0,0.0,0.0,0.0,0.0,0.0,0.0,0.0,5.0625,5.2295,5.2374,5.0705,4.8315,4.6118,0.0,0.0,0.0,0.0,0.0,0.0,0.0,0.0,0.0,0.0,0.0,0.0,0.0,0.0,0.0,0.0,0.0,0.0,0.0,0.0,0.0,0.0,0.0,0.0,0.0,0.0,0.0,0.0,0.0,0.0,0.0,0.0,0.0,0.0,0.0,0.0,0.0,0.0,0.0,0.0,0.0,0.0,0.0,0.0,0.0,0.0,0.0,0.0,0.0,0.0,0.0,0.0,0.0,0.0,0.0,0.0,0.0,0.0,0.0,0.0,0.0,0.0,0.0,0.0,0.0,0.0,0.0,0.0,0.0,0.0,0.0,0.0,0.0,0.0,0.0,0.0,0.0,0.0,0.0,0.0,0.0,0.0,0.0,0.0,0.0,0.0,0.0,0.0,0.0,0.0,0.0,0.0,0.0,0.0,0.0,0.0,0.0,0.0,0.0,0.0,0.0,0.0,0.0,0.0,0.0,0.0,0.0,0.0,0.0,5.1455,5.3632,5.3731,5.156,5.0221,4.8126,0.0,0.0,0.0,0.0,0.0,0.0,0.0,0.0,0.0,0.0,0.0,0.0,0.0,0.0,0.0,0.0,0.0,0.0,0.0,0.0,0.0,0.0,0.0,0.0,0.0,0.0,0.0,0.0,0.0,0.0,0.0,0.0,0.0,0.0,0.0,0.0,0.0,0.0,0.0,0.0,0.0,0.0,0.0,0.0,0.0,0.0,0.0,0.0,0.0,0.0,0.0,0.0,0.0,0.0,0.0,0.0,0.0,0.0,0.0,0.0,0.0,0.0,0.0,0.0,0.0,0.0,0.0,0.0,0.0,0.0,0.0,0.0,0.0,0.0,0.0,0.0,0.0,0.0,0.0,0.0,0.0,0.0,0.0,0.0,0.0,0.0,0.0,0.0,0.0,0.0,0.0,0.0,0.0,0.0,0.0,0.0,0.0,0.0,0.0,0.0,0.0,0.0,0.0,0.0,0.0,0.0,0.0,0.0,0.0,5.7296,5.8595,5.8105,5.5591,5.3873,5.1328,4.7944,0.0,0.0,0.0,0.0,0.0,0.0,0.0,0.0,0.0,0.0,0.0,0.0,0.0,0.0,0.0,0.0,0.0,0.0,0.0,0.0,0.0,0.0,0.0,0.0,0.0,0.0,0.0,0.0,0.0,0.0,0.0,0.0,0.0,0.0,0.0,0.0,0.0,0.0,0.0,0.0,0.0,0.0,0.0,0.0,0.0,0.0,0.0,0.0,0.0,0.0,0.0,0.0,0.0,0.0,0.0,0.0,0.0,0.0,0.0,0.0,0.0,0.0,0.0,0.0,0.0,0.0,0.0,0.0,0.0,0.0,0.0,0.0,0.0,0.0,0.0,0.0,0.0,0.0,0.0,0.0,0.0,0.0,0.0,0.0,0.0,0.0,0.0,0.0,0.0,0.0,0.0,0.0,0.0,0.0,0.0,0.0,0.0,0.0,0.0,0.0,0.0,0.0,0.0,0.0,0.0,0.0,0.0,0.0,6.6862,6.6583,6.5118,6.2302,5.9173,5.5741,0.0,0.0,0.0,0.0,0.0,0.0,0.0,0.0,0.0,0.0,0.0,0.0,0.0,0.0,0.0,0.0,0.0,0.0,0.0,0.0,0.0,0.0,0.0,0.0,0.0,0.0,0.0,0.0,0.0,0.0,0.0,0.0,0.0,0.0,0.0,0.0,0.0,0.0,0.0,0.0,0.0,0.0,0.0,0.0,0.0,0.0,0.0,0.0,0.0,0.0,0.0,0.0,0.0,0.0,0.0,0.0,0.0,0.0,0.0,0.0,0.0,0.0,0.0,0.0,0.0,0.0,0.0,0.0,0.0,0.0,0.0,0.0,0.0,0.0,0.0,0.0,0.0,0.0,0.0,0.0,0.0,0.0,0.0,0.0,0.0,0.0,0.0,0.0,0.0,0.0,0.0,0.0,0.0,0.0,0.0,0.0,0.0,0.0,0.0,0.0,0.0,0.0,0.0,0.0,0.0,0.0,0.0,0.0,0.0,7.027,7.5059,7.4563,6.8472,6.6234,6.2375,0.0,0.0,0.0,0.0,0.0,0.0,0.0,0.0,0.0,0.0,0.0,0.0,0.0,0.0,0.0,0.0,0.0,0.0,0.0,0.0,0.0,0.0,0.0,0.0,0.0,0.0,0.0,0.0,0.0,0.0,0.0,0.0,0.0,0.0,0.0,0.0,0.0,0.0,0.0,0.0,0.0,0.0,0.0,0.0,0.0,0.0,0.0,0.0,0.0,0.0,0.0,0.0,0.0,0.0,0.0,0.0,0.0,0.0,0.0,0.0,0.0,0.0,0.0,0.0,0.0,0.0,0.0,0.0,0.0,0.0,0.0,0.0,0.0,0.0,0.0,0.0,0.0,0.0,0.0,0.0,0.0,0.0,0.0,0.0,0.0,0.0,0.0,0.0,0.0,0.0,0.0,0.0,0.0,0.0,0.0,0.0,0.0,0.0,0.0,0.0,0.0,0.0,0.0,0.0,0.0,0.0,0.0,0.0,6.8203,7.4244,8.0964,8.1862,7.6436,7.2318,6.6968,0.0,0.0,0.0,0.0,0.0,0.0,0.0,0.0,0.0,0.0,0.0,0.0,0.0,0.0,0.0,0.0,0.0,0.0,0.0,0.0,0.0,0.0,0.0,0.0,0.0,0.0,0.0,0.0,0.0,0.0,0.0,0.0,0.0,0.0,0.0,0.0,0.0,0.0,0.0,0.0,0.0,0.0,0.0,0.0,0.0,0.0,0.0,0.0,0.0,0.0,0.0,0.0,0.0,0.0,0.0,0.0,0.0,0.0,0.0,0.0,0.0,0.0,0.0,0.0,0.0,0.0,0.0,0.0,0.0,0.0,0.0,0.0,0.0,0.0,0.0,0.0,0.0,0.0,0.0,0.0,0.0,0.0,0.0,0.0,0.0,0.0,0.0,0.0,0.0,0.0,0.0,0.0,0.0,0.0,0.0,0.0,0.0,0.0,0.0,0.0,0.0,0.0,0.0,0.0,0.0,0.0,0.0,0.0,7.0891,7.8114,8.478,8.6963,8.425,7.7454,7.0572,0.0,0.0,0.0,0.0,0.0,0.0,0.0,0.0,0.0,0.0,0.0,0.0,0.0,0.0,0.0,0.0,0.0,0.0,0.0,0.0,0.0,0.0,0.0,0.0,0.0,0.0,0.0,0.0,0.0,0.0,0.0,0.0,0.0,0.0,0.0,0.0,0.0,0.0,0.0,0.0,0.0,0.0,0.0,0.0,0.0,0.0,0.0,0.0,0.0,0.0,0.0,0.0,0.0,0.0,0.0,0.0,0.0,0.0,0.0,0.0,0.0,0.0,0.0,0.0,0.0,0.0,0.0,0.0,0.0,0.0,0.0,0.0,0.0,0.0,0.0,0.0,0.0,0.0,0.0,0.0,0.0,0.0,0.0,0.0,0.0,0.0,0.0,0.0,0.0,0.0,0.0,0.0,0.0,0.0,0.0,0.0,0.0,0.0,0.0,0.0,0.0,0.0,0.0,0.0,0.0,0.0,0.0,0.0,7.4148,7.9734,8.5853,8.7536,8.437,8.0816,7.5429,0.0,0.0,0.0,0.0,0.0,0.0,0.0,0.0,0.0,0.0,0.0,0.0,0.0,0.0,0.0,0.0,0.0,0.0,0.0,0.0,0.0,0.0,0.0,0.0,0.0,0.0,0.0,0.0,0.0,0.0,0.0,0.0,0.0,0.0,0.0,0.0,0.0,0.0,0.0,0.0,0.0,0.0,0.0,0.0,0.0,0.0,0.0,0.0,4.7182,0.0,0.0,0.0,0.0,0.0,0.0,0.0,0.0,0.0,0.0,0.0,0.0,0.0,0.0,0.0,0.0,0.0,0.0,0.0,0.0,0.0,0.0,0.0,0.0,0.0,0.0,0.0,0.0,0.0,0.0,0.0,0.0,0.0,0.0,0.0,0.0,0.0,0.0,0.0,0.0,0.0,0.0,0.0,0.0,0.0,0.0,0.0,0.0,0.0,0.0,0.0,0.0,0.0,0.0,0.0,0.0,0.0,0.0,0.0,7.8268,8.3044,8.8301,8.9867,8.7302,8.4403,7.8939,0.0,0.0,0.0,0.0,0.0,0.0,0.0,0.0,0.0,0.0,0.0,0.0,0.0,0.0,0.0,0.0,0.0,0.0,0.0,0.0,0.0,0.0,0.0,0.0,0.0,0.0,0.0,0.0,0.0,0.0,0.0,0.0,0.0,0.0,0.0,0.0,0.0,0.0,0.0,0.0,0.0,0.0,0.0,0.0,0.0,0.0,0.0,0.0,0.0,0.0,0.0,0.0,0.0,0.0,0.0,0.0,0.0,0.0,0.0,0.0,0.0,0.0,0.0,0.0,0.0,0.0,0.0,0.0,0.0,0.0,0.0,0.0,0.0,0.0,0.0,0.0,0.0,0.0,0.0,0.0,0.0,0.0,0.0,0.0,0.0,0.0,0.0,0.0,0.0,0.0,0.0,0.0,0.0,0.0,0.0,0.0,0.0,0.0,0.0,0.0,0.0,0.0,0.0,0.0,0.0,0.0,0.0,7.5703,8.2218,8.6423,9.073,9.2051,9.01,8.667,8.0726,7.2122,0.0,0.0,0.0,0.0,0.0,0.0,0.0,0.0,0.0,0.0,0.0,0.0,0.0,0.0,0.0,0.0,0.0,0.0,0.0,0.0,0.0,0.0,0.0,0.0,0.0,0.0,0.0,0.0,0.0,0.0,0.0,0.0,0.0,0.0,0.0,0.0,0.0,0.0,4.57,4.8264,0.0,0.0,0.0,0.0,0.0,0.0,0.0,0.0,5.0512,0.0,0.0,0.0,0.0,0.0,0.0,0.0,0.0,0.0,0.0,0.0,0.0,0.0,0.0,0.0,0.0,0.0,0.0,0.0,0.0,0.0,0.0,0.0,0.0,0.0,0.0,0.0,0.0,0.0,0.0,0.0,0.0,0.0,0.0,0.0,0.0,0.0,0.0,0.0,0.0,0.0,0.0,0.0,0.0,0.0,0.0,0.0,0.0,0.0,0.0,0.0,0.0,0.0,0.0,0.0,0.0,7.0228,7.816,8.4036,8.772,9.082,9.0967,8.7899,8.3925,7.8843,7.2514,0.0,0.0,0.0,0.0,0.0,0.0,0.0,0.0,0.0,0.0,0.0,0.0,0.0,0.0,0.0,0.0,0.0,0.0,0.0,0.0,0.0,0.0,0.0,0.0,0.0,0.0,0.0,0.0,0.0,0.0,0.0,0.0,0.0,0.0,0.0,0.0,0.0,0.0,0.0,5.1667,5.297,0.0,0.0,0.0,0.0,0.0,0.0,0.0,0.0,4.9415,0.0,0.0,0.0,0.0,0.0,0.0,0.0,0.0,0.0,0.0,0.0,0.0,0.0,0.0,0.0,0.0,0.0,0.0,0.0,0.0,0.0,0.0,0.0,0.0,0.0,0.0,0.0,0.0,0.0,0.0,0.0,0.0,0.0,0.0,0.0,0.0,0.0,0.0,0.0,0.0,0.0,0.0,0.0,0.0,0.0,0.0,0.0,0.0,0.0,0.0,0.0,0.0,0.0,0.0,0.0,7.3195,8.169,8.7147,8.9369,9.1771,9.1214,8.7512,8.2642,7.7153,0.0,0.0,0.0,0.0,0.0,0.0,0.0,0.0,0.0,0.0,0.0,0.0,0.0,0.0,0.0,0.0,0.0,0.0,0.0,0.0,0.0,0.0,0.0,0.0,0.0,0.0,0.0,0.0,0.0,0.0,0.0,0.0,0.0,0.0,0.0,0.0,0.0,0.0,0.0,0.0,5.458,5.6467,5.5565,0.0,0.0,0.0,0.0,0.0,0.0,5.3479,5.1806,0.0,0.0,0.0,0.0,0.0,0.0,0.0,0.0,0.0,0.0,0.0,0.0,0.0,0.0,0.0,0.0,0.0,0.0,0.0,0.0,0.0,0.0,0.0,0.0,0.0,0.0,0.0,0.0,0.0,0.0,0.0,0.0,0.0,0.0,0.0,0.0,0.0,0.0,0.0,0.0,0.0,0.0,0.0,0.0,0.0,0.0,0.0,0.0,0.0,0.0,0.0,0.0,0.0,0.0,0.0,7.5432,8.4497,8.966,9.0785,9.2569,9.1596,8.7492,8.2056,7.6049,0.0,0.0,0.0,0.0,0.0,0.0,0.0,0.0,0.0,0.0,0.0,0.0,0.0,0.0,0.0,0.0,0.0,0.0,0.0,0.0,0.0,0.0,0.0,0.0,0.0,0.0,0.0,0.0,0.0,0.0,0.0,0.0,0.0,0.0,0.0,0.0,0.0,0.0,0.0,0.0,0.0,5.9574,5.897,5.7826,0.0,0.0,0.0,0.0,5.6896,5.6769,0.0,0.0,0.0,0.0,0.0,0.0,0.0,0.0,0.0,0.0,0.0,0.0,0.0,0.0,0.0,0.0,0.0,0.0,0.0,0.0,0.0,0.0,0.0,0.0,0.0,0.0,0.0,0.0,0.0,0.0,0.0,0.0,0.0,0.0,0.0,0.0,0.0,0.0,0.0,0.0,0.0,0.0,0.0,0.0,0.0,0.0,0.0,0.0,0.0,0.0,0.0,0.0,0.0,0.0,0.0,0.0,7.6228,8.4535,8.9658,9.126,9.2402,9.1065,8.698,8.1988,7.6085,0.0,0.0,0.0,0.0,0.0,0.0,0.0,0.0,0.0,0.0,0.0,0.0,0.0,0.0,0.0,0.0,0.0,0.0,0.0,0.0,0.0,0.0,0.0,0.0,0.0,0.0,0.0,0.0,0.0,0.0,0.0,0.0,0.0,0.0,0.0,0.0,0.0,0.0,0.0,0.0,0.0,6.1625,6.2246,6.2226,6.2136,0.0,0.0,6.1207,6.1902,6.1402,0.0,0.0,0.0,0.0,0.0,0.0,0.0,0.0,0.0,0.0,0.0,0.0,0.0,0.0,0.0,0.0,0.0,0.0,0.0,0.0,0.0,0.0,0.0,0.0,0.0,0.0,0.0,0.0,0.0,0.0,0.0,0.0,0.0,0.0,0.0,0.0,0.0,0.0,0.0,0.0,0.0,0.0,0.0,0.0,0.0,0.0,0.0,0.0,0.0,0.0,0.0,0.0,0.0,0.0,0.0,6.9233,7.6867,8.5434,9.0185,9.0955,9.1808,9.0347,8.6324,8.1511,7.5575,0.0,0.0,0.0,0.0,0.0,0.0,0.0,0.0,0.0,0.0,0.0,0.0,0.0,0.0,0.0,0.0,0.0,0.0,0.0,0.0,0.0,0.0,0.0,0.0,0.0,0.0,0.0,0.0,0.0,0.0,0.0,0.0,0.0,0.0,0.0,0.0,0.0,0.0,0.0,0.0,0.0,0.0,6.562,6.6643,0.0,0.0,0.0,6.5758,6.703,0.0,0.0,0.0,0.0,0.0,0.0,0.0,0.0,0.0,0.0,0.0,0.0,0.0,0.0,0.0,0.0,0.0,0.0,0.0,0.0,0.0,0.0,0.0,0.0,0.0,0.0,0.0,0.0,0.0,0.0,0.0,0.0,0.0,0.0,0.0,0.0,0.0,0.0,0.0,0.0,0.0,0.0,0.0,0.0,0.0,0.0,0.0,0.0,0.0,0.0,0.0,0.0,0.0,0.0,0.0,0.0,0.0,7.7582,8.617,9.0693,9.0913,9.1473,9.0087,8.6453,8.2076,0.0,0.0,0.0,0.0,0.0,0.0,0.0,0.0,0.0,0.0,0.0,0.0,0.0,0.0,0.0,0.0,0.0,0.0,0.0,0.0,0.0,0.0,0.0,0.0,0.0,0.0,0.0,3.618,0.0,0.0,0.0,0.0,0.0,0.0,0.0,0.0,0.0,0.0,0.0,0.0,0.0,0.0,6.8155,6.9327,7.1009,7.1959,0.0,0.0,7.0474,7.1849,7.2176,7.0614,0.0,0.0,0.0,0.0,0.0,0.0,0.0,0.0,0.0,0.0,0.0,0.0,0.0,0.0,0.0,0.0,0.0,0.0,0.0,0.0,0.0,0.0,0.0,0.0,0.0,0.0,0.0,0.0,0.0,0.0,0.0,0.0,0.0,0.0,0.0,0.0,0.0,0.0,0.0,0.0,0.0,0.0,0.0,0.0,0.0,0.0,0.0,0.0,0.0,0.0,0.0,0.0,0.0,0.0,0.0,7.8442,8.6481,9.095,9.1702,9.1767,9.0592,8.8096,8.4821,7.9362,0.0,0.0,0.0,0.0,0.0,0.0,0.0,0.0,0.0,0.0,0.0,0.0,0.0,0.0,0.0,0.0,0.0,0.0,0.0,0.0,0.0,0.0,0.0,0.0,0.0,0.0,0.0,0.0,0.0,0.0,0.0,0.0,0.0,0.0,0.0,0.0,0.0,0.0,0.0,0.0,0.0,7.1091,7.3442,7.5294,7.6615,0.0,0.0,7.5387,7.6159,7.5004,7.2325,6.7358,0.0,0.0,0.0,0.0,0.0,0.0,0.0,0.0,0.0,0.0,0.0,0.0,0.0,0.0,0.0,0.0,0.0,0.0,0.0,0.0,0.0,0.0,0.0,0.0,0.0,0.0,0.0,0.0,0.0,0.0,0.0,0.0,0.0,0.0,0.0,0.0,0.0,0.0,0.0,0.0,0.0,0.0,0.0,0.0,0.0,0.0,0.0,0.0,0.0,0.0,0.0,0.0,0.0,7.1218,7.9294,8.7802,9.2014,9.184,9.2317,9.1657,8.9711,8.75,8.257,0.0,0.0,0.0,0.0,0.0,0.0,0.0,0.0,0.0,0.0,0.0,0.0,0.0,0.0,0.0,0.0,0.0,0.0,0.0,0.0,0.0,0.0,0.0,0.0,0.0,0.0,0.0,0.0,4.1645,4.1874,4.1994,0.0,0.0,0.0,0.0,0.0,0.0,0.0,0.0,0.0,0.0,7.4729,7.7687,8.0031,0.0,0.0,8.0179,7.9361,7.9068,7.764,7.4808,6.9799,6.4072,0.0,0.0,0.0,0.0,0.0,0.0,0.0,0.0,0.0,0.0,0.0,0.0,0.0,0.0,0.0,0.0,0.0,0.0,0.0,0.0,0.0,0.0,0.0,0.0,0.0,0.0,0.0,0.0,0.0,0.0,0.0,0.0,0.0,0.0,0.0,0.0,0.0,0.0,0.0,0.0,0.0,0.0,0.0,0.0,0.0,0.0,0.0,0.0,0.0,0.0,0.0,0.0,7.1702,7.9743,8.8325,9.2427,9.1803,9.2391,9.2024,9.0629,8.9042,8.4646,0.0,0.0,0.0,0.0,0.0,0.0,0.0,0.0,0.0,0.0,0.0,0.0,0.0,0.0,0.0,0.0,0.0,0.0,0.0,0.0,0.0,0.0,0.0,0.0,0.0,0.0,0.0,0.0,4.3902,4.3479,4.2376,0.0,0.0,0.0,0.0,0.0,0.0,0.0,0.0,0.0,0.0,7.7498,8.0783,8.3037,8.4309,8.4146,8.3262,8.2206,8.1088,7.924,7.6337,7.1561,0.0,0.0,0.0,0.0,0.0,0.0,0.0,0.0,0.0,0.0,0.0,0.0,0.0,0.0,0.0,0.0,0.0,0.0,0.0,0.0,0.0,0.0,0.0,0.0,0.0,0.0,0.0,4.3597,0.0,0.0,4.3592,0.0,0.0,0.0,0.0,0.0,0.0,0.0,0.0,0.0,0.0,0.0,0.0,0.0,0.0,0.0,0.0,0.0,0.0,0.0,0.0,0.0,0.0,7.1702,7.9743,8.7774,9.184,9.1812,9.184,9.1473,9.062,8.9042,8.5168,7.8633,0.0,0.0,0.0,0.0,0.0,0.0,0.0,0.0,0.0,0.0,0.0,0.0,0.0,0.0,0.0,0.0,0.0,0.0,0.0,0.0,0.0,0.0,0.0,0.0,0.0,0.0,4.6192,4.6383,4.5692,0.0,0.0,0.0,0.0,0.0,0.0,0.0,0.0,0.0,0.0,7.3671,7.9169,8.2502,8.3759,8.4943,8.6462,8.5282,8.3644,8.1958,7.9584,7.657,0.0,0.0,0.0,0.0,0.0,0.0,0.0,0.0,0.0,0.0,0.0,0.0,0.0,0.0,0.0,0.0,0.0,0.0,0.0,0.0,0.0,0.0,0.0,0.0,0.0,0.0,0.0,5.0692,4.9879,0.0,0.0,0.0,0.0,0.0,0.0,0.0,0.0,0.0,0.0,0.0,6.6042,6.6579,0.0,0.0,0.0,0.0,0.0,0.0,0.0,0.0,0.0,0.0,0.0,0.0,7.1666,7.9779,8.828,9.2354,9.184,9.2391,9.2244,9.1436,9.0372,8.5527,7.6416,0.0,0.0,0.0,0.0,0.0,0.0,0.0,0.0,0.0,0.0,0.0,0.0,0.0,0.0,0.0,0.0,0.0,0.0,0.0,0.0,0.0,0.0,0.0,0.0,0.0,4.6381,0.0,0.0,0.0,0.0,0.0,0.0,0.0,0.0,0.0,0.0,0.0,6.6136,7.1412,7.5997,8.0243,8.4098,8.5392,8.6385,0.0,0.0,0.0,0.0,0.0,0.0,0.0,0.0,0.0,0.0,0.0,0.0,0.0,0.0,7.0686,6.6258,6.5551,6.5255,6.3786,0.0,0.0,0.0,0.0,0.0,0.0,0.0,0.0,0.0,0.0,0.0,0.0,0.0,0.0,5.7299,0.0,5.4247,0.0,0.0,0.0,0.0,0.0,0.0,0.0,0.0,6.9259,7.2055,7.3891,7.4727,7.4801,0.0,7.5131,7.1233,0.0,0.0,0.0,0.0,0.0,0.0,0.0,0.0,7.2393,8.0175,8.839,9.2391,9.1849,9.2354,9.2391,9.1812,8.9931,8.5049,7.6864,6.9376,6.2658,0.0,0.0,0.0,0.0,0.0,0.0,0.0,0.0,0.0,0.0,0.0,0.0,0.0,0.0,0.0,0.0,0.0,0.0,0.0,0.0,0.0,0.0,0.0,4.8644,0.0,0.0,0.0,0.0,0.0,0.0,0.0,0.0,0.0,6.1172,6.587,7.0748,7.4904,7.8424,8.1886,8.5463,0.0,0.0,0.0,0.0,0.0,0.0,0.0,7.6991,7.6193,7.5343,7.5126,7.62,7.7717,7.8737,7.8698,0.0,0.0,7.4706,7.3893,7.3743,7.2443,7.1815,7.163,7.1982,7.2892,7.4114,0.0,0.0,0.0,0.0,0.0,0.0,0.0,0.0,6.4897,6.4053,0.0,5.9869,0.0,0.0,0.0,0.0,0.0,5.9691,0.0,0.0,7.527,7.8794,8.1085,8.1929,8.2341,8.2406,8.3022,8.1252,7.6878,6.7173,0.0,0.0,0.0,0.0,0.0,0.0,7.3744,8.0967,8.8169,9.1803,9.1812,9.1812,9.1803,9.173,8.7995,8.4148,8.0147,7.5322,6.9772,6.3453,6.0015,0.0,0.0,0.0,0.0,0.0,0.0,0.0,0.0,0.0,0.0,0.0,0.0,0.0,0.0,0.0,0.0,0.0,0.0,0.0,0.0,5.2817,0.0,0.0,0.0,0.0,0.0,0.0,0.0,0.0,0.0,0.0,6.5718,7.0509,7.5038,7.7608,0.0,0.0,0.0,0.0,8.8382,8.9256,8.865,8.7274,8.49,8.372,8.2803,8.2149,0.0,0.0,8.5143,8.5245,8.5136,8.5003,8.6246,8.6221,8.268,8.1626,8.13,8.0821,7.9854,7.9835,8.0913,8.076,8.164,7.5747,0.0,0.0,0.0,0.0,7.1101,7.301,7.4735,7.3883,7.2745,7.1233,6.8054,0.0,0.0,0.0,0.0,0.0,0.0,7.0484,7.7063,8.0233,8.2941,8.5298,8.6114,8.6187,8.5673,8.584,8.4482,8.1546,7.748,7.0777,6.1716,0.0,0.0,0.0,0.0,7.5139,8.1782,8.8426,9.1812,9.1812,9.1812,9.1812,9.1776,8.9022,8.6967,8.5792,8.0579,7.5799,7.1564,6.6169,0.0,0.0,0.0,0.0,0.0,0.0,0.0,0.0,0.0,0.0,0.0,0.0,0.0,0.0,0.0,0.0,0.0,0.0,0.0,5.7241,5.7263,5.6197,0.0,0.0,0.0,0.0,0.0,0.0,0.0,0.0,0.0,7.4512,7.6662,7.8837,0.0,0.0,8.5473,8.746,8.7962,8.8802,9.0784,8.9867,0.0,8.883,8.7073,8.6041,8.6996,8.8694,9.0369,9.1713,9.1767,9.1294,9.0436,9.0658,9.0419,8.885,8.7223,8.5939,8.4989,8.4386,8.4071,8.4226,8.4681,8.5477,8.5298,7.8765,7.657,7.6269,7.7451,7.9176,8.1232,8.3287,8.2463,8.1538,8.0445,7.693,7.3039,6.8965,6.7343,0.0,0.0,0.0,7.6468,8.2268,8.4674,8.7096,8.9372,9.0262,9.0225,8.9445,8.9078,8.783,8.5766,8.449,7.9764,7.1762,0.0,0.0,6.8385,7.2716,7.7781,8.3553,8.9022,9.1812,9.1812,9.1812,9.1812,9.1776,9.0078,8.9014,8.8601,8.4499,8.0396,7.6497,7.1424,6.5955,0.0,0.0,0.0,0.0,0.0,0.0,0.0,0.0,0.0,0.0,0.0,4.2467,0.0,0.0,0.0,0.0,5.4204,5.8576,6.1117,6.1853,0.0,0.0,0.0,0.0,0.0,0.0,0.0,7.0474,7.4568,7.8085,8.0686,8.2233,8.3332,8.4103,8.5908,8.7704,8.9043,0.0,9.0414,9.2204,9.1627,9.1126,9.1659,9.0479,9.0016,9.1659,9.3241,9.4464,9.5176,9.5103,9.4594,9.385,9.3601,9.3451,9.2912,9.174,9.0325,8.8764,8.8226,8.7998,8.7965,8.8388,8.8885,9.2648,9.073,8.5608,8.4132,8.5233,8.6049,8.8096,9.0767,9.0024,8.9657,8.9298,8.5591,8.2105,7.8854,7.4933,0.0,7.6864,7.9132,8.2288,8.6269,8.8473,9.0785,9.3198,9.3942,9.3868,9.3042,9.2207,9.0996,8.9473,8.8638,8.6775,8.3601,7.5542,7.2789,7.5461,7.7892,8.135,8.5939,8.9821,9.1812,9.1812,9.1812,9.1812,9.1812,9.1106,9.0326,8.9473,8.7288,8.3956,7.9404,7.5983,7.0961,6.3967,0.0,0.0,0.0,0.0,0.0,0.0,0.0,0.0,0.0,0.0,0.0,0.0,0.0,0.0,0.0,5.8456,0.0,6.5013,6.6501,0.0,0.0,0.0,6.336,6.6404,6.9433,7.2744,7.6641,0.0,0.0,8.4805,8.6878,8.7929,8.7327,8.8929,9.0367,9.1099,9.1938,9.2803,9.3623,9.3767,9.385,9.4039,9.3805,9.407,9.5357,9.6426,9.6399,9.6156,9.5861,9.5591,9.5129,9.5164,9.5127,9.5164,9.4801,9.4353,9.2014,9.1472,9.145,9.171,9.183,9.1803,9.7089,9.6071,9.4713,9.2611,9.0197,9.0996,9.217,9.3308,9.2574,9.1877,9.1152,8.8968,8.6179,8.3022,8.008,8.0133,8.2618,8.3019,8.55,8.9363,8.9879,9.1464,9.3969,9.4199,9.3859,9.3079,9.2216,9.1289,9.0326,8.951,8.8418,8.6949,8.4307,8.2141,8.0608,8.226,8.4646,8.7619,9.0381,9.1812,9.1812,9.1812,9.1812,9.1812,9.162,9.1143,9.0326,8.9188,8.7178,8.4177,8.0396,7.588,7.0433,6.4016,0.0,0.0,0.0,0.0,0.0,0.0,0.0,0.0,0.0,4.8827,5.2382,0.0,5.5862,0.0,6.1681,6.6186,6.9671,7.0857,0.0,0.0,7.0083,7.0455,7.297,7.5935,7.8883,8.1584,8.4084,8.61,8.7472,8.8736,8.9736,9.0268,9.1732,9.282,9.3053,9.3768,9.4595,9.5386,9.598,9.6695,9.7154,9.6883,9.6349,9.6102,9.6043,9.5845,9.5508,9.5223,9.4943,9.4631,9.454,9.454,9.4595,9.4504,9.4347,9.3758,9.3647,9.3693,9.3731,9.3685,9.3529,9.8846,9.8134,9.8134,9.6807,9.4757,9.5095,9.5483,9.5851,9.5401,9.497,9.4456,9.2729,9.0722,8.8517,8.6798,8.6779,8.8005,8.7694,8.913,9.1856,9.1957,9.3111,9.5204,9.5326,9.4777,9.3602,9.2024,9.1023,9.0583,8.9803,8.9335,8.9307,8.9555,8.883,8.7105,8.6839,8.7757,8.9793,9.184,9.2914,9.2914,9.2574,9.2391,9.2354,9.1657,9.0877,9.0069,8.8959,8.7206,8.4792,8.1578,7.7752,7.3193,6.7173,6.141,0.0,0.0,0.0,0.0,0.0,0.0,0.0,0.0,0.0,0.0,0.0,6.087,6.202,6.5096,6.867,7.2753,7.48,7.6398,7.7489,7.7297,7.7865,7.9877,8.1929,8.3946,8.5947,8.7589,8.8975,8.9861,9.0813,9.1536,9.2112,9.3187,9.3944,9.3926,9.4287,9.496,9.6201,9.6754,9.7322,9.8153,9.792,9.7418,9.6967,9.6659,9.6428,9.6153,9.5907,9.5682,9.5439,9.5373,9.5373,9.5373,9.5364,9.5364,9.5383,9.5412,9.5183,9.4474,9.4309,9.4088,9.9292,9.8562,9.8562,9.8489,9.8375,9.8211,9.8039,9.7965,9.7855,9.7755,9.7552,9.5845,9.4563,9.3577,9.281,9.2325,9.2045,9.1395,9.1906,9.3304,9.3606,9.4607,9.6209,9.6485,9.5765,9.4151,9.1804,9.0658,9.0658,8.9842,8.9915,9.0841,9.2308,9.3078,9.3078,9.1015,9.0648,9.2097,9.3575,9.4309,9.4309,9.3529,9.3051,9.2868,9.1317,8.9922,8.8812,8.7537,8.5665,8.3197,8.1093,7.8156,7.4155,6.9522,6.4818,0.0,5.774,0.0,0.0,0.0,0.0,0.0,0.0,0.0,0.0,6.4023,6.6012,6.7614,6.9075,7.1527,7.5307,7.8552,8.1313,8.3426,8.3903,8.4564,8.5939,8.6913,8.8005,8.94,9.0253,9.1069,9.1812,9.2648,9.3088,9.3235,9.3805,9.4291,9.4296,9.4359,9.4916,9.6297,9.6556,9.6927,9.7484,9.7632,9.7595,9.7577,9.7388,9.7338,9.7045,9.6962,9.6867,9.6697,9.6575,9.6612,9.6685,9.6649,9.6649,9.6575,9.6585,9.6191,9.508,9.4749,9.4336,10.0094,9.9391,9.9391,9.899,9.8463,9.901,9.8905,9.8258,9.7637,9.698,9.6256,9.5154,9.4223,9.3494,9.1946,9.0945,9.0404,8.9506,9.0035,9.1763,9.2237,9.3405,9.5095,9.5782,9.53,9.3667,9.1941,9.1101,9.1065,9.0289,9.0608,9.2041,9.237,9.2844,9.3455,0.0,0.0,0.0,9.4125,9.4309,9.4272,9.3529,9.2758,9.2069,9.0473,0.0,8.5702,8.582,8.4609,8.1628,8.1004,0.0,0.0,0.0,0.0,0.0,0.0,0.0,0.0,0.0,0.0,0.0,7.1174,7.1651,7.0367,7.1248,7.254,7.4147,7.516,7.6848,7.9572,8.2186,8.4132,8.5241,8.6518,8.7435,8.7766,8.9005,9.0069,9.0326,9.106,9.1913,9.2721,9.3015,9.3372,9.3969,9.4199,9.4539,9.5157,9.5212,9.5378,9.569,9.6271,9.6712,9.6877,9.6942,9.6989,9.6914,9.6895,9.6857,9.6828,9.68,9.6752,9.6722,9.6722,9.6722,9.6722,9.6722,9.6722,9.6722,9.6722,9.6612,9.6318,9.6208,9.6025,10.0274,0.0,9.99,9.9646,0.0,9.9718,9.9646,9.9231,9.8651,9.7881,9.6966,9.6063,9.5232,9.437,9.1988,9.0471,8.9644,8.8072,8.8435,9.0371,9.1152,9.2629,9.4703,9.5595,9.5171,9.3577,9.1999,9.1187,9.116,9.0786,9.1224,9.24,9.3212,9.3786,9.4187,9.4598,9.4889,9.5131,9.5157,9.5131,9.5094,9.4055,9.3269,9.2802,9.0602,0.0,0.0,0.0,0.0,0.0,0.0,0.0,0.0,0.0,0.0,6.9427,6.8587,6.7787,6.7046,7.0347,7.334,7.5395,7.8817,7.9543,7.635,7.613,7.6945,7.8919,7.9866,8.1326,8.372,8.5445,8.6848,8.8023,8.8904,8.9519,9.0005,9.1069,9.184,9.1904,9.2537,9.3235,9.3639,9.407,9.4437,9.485,9.5254,9.5584,9.5951,9.5758,9.5611,9.6015,9.6392,9.6695,9.6722,9.6722,9.6722,9.6732,9.6722,9.6722,9.6722,9.6722,9.6722,9.6722,9.6722,9.6722,9.6722,9.6722,9.6722,9.6722,9.6722,9.6722,9.6722,9.6722,9.6465,10.0541,10.0422,10.0566,10.0541,10.0422,10.0422,10.0313,10.0154,0.0,0.0,0.0,9.7376,9.6447,9.5212,9.2502,9.0677,8.9478,8.7467,8.7666,8.9659,9.0615,9.2265,9.4455,9.5454,9.5124,9.3657,9.2201,9.1509,9.1509,9.1499,9.1946,9.2757,9.4041,9.4697,9.4733,9.5498,9.5899,9.5899,9.597,9.601,9.5973,9.4729,9.3921,9.3704,9.0988,8.8704,8.6876,8.6297,8.5196,8.3491,8.2884,8.2186,8.1187,7.8623,7.6704,7.576,7.5596,7.5464,7.5378,7.7736,7.9826,8.1387,8.4544,8.4911,8.1313,8.0461,8.0901,8.2884,8.3756,8.5078,8.7023,8.8087,8.916,9.0473,9.0739,9.1143,9.1913,9.2648,9.3079,9.3336,9.3832,9.4382,9.452,9.5024,9.5565,9.5758,9.6208,9.6722,9.6612,9.6162,9.5978,9.6502,9.6685,9.6722,9.6722,9.6722,9.6722,9.6722,9.6722,9.6722,9.6722,9.6722,9.6722,9.6722,9.6722,9.6722,9.6722,9.6722,9.6722,9.6722,9.6722,9.6722,9.6722,9.6722,9.6502,10.1845,10.1291,10.1965,10.1856,10.1218,10.1218,10.0831,10.0143,9.9412,9.8625,9.7842,9.7734,9.6807,9.53,9.351,9.1869,9.0364,8.8672,8.8826,9.0436,9.13,9.2578,9.4245,9.5083,9.5021,9.4105,9.3198,9.2763,9.2763,9.2763,9.3162,9.3887,9.4177,9.4332,9.4358,9.5058,9.5503,9.5514,9.5818,9.601,9.5973,9.5128,9.4105,9.287,9.1161,8.8836,8.6114,8.6554,8.5775,8.3564,8.394,8.3581,8.2113,8.1444,8.0715,8.0007,8.1526,8.2613,8.2758,8.5032,8.6885,8.7951,8.8601,8.8051,8.6179,8.5885,8.5958,8.6362,8.7031,8.7619,8.8096,8.9409,9.0436,9.0656,9.1253,9.1987,9.2822,9.3088,9.3455,9.4042,9.4226,9.463,9.5244,9.5465,9.5832,9.6345,9.6575,9.6722,9.6685,9.6612,9.6575,9.6685,9.6722,9.6722,9.6722,9.6722,9.6722,9.6722,9.6722,9.6722,9.6722,9.6722,9.6722,9.6722,9.6722,9.6722,9.6722,9.6722,9.6722,9.6722,9.6722,9.6722,9.6722,9.6722,9.6649,10.225,10.2099,10.2436,10.24,10.2026,10.158,10.0929,10.0215,9.9817,9.9455,9.9093,9.8658,9.7789,9.6568,9.4555,9.2998,9.1803,9.0255,9.0354,9.1885,9.2284,9.3298,9.4783,9.5228,9.5191,9.4819,9.4493,9.4286,9.4322,9.4312,9.4457,9.4819,9.4855,9.4855,9.4891,9.5228,9.5409,9.5419,9.5607,9.5664,9.5674,9.5013,9.4339,9.3673,9.2212,9.0381,8.817,8.8435,8.7731,8.5748,8.6049,8.5866,8.5163,8.4637,8.4321,8.4325,8.5318,8.6128,8.6557,8.7833,8.8983,8.9969,8.9925,8.9851,8.9629,8.8785,8.8482,8.8931,8.9674,9.0335,9.0812,9.1913,9.2611,9.2611,9.2941,9.3308,9.3712,9.4143,9.4547,9.4914,9.5327,9.5731,9.6088,9.6162,9.6235,9.6649,9.6722,9.6722,9.6722,9.6722,9.6722,9.6722,9.6722,9.6722,9.6722,9.6722,9.6722,9.6722,9.6722,9.6722,9.6722,9.6722,9.6722,9.6722,9.6722,9.6722,9.6722,9.6722,9.6722,9.6722,9.6722,9.6722,9.6722,9.6722,9.6722,10.2659,10.2834,10.3052,10.3015,10.2762,10.1809,10.1037,10.0458,10.0277,10.0168,10.0107,9.9527,9.8803,9.7897,9.5905,9.4602,9.3686,9.232,9.2428,9.3722,9.3805,9.4565,9.5807,9.5952,9.5952,9.5952,9.5916,9.5843,9.5699,9.5662,9.5554,9.5409,9.5409,9.5409,9.5409,9.5409,9.5409,9.5409,9.5409,9.5409,9.5383,9.4938,9.4642,9.4439,9.3472,9.2242,9.0932,9.0823,9.0166,8.8817,8.8526,8.8334,8.8115,8.7522,8.7411,8.8017,8.8392,8.8848,8.9545,8.9968,9.0493,9.1208,9.1161,9.1436,9.1977,9.1116,9.0611,9.1125,9.1693,9.2391,9.3125,9.3822,9.4309,9.4309,9.4309,9.4345,9.4593,9.5134,9.5602,9.5795,9.6309,9.6685,9.6722,9.6722,9.6685,9.6685,9.6722,9.6722,9.6722,9.6722,9.6722,9.6722,9.6722,9.6722,9.6722,9.6722,9.6722,9.6722,9.6722,9.6722,9.6722,9.6722,9.6722,9.6722,9.6722,9.6722,9.6722,9.6722,9.6722,9.6722,9.6722,9.6722,9.6722,9.6722,9.6722,10.3544,10.3719,10.431,10.4272,10.3439,10.2015,10.1363,10.1146,10.0541,10.0168,10.0179,10.0107,9.9636,9.8839,9.7861,9.6992,9.6242,9.5373,9.5445,9.6206,9.6278,9.6749,9.7473,9.7546,9.7571,9.7546,9.751,9.7111,9.6495,9.6459,9.6097,9.5481,9.5409,9.5445,9.5409,9.5445,9.5445,9.5409,9.5409,9.5409,9.5409,9.5368,9.5052,9.4501,9.4376,9.3978,9.319,9.3265,9.2864,9.1999,9.1204,9.0512,8.9846,8.9549,8.9725,9.0458,9.1057,9.1815,9.2704,9.3217,9.3288,9.3353,9.3342,9.3398,9.3399,9.3398,9.3259,9.3023,9.2932,9.3382,9.4088,9.4345,9.4456,9.4529,9.4456,9.4566,9.5254,9.5465,9.5758,9.6492,9.6612,9.6722,9.6722,9.6722,9.6722,9.6722,9.6722,9.6722,9.6722,9.6722,9.6722,9.6722,9.6722,9.6722,9.6722,9.6722,9.6722,9.6722,9.6722,9.6722,9.6722,9.6722,9.6722,9.6722,9.6722,9.6722,9.6722,9.6722,9.6722,9.6722,9.6722,9.6722,9.6722,9.6722,9.6722,10.3157,10.3484,10.3976,10.3963,10.3401,10.2513,10.1845,10.1327,10.0541,10.0168,10.0168,10.0168,10.0034,9.9672,9.9382,9.902,9.8694,9.8368,9.8404,9.8658,9.826,9.8187,9.8441,9.8017,9.7799,9.7799,9.7799,9.7644,9.7292,9.6821,9.6169,9.5554,9.5854,9.6097,9.6133,9.6568,9.6821,9.6821,9.6821,9.6821,9.6713,9.588,9.527,9.5089,9.5027,9.4695,9.4041,9.3942,9.3579,9.2826,9.2427,9.1908,9.1119,9.1429,9.1597,9.1525,9.2107,9.2727,9.3266,9.3455,9.3554,9.3584,9.3564,9.3544,9.3593,9.3691,9.3873,9.4312,9.4444,9.4694,9.4997,9.5437,9.5731,9.5694,9.5731,9.5841,9.6135,9.6208,9.6392,9.6685,9.6722,9.6722,9.6722,9.6722,9.6722,9.6722,9.6722,9.6722,9.6722,9.6722,9.6722,9.6722,9.6722,9.6722,9.6722,9.6722,9.6722,9.6722,9.6722,9.6722,9.6722,9.6722,9.6722,9.6722,9.6722,9.6722,9.6722,9.6722,9.6722,9.6722,9.6722,9.6722,9.6722,9.6722,9.6722,10.2259,10.282,10.3348,10.3543,10.3399,10.282,10.2255,10.1628,10.0639,10.0168,10.0168,10.0168,10.0059,9.9915,10.0096,10.0168,10.0168,10.0168,10.0168,10.0143,9.96,9.931,9.9237,9.873,9.8441,9.8441,9.8477,9.8368,9.8078,9.7329,9.664,9.6206,9.664,9.693,9.6956,9.7546,9.7799,9.7799,9.7799,9.7799,9.7655,9.6677,9.5952,9.5735,9.5528,9.5119,9.4555,9.4519,9.4276,9.3696,9.3468,9.307,9.2527,9.2817,9.2817,9.261,9.3225,9.3722,9.3849,9.3936,9.4007,9.4087,9.4152,9.4225,9.419,9.4382,9.4813,9.5289,9.5678,9.5832,9.5905,9.6355,9.6685,9.6722,9.6722,9.6722,9.6685,9.6722,9.6685,9.6722,9.6722,9.6722,9.6722,9.6722,9.6722,9.6722,9.6722,9.6722,9.6722,9.6722,9.6722,9.6722,9.6722,9.6722,9.6722,9.6722,9.6722,9.6722,9.6722,9.6722,9.6722,9.6722,9.6722,9.6722,9.6722,9.6722,9.6722,9.6722,9.6722,9.6722,9.6722,9.6722,9.6722,9.6722,9.6722,10.0809,10.1702,10.2761,10.3352,10.3613,10.2888,10.2594,10.2357,10.0906,10.0229,10.028,10.0255,9.9806,9.9277,9.9943,10.0204,10.0132,10.0059,10.0023,10.0023,10.0034,10.0096,10.0132,10.0096,9.9998,9.9781,9.9744,9.9491,9.8875,9.8125,9.7716,9.7691,9.7691,9.7752,9.7763,9.7908,9.7872,9.797,9.7981,9.7908,9.7872,9.7752,9.7292,9.664,9.5843,9.5409,9.53,9.5336,9.5274,9.5264,9.4519,9.412,9.4012,9.3396,9.3324,9.4012,9.4793,9.5228,9.5244,9.5317,9.5394,9.5405,9.5944,9.6219,9.5317,9.6109,9.6431,9.5994,9.6306,9.6529,9.6575,9.6612,9.6722,9.6722,9.6722,9.6722,9.6722,9.6722,9.6722,9.6722,9.6722,9.6722,9.6722,9.6722,9.6722,9.6722,9.6722,9.6722,9.6722,9.6722,9.6722,9.6722,9.6722,9.6722,9.6722,9.6722,9.6722,9.6722,9.6722,9.6722,9.6722,9.6722,9.6722,9.6722,9.6722,9.6722,9.6722,9.6722,9.6722,9.6722,9.6722,9.6722,9.6722,9.6722,9.6722,10.0231,10.1128,10.1866,10.2446,10.2851,10.2462,10.2395,10.2525,10.1598,10.1175,10.1211,10.1187,10.1031,10.0767,10.0527,9.9806,9.8756,9.8658,9.8658,9.8658,9.8658,9.8658,9.8658,9.8658,9.8984,9.9382,9.9419,9.931,9.902,9.8694,9.8296,9.797,9.8332,9.8549,9.8658,9.9093,9.9346,9.9346,9.9346,9.9346,9.9237,9.8839,9.8441,9.8078,9.6858,9.5926,9.5409,9.5409,9.5409,9.5409,9.5119,9.4746,9.4229,9.3939,9.4131,9.4855,9.5228,9.5409,9.5419,9.5446,9.5503,9.5466,9.6197,9.641,9.5793,9.6458,9.6859,9.6299,9.6433,9.6666,9.6722,9.6722,9.6722,9.6722,9.6722,9.6722,9.6722,9.6722,9.6722,9.6722,9.6722,9.6722,9.6722,9.6722,9.6722,9.6722,9.6722,9.6722,9.6722,9.6722,9.6722,9.6722,9.6722,9.6722,9.6722,9.6722,9.6722,9.6722,9.6722,9.6722,9.6722,9.6722,9.6722,9.6722,9.6722,9.6722,9.6722,9.6722,9.6722,9.6722,9.6722,9.6722,9.6722,9.6722,9.6722,9.9387,10.0108,10.0718,10.1285,10.1715,10.157,10.172,10.1937,10.1592,10.1402,10.1378,10.1414,10.1259,10.096,10.0494,9.9544,9.827,9.8455,9.8651,9.8827,9.875,9.8706,9.8645,9.8417,9.8617,9.92,9.9349,9.9382,9.9382,9.9419,9.9093,9.8658,9.9165,9.9382,9.9491,9.9962,10.0168,10.0168,10.0168,10.0168,10.0107,9.9672,9.9237,9.8911,9.7934,9.7003,9.6206,9.6169,9.6169,9.6169,9.6169,9.5942,9.5435,9.5352,9.5616,9.6097,9.6169,9.6169,9.6169,9.6169,9.6169,9.6206,9.6894,9.7039,9.6346,9.7039,9.711,9.6684,9.6507,9.6722,9.6722,9.6722,9.6722,9.6722,9.6722,9.6722,9.6722,9.6722,9.6722,9.6722,9.6722,9.6722,9.6722,9.6722,9.6722,9.6722,9.6722,9.6722,9.6722,9.6722,9.6722,9.6722,9.6722,9.6722,9.6722,9.6722,9.6722,9.6722,9.6722,9.6722,9.6722,9.6722,9.6722,9.6722,9.6722,9.6722,9.6722,9.6722,9.6722,9.6722,9.6722,9.6722,9.6722,9.6722,9.6722,9.8249,9.8716,9.9367,9.999,10.0333,10.0385,10.0545,10.0905,10.0936,10.0885,10.0878,10.0828,10.0552,9.9729,9.9853,9.9384,9.924,9.9745,10.0199,10.0474,10.0294,10.0166,10.0094,9.9232,9.9006,9.9395,9.9899,10.0023,9.9878,9.9806,9.9781,9.9998,9.9889,9.9889,10.0107,10.0096,10.0168,10.0168,10.0168,10.0168,10.0168,10.0132,9.977,9.9165,9.8948,9.8549,9.7825,9.7727,9.7618,9.7655,9.7655,9.7763,9.751,9.7499,9.7691,9.7582,9.7691,9.7727,9.7691,9.7618,9.7546,9.7655,9.8441,9.8368,9.7708,9.8037,9.8021,9.7317,9.6914,9.6757,9.6757,9.6693,9.6703,9.6722,9.6722,9.6722,9.6722,9.6722,9.6722,9.6722,9.6722,9.6722,9.6722,9.6722,9.6685,9.6575,9.6539,9.6465,9.6355,9.6392,9.6612,9.6649,9.6649,9.6722,9.6722,9.6722,9.6722,9.6722,9.6722,9.6722,9.6722,9.6722,9.6722,9.6722,9.6722,9.6722,9.6722,9.6722,9.6722,9.6722,9.6722,9.6722,9.6722,9.6722,9.6722,9.8187,9.8553,9.8962,9.9347,9.9669,9.9931,10.0321,10.0812,10.1179,10.132,10.1338,10.132,10.1201,10.0831,10.0425,10.0286,10.0556,10.066,10.0433,9.9927,9.9396,9.9134,9.8777,9.7742,9.7285,9.7655,9.8263,9.8585,9.8647,9.8658,9.8549,9.8622,9.9165,9.9382,9.9455,9.9889,10.0168,10.0168,10.0168,10.0168,10.0168,10.0168,10.007,9.9842,9.9817,9.9708,9.9419,9.8404,9.7836,9.7872,9.7799,9.7799,9.7836,9.7799,9.7799,9.7799,9.7799,9.7799,9.7799,9.7836,9.7872,9.7981,9.8585,9.8549,9.8038,9.8575,9.8599,9.7928,9.7363,9.711,9.7202,9.6765,9.6577,9.6703,9.6722,9.6759,9.6869,9.6795,9.6722,9.6722,9.6722,9.6722,9.6685,9.6685,9.6428,9.5978,9.5905,9.5768,9.529,9.5621,9.5868,9.5868,9.6245,9.6649,9.6722,9.6722,9.6722,9.6722,9.6722,9.6722,9.6722,9.6722,9.6722,9.6722,9.6722,9.6722,9.6722,9.6722,9.6722,9.6722,9.6722,9.6722,9.6722,9.6722,9.6722,9.7313,9.7526,9.7703,9.7849,9.8077,9.8299,9.868,9.9227,10.0099,10.0474,10.0454,10.0767,10.0879,10.0753,10.0321,10.0428,10.0878,10.1016,10.0691,9.9904,9.9403,9.9082,9.8887,9.8052,9.7635,9.7909,9.8711,9.9172,9.9262,9.9362,9.9186,9.8926,9.9491,9.9552,9.9165,9.9781,10.0168,10.0168,10.0168,10.0168,10.0168,10.0168,10.0168,10.0168,10.0168,10.0168,10.0132,9.9201,9.8694,9.8694,9.8694,9.8694,9.8694,9.873,9.8694,9.8694,9.8694,9.873,9.8694,9.8803,9.8694,9.8803,9.9165,9.9237,9.8883,9.9237,9.8981,9.8587,9.772,9.7248,9.7296,9.6821,9.659,9.7027,9.7124,9.7263,9.7493,9.7593,9.7419,9.7346,9.7209,9.7016,9.6795,9.6355,9.6088,9.5575,9.5244,9.496,9.452,9.4777,9.5034,9.5391,9.5832,9.6245,9.6649,9.6722,9.6722,9.6722,9.6722,9.6722,9.6722,9.6722,9.6722,9.6722,9.6722,9.6722,9.6722,9.6722,9.6722,9.6722,9.6722,9.6722,9.6722,9.6722,9.6722,9.5872,9.5872,9.5819,9.5966,9.6015,9.6128,9.6484,9.6792,9.813,9.8782,9.8747,9.9446,9.9649,9.9514,9.9618,9.9837,10.0241,10.0905,10.0902,10.0452,10.0115,9.9885,9.9634,9.9318,9.9056,9.9225,10.0123,10.0805,10.0693,10.0998,10.1332,9.9856,10.0288,10.036,9.9093,9.9636,10.0034,9.9987,10.0132,10.0204,10.0313,10.0313,10.0385,10.0469,10.0505,10.0541,10.0541,10.0396,10.0252,10.0179,9.9987,9.9951,10.0107,10.0168,10.0034,9.9951,10.0132,10.0023,10.0096,10.0059,10.0059,9.9962,10.0107,10.0215,10.002,9.9607,9.9436,9.9239,9.8183,9.7454,9.7406,9.698,9.7037,9.7638,9.7926,9.8254,9.8915,9.8988,9.8511,9.797,9.7833,9.753,9.6685,9.5978,9.5575,9.5098,9.4593,9.4235,9.3978,9.4042,9.4556,9.4923,9.5171,9.5501,9.5804,9.6245,9.6245,9.6318,9.6465,9.6722,9.6722,9.6722,9.6722,9.6722,9.6759,9.6759,9.6722,9.6722,9.6722,9.6722,9.6722,9.6722,9.6722,9.6722,9.6722,9.6631,9.6563,9.6007,9.5804,9.5872,9.636,9.6779,9.7246,9.8322,9.8807,9.8851,9.8993,9.915,9.9095,9.9116,9.9303,9.964,10.0108,10.0102,9.9742,9.9424,9.8857,9.8402,9.8374,9.819,9.7897,9.8539,9.8634,9.9254,9.9957,9.9538,9.8502,9.9486,9.8976,9.7655,9.8784,9.9263,9.9419,9.994,10.0508,10.0979,10.1062,10.141,10.1929,10.1929,10.1929,10.1965,10.1965,10.1349,10.0288,10.0168,10.0168,10.0288,10.0288,10.036,10.0324,10.0288,10.0252,10.036,10.0747,10.0784,10.0349,10.0747,10.082,10.024,10.0042,9.9941,9.9807,9.9074,9.8517,9.8572,9.8048,9.8224,9.9088,9.9033,9.8941,9.9135,9.9061,9.8778,9.809,9.798,9.7383,9.6456,9.5785,9.5244,9.4327,9.3822,9.3428,9.3391,9.3464,9.4042,9.3932,9.4116,9.452,9.496,9.5465,9.5758,9.5868,9.6171,9.6722,9.6722,9.6722,9.6722,9.6722,9.6915,9.6952,9.6832,9.6759,9.6722,9.6979,9.6832,9.6906,9.6759,9.6722,9.6722,9.5973,9.5939,9.5499,9.5533,9.5872,9.6563,9.7178,9.7752,9.858,9.8807,9.8705,9.8909,9.8841,9.8603,9.8535,9.8625,9.8821,9.9001,9.8971,9.8821,9.8622,9.835,9.8171,9.8326,9.8311,9.815,9.8469,9.9169,9.9848,10.0181,9.9909,9.9532,9.9909,9.9441,9.8305,9.9081,9.9765,9.9921,10.0409,10.1017,10.148,10.1678,10.202,10.2511,10.2581,10.2581,10.2581,10.2581,10.211,10.141,10.1229,10.1193,10.1193,10.1193,10.1193,10.1204,10.1204,10.1229,10.1277,10.1664,10.1664,10.1302,10.1436,10.1146,10.0747,10.0422,10.0168,10.007,9.9444,9.9147,9.9074,9.8818,9.9093,9.9732,9.9962,9.9999,10.0079,10.0172,9.9732,9.9191,9.8861,9.8447,9.7116,9.6712,9.5868,9.5034,9.462,9.3932,9.3345,9.3455,9.3675,9.3896,9.4079,9.4639,9.4887,9.529,9.5465,9.5538,9.5841,9.6392,9.6612,9.6649,9.6952,9.7025,9.7135,9.7246,9.7346,9.7456,9.7603,9.764,9.7346,9.7016,9.6878,9.6722,9.6722,9.4909,9.4943,9.4943,9.5296,9.6056,9.68,9.7594,9.8172,9.8929,9.8877,9.8471,9.8846,9.8671,9.7987,9.8126,9.8034,9.8049,9.8187,9.8111,9.8111,9.8111,9.8216,9.8567,9.8753,9.8965,9.9207,10.0196,10.0551,10.0801,10.1589,10.1467,10.0584,10.1042,10.0709,9.9189,9.9818,10.0436,10.0129,10.0539,10.1067,10.1497,10.19,10.248,10.3065,10.3124,10.3088,10.3052,10.2979,10.2871,10.2871,10.2701,10.2447,10.2472,10.2545,10.2508,10.24,10.2363,10.24,10.2556,10.2508,10.2617,10.24,10.1918,10.158,10.1447,10.0903,10.0458,10.0458,9.96,9.9321,9.9292,9.9309,9.9613,10.0084,10.061,10.102,10.1356,10.1484,10.121,10.0429,10.0293,9.9879,9.9108,9.8337,9.7466,9.5547,9.5134,9.4556,9.4006,9.3905,9.4263,9.4666,9.485,9.5043,9.5153,9.519,9.5217,9.5244,9.5547,9.5951,9.6309,9.6575,9.7126,9.7392,9.7466,9.7933,9.8548,9.8621,9.8557,9.808,9.7613,9.7246,9.6952,9.6759,9.6722,9.6428,9.6428,9.6428,9.6496,9.6868,9.8052,9.8713,9.895,9.9678,9.9627,9.9051,9.9085,9.8713,9.8021,9.8055,9.7987,9.8021,9.8021,9.7987,9.7987,9.7987,9.8034,9.8233,9.8371,9.8386,9.858,9.8821,9.9406,10.009,10.0523,10.0317,9.9758,9.9837,9.9014,9.7976,9.853,9.8239,9.8092,9.924,10.0445,10.123,10.1999,10.3005,10.4013,10.4237,10.4333,10.4417,10.4417,10.4417,10.4127,10.3341,10.2798,10.2762,10.2726,10.2762,10.2762,10.2726,10.2653,10.2726,10.3124,10.3197,10.2798,10.2943,10.2979,10.2327,10.1555,10.1182,10.1012,10.0433,9.9889,9.9875,10.0097,10.0197,10.0321,10.0167,10.0245,10.0814,10.1265,10.1023,10.0566,10.0309,9.9805,9.8494,9.8457,9.7539,9.6208,9.5648,9.5208,9.496,9.4777,9.5107,9.5731,9.5547,9.5594,9.497,9.4997,9.5144,9.5281,9.5547,9.5804,9.6162,9.6382,9.6906,9.7383,9.7833,9.8484,9.9355,9.9318,9.9181,9.8557,9.8016,9.776,9.7493,9.7126,9.7052,9.68,9.7409,9.7394,9.78,9.8578,9.966,10.0387,10.0709,10.1099,10.0878,10.0319,10.0184,9.9575,9.8544,9.851,9.8375,9.8172,9.8409,9.8747,9.8867,9.8731,9.851,9.8375,9.8172,9.7987,9.8049,9.8371,9.8832,9.9284,9.9629,9.9793,9.95,9.9451,9.9298,9.8234,9.8227,9.8219,9.8189,9.8959,10.0,10.0769,10.19,10.2985,10.412,10.4466,10.4573,10.469,10.483,10.4876,10.4706,10.4127,10.3656,10.3656,10.3667,10.3667,10.3667,10.3692,10.3692,10.3837,10.3982,10.4091,10.3692,10.3765,10.3439,10.2895,10.2087,10.1472,10.1229,10.0722,10.0179,10.0215,10.0256,10.0387,10.0347,9.9908,9.9734,10.0172,10.0572,10.0886,10.0676,10.0846,10.053,9.9889,9.9338,9.9008,9.8337,9.8227,9.7777,9.7336,9.7126,9.6695,9.6805,9.6438,9.5961,9.4997,9.485,9.5134,9.5428,9.5804,9.6098,9.6392,9.6539,9.6639,9.7383,9.8227,9.9292,10.0026,9.9916,9.9842,9.9512,9.9071,9.8557,9.8227,9.8117,9.808,9.6853,9.7987,9.8138,9.8901,10.0051,10.0811,10.1386,10.1945,10.2148,10.1352,10.1165,10.1131,10.0066,9.9153,9.9018,9.8713,9.851,9.8747,9.9288,9.9814,9.9254,9.9018,9.8815,9.8375,9.7987,9.8034,9.8249,9.8565,9.8757,9.9011,9.9146,9.946,9.9523,9.9062,9.9125,9.8816,9.8025,9.7703,9.8524,9.9278,9.999,10.1192,10.2388,10.3238,10.3793,10.4084,10.4431,10.4666,10.4887,10.4924,10.5021,10.4985,10.4912,10.4887,10.4887,10.4851,10.4706,10.4634,10.4598,10.4779,10.4779,10.4876,10.4344,10.3946,10.3572,10.2812,10.216,10.17,10.1302,10.0795,10.0577,10.0792,10.0833,10.07,10.0075,9.9626,9.9807,9.9964,10.0187,10.0753,10.0992,10.0916,10.107,10.0843,10.0733,10.054,10.0393,10.0099,9.9502,9.8951,9.8227,9.7613,9.7172,9.6318,9.5354,9.4703,9.5034,9.5391,9.5878,9.6098,9.6282,9.5878,9.6061,9.7814,9.8851,9.9622,10.0356,10.0723,10.0613,10.0503,10.0026,9.9365,9.9145,9.9098,9.9025,9.78,9.8055,9.8645,9.9101,9.939,10.0084,10.0524,10.0558,10.0693,10.0186,9.9728,10.0134,9.9678,9.8713,9.8882,9.8984,9.8984,9.9187,9.9627,10.0152,9.966,9.9304,9.9221,9.8645,9.819,9.8003,9.8197,9.8341,9.8203,9.8218,9.8462,9.8352,9.8466,9.8292,9.7896,9.725,9.6974,9.6669,9.7418,9.8124,9.8657,9.9904,10.1355,10.2373,10.3105,10.3678,10.4107,10.455,10.4887,10.496,10.5528,10.5419,10.5069,10.4887,10.4887,10.4887,10.4887,10.4887,10.4887,10.4887,10.4887,10.484,10.4695,10.467,10.4417,10.3801,10.3077,10.2859,10.2461,10.211,10.223,10.1965,10.2121,10.1876,10.0956,10.0242,10.0547,10.015,9.9635,10.0057,10.0666,10.1301,10.1383,10.1437,10.1137,10.0806,10.065,10.0356,9.9832,9.9402,9.8888,9.83,9.7796,9.6795,9.5721,9.5107,9.4923,9.529,9.5658,9.5804,9.5694,9.496,9.5474,9.7273,9.8264,9.8668,9.9622,10.077,10.1027,10.0623,10.0319,10.0062,9.9879,9.9659,9.9428,9.7867,9.8578,9.895,9.9322,9.9678,10.0051,10.0186,10.0186,10.0186,10.0017,9.9999,10.0371,9.9999,9.9085,9.9356,9.966,9.966,9.9678,10.0321,10.0964,10.0675,10.0285,10.015,9.9457,9.9205,9.9137,9.9137,9.8664,9.807,9.8018,9.8055,9.812,9.8341,9.8375,9.8018,9.7726,9.7089,9.6643,9.705,9.7484,9.7739,9.9239,10.0612,10.1816,10.2916,10.3781,10.4669,10.5152,10.5504,10.5491,10.5491,10.5238,10.5021,10.4924,10.4887,10.4887,10.4887,10.4887,10.4887,10.4887,10.4887,10.4887,10.4851,10.4887,10.4706,10.4152,10.3584,10.3149,10.2979,10.2581,10.2545,10.2653,10.2581,10.2327,10.1241,10.0614,10.0455,9.9745,9.9459,9.9469,10.0386,10.1079,10.1338,10.1319,10.1254,10.11,10.088,10.0466,10.0026,9.9879,9.9548,9.9145,9.8631,9.7933,9.7043,9.6529,9.5951,9.6061,9.5914,9.6061,9.5841,9.5437,9.5731,9.6869,9.7493,9.7676,9.8851,9.9989,10.0319,10.077,10.054,10.0356,10.0319,10.0172,9.9989,9.7815,9.8882,9.8882,9.9205,9.9712,9.9746,9.9712,9.978,9.9712,9.9663,9.9881,10.0574,10.0235,9.9322,9.9408,9.9814,10.0118,10.0152,10.0998,10.1945,10.1605,10.1334,10.1165,10.0675,10.0051,9.9915,9.9983,9.9561,9.8833,9.863,9.8495,9.8731,9.9153,9.9187,9.8916,9.8442,9.8206,9.7741,9.7691,9.7654,9.8071,9.8945,10.0155,10.1534,10.277,10.399,10.5092,10.5728,10.5964,10.5854,10.5564,10.5093,10.4948,10.5057,10.5057,10.4912,10.4767,10.467,10.4598,10.4344,10.4199,10.4163,10.438,10.4417,10.4344,10.3837,10.3475,10.2979,10.3088,10.3197,10.3305,10.3124,10.3015,10.2617,10.17,10.0614,10.0433,9.997,9.9444,9.9684,10.0417,10.0552,10.0556,10.0448,10.0199,10.0319,10.0099,10.0172,9.9869,10.0466,10.0319,9.9952,9.9548,9.9061,9.8584,9.8437,9.7997,9.785,9.7419,9.7163,9.6795,9.6355,9.6722,9.6795,9.6199,9.6566,9.7924,9.9475,10.0429,10.0953,10.076,10.0696,10.0806,10.0806,10.0733,9.7969,9.8123,9.8156,9.8206,9.8326,9.8326,9.8292,9.8326,9.8393,9.8258,9.8544,9.9678,9.9611,9.8747,9.8427,9.9137,9.9915,10.0389,10.1133,10.2231,10.1825,10.1537,10.1334,10.0558,10.0524,10.0524,10.0423,10.0152,9.9881,9.9881,9.9814,9.9848,9.9848,9.9814,9.9439,9.927,9.8289,9.7477,9.7744,9.8027,9.8138,9.8412,9.9265,10.0594,10.2084,10.3713,10.5114,10.589,10.6255,10.6229,10.6059,10.56,10.5166,10.56,10.5455,10.496,10.4344,10.3837,10.3837,10.3475,10.316,10.3197,10.3088,10.2907,10.316,10.3584,10.3656,10.3656,10.4091,10.438,10.4344,10.4489,10.4199,10.3486,10.2545,10.1736,10.1229,10.0215,9.9691,9.9491,10.0048,9.9641,9.9399,9.9255,9.911,9.9266,9.9428,9.9612,9.9906,10.0613,10.0953,10.0586,10.0319,9.9916,9.9805,9.9685,9.9612,9.9465,9.8851,9.8273,9.7933,9.7493,9.6722,9.6602,9.6125,9.6602,9.8484,9.9989,10.0953,10.1174,10.0953,10.11,10.1394,10.1357,10.1137,9.7987,9.7987,9.7987,9.7987,9.7987,9.7987,9.7987,9.7987,9.7987,9.7987,9.8258,9.9543,10.0017,9.966,9.9491,9.9848,10.0709,10.0811,10.1419,10.2299,10.2164,10.1995,10.1995,10.1674,10.1505,10.1403,10.1521,10.1606,10.1302,10.0626,10.022,10.0321,10.0641,10.0811,10.0353,10.0387,10.0082,9.9642,9.939,9.9273,9.9239,9.9319,9.9905,10.1329,10.2711,10.4156,10.5547,10.6591,10.7052,10.7028,10.6653,10.5962,10.5564,10.5491,10.5202,10.496,10.4163,10.3765,10.3656,10.2979,10.2689,10.2581,10.2581,10.2653,10.2726,10.3185,10.3656,10.3692,10.4453,10.4851,10.4887,10.4887,10.4417,10.3801,10.3124,10.2363,10.1555,10.0722,10.002,9.9825,9.9662,9.9481,9.9474,9.9942,9.9966,9.9816,10.0119,10.0373,10.064,10.1063,10.121,10.11,10.0917,10.0686,10.0723,10.0723,10.0686,10.0503,9.9952,9.9448,9.9191,9.8668,9.786,9.7897,9.8327,9.8961,9.9769,9.9989,10.0503,10.0843,10.11,10.1247,10.1357,10.0953,10.0843,9.7987,9.7987,9.7987,9.7987,9.7987,9.7987,9.7987,9.7987,9.7987,9.7987,9.8258,9.9137,10.0032,10.0472,9.9915,9.9881,10.1014,10.1097,10.1724,10.2231,10.252,10.2452,10.2384,10.2384,10.2384,10.252,10.2299,10.2317,10.2062,10.1505,10.093,10.0795,10.1419,10.1589,10.1672,10.1571,10.1368,10.0996,10.0337,10.0084,10.0084,10.0084,10.092,10.2093,10.3387,10.4672,10.6156,10.7019,10.7459,10.7493,10.6678,10.6059,10.5962,10.5383,10.5021,10.4743,10.4163,10.3728,10.3475,10.3088,10.2689,10.2581,10.2545,10.2508,10.2316,10.2968,10.3414,10.3341,10.4054,10.4525,10.4851,10.4887,10.4453,10.3873,10.3269,10.2497,10.1845,10.1302,10.1012,10.1071,10.0778,10.0158,10.0368,10.1047,10.1064,10.0609,10.0752,10.1066,10.1154,10.1284,10.1063,10.088,10.054,10.0503,10.0843,10.1027,10.1247,10.1247,10.0696,10.0256,9.9805,9.9475,9.8888,9.9318,9.9879,10.0283,10.0476,10.0172,9.9989,10.0733,10.1284,10.121,10.1137,10.0733,10.0696,9.7987,9.7987,9.7987,9.7987,9.7987,9.7987,9.7987,9.7987,9.7987,9.8037,9.8123,9.8273,9.8882,9.9153,9.9137,9.934,10.0355,10.0321,10.1302,10.2148,10.252,10.252,10.252,10.252,10.252,10.252,10.252,10.252,10.2486,10.2265,10.2148,10.2367,10.213,10.2299,10.2299,10.2096,10.169,10.1216,10.0524,10.022,10.022,10.0353,10.0847,10.1808,10.2826,10.3922,10.532,10.6186,10.6941,10.7234,10.6559,10.6276,10.6143,10.5383,10.4948,10.4924,10.4514,10.4199,10.4091,10.3269,10.2689,10.2581,10.2545,10.2291,10.1798,10.2291,10.2628,10.2762,10.3378,10.4018,10.4489,10.4779,10.4127,10.3547,10.2932,10.2678,10.2291,10.2291,10.211,10.2291,10.1915,10.1176,10.0992,10.1604,10.1454,10.0939,10.0868,10.1156,10.0887,10.0917,10.0576,10.0283,9.9842,9.9916,10.0393,10.0696,10.1063,10.1027,10.0623,10.0319,10.0026,9.9732,9.9245,9.9548,9.9879,10.055,10.0953,10.0319,10.0209,10.1027,10.1477,10.1357,10.1357,10.1174,10.1174,9.7987,9.7987,9.7987,9.7987,9.7987,9.7987,9.7987,9.7987,9.7987,9.8307,9.8645,9.8713,9.9085,9.9491,9.9611,9.9897,10.0844,10.0946,10.1622,10.2148,10.252,10.252,10.252,10.252,10.252,10.252,10.252,10.252,10.252,10.252,10.2164,10.2062,10.2299,10.2452,10.2418,10.1961,10.1386,10.0828,10.0423,10.022,10.0287,10.0725,10.1003,10.1157,10.2171,10.2872,10.3733,10.4884,10.5921,10.6589,10.6378,10.6448,10.6433,10.5564,10.5238,10.5467,10.5129,10.5238,10.5177,10.3993,10.2653,10.2581,10.2545,10.2327,10.1725,10.2182,10.2219,10.2327,10.2689,10.345,10.3414,10.345,10.3124,10.2678,10.2606,10.2678,10.2762,10.2834,10.2907,10.2943,10.2581,10.1976,10.1962,10.208,10.1695,10.1288,10.1267,10.1199,10.1077,10.076,10.0503,10.0283,9.9952,10.0062,10.0586,10.0806,10.0917,10.0723,10.0503,10.0136,9.9842,9.9502,9.9208,9.9539,9.9659,9.9879,10.0026,9.9989,10.0283,10.0843,10.1247,10.1467,10.1477,10.1431,10.1431,9.7664,9.7664,9.7664,9.78,9.7987,9.7987,9.7987,9.7987,9.7987,9.824,9.8747,9.8781,9.9051,9.9442,9.9509,10.0051,10.0641,10.098,10.1656,10.2164,10.252,10.252,10.252,10.252,10.252,10.252,10.252,10.252,10.252,10.252,10.2299,10.2062,10.1961,10.1995,10.1606,10.1318,10.0743,10.0321,10.0186,10.0186,10.0287,10.0641,10.0874,10.0651,10.1306,10.1816,10.2574,10.3771,10.5212,10.6018,10.6373,10.658,10.6433,10.6107,10.5528,10.5745,10.5998,10.6252,10.6288,10.5358,10.3559,10.3559,10.345,10.2968,10.2497,10.2617,10.2762,10.2461,10.2751,10.2979,10.3088,10.3631,10.3667,10.3547,10.3584,10.3656,10.3511,10.3547,10.3547,10.3559,10.3269,10.316,10.2891,10.2911,10.2669,10.2262,10.2014,10.1943,10.1867,10.142,10.0733,10.054,10.0356,10.0613,10.099,10.0613,10.0246,10.0393,10.0136,9.9732,9.9392,9.9172,9.9098,9.9282,9.9282,9.9135,9.9355,9.9805,10.0136,10.0466,10.0686,10.077,10.099,10.0917,10.121,9.6935,9.6902,9.6969,9.736,9.7953,9.7987,9.7987,9.7987,9.7987,9.8021,9.8138,9.8123,9.819,9.8326,9.8596,9.9374,10.0389,10.0558,10.1167,10.2249,10.252,10.252,10.252,10.252,10.252,10.252,10.252,10.252,10.252,10.252,10.2401,10.1995,10.1521,10.098,10.0321,10.0253,10.0186,10.0152,10.0051,9.9949,9.9949,10.0084,10.0165,10.001,10.0242,10.0675,10.128,10.2557,10.4092,10.5447,10.5815,10.6282,10.6955,10.5797,10.5471,10.6205,10.5589,10.5962,10.7001,10.6361,10.56,10.467,10.4308,10.4043,10.3692,10.3584,10.3402,10.2895,10.3269,10.3765,10.4308,10.4561,10.4236,10.4091,10.4018,10.4127,10.3934,10.4152,10.4127,10.3946,10.4308,10.4537,10.4062,10.374,10.3601,10.3299,10.2914,10.276,10.2774,10.2155,10.1384,10.11,10.0943,10.0806,10.088,9.9989,9.9649,9.9832,9.9916,9.9622,9.9318,9.9135,9.9098,9.9098,9.8951,9.8805,9.9282,9.9795,10.0283,10.065,9.9842,9.9805,10.0099,10.0513,10.088,9.6462,9.6902,9.6902,9.7341,9.7953,9.7987,9.7987,9.7987,9.7987,9.7987,9.7987,9.7987,9.8341,9.8578,9.8781,9.9424,10.0709,10.1014,10.169,10.2384,10.252,10.252,10.252,10.252,10.252,10.252,10.252,10.252,10.252,10.252,10.2164,10.1672,10.086,9.9811,9.9525,9.9424,9.9288,9.8833,9.8698,9.8731,9.8799,9.9171,9.9273,9.8867,9.9254,9.9599,9.9917,10.1295,10.277,10.4372,10.4757,10.5599,10.6552,10.5715,10.5861,10.6823,10.6798,10.6988,10.7785,10.7616,10.6771,10.5684,10.4996,10.4695,10.3873,10.3728,10.3475,10.3258,10.3414,10.3584,10.3269,10.3305,10.316,10.3269,10.333,10.3765,10.391,10.4405,10.4634,10.4236,10.4308,10.4706,10.4535,10.4264,10.4115,10.4279,10.3997,10.4012,10.4043,10.3042,10.2191,10.1934,10.1714,10.1284,10.0806,10.0246,9.9869,10.0026,10.0062,9.9842,9.9539,9.9172,9.9098,9.9098,9.8805,9.8594,9.9585,10.0429,10.076,10.076,10.0429,10.0246,10.0686,10.0806,10.0696,9.5853,9.6496,9.6529,9.7105,9.7886,9.7987,9.7987,9.7987,9.7987,9.7987,9.7987,9.8021,9.8206,9.8578,9.8815,9.9525,10.0878,10.098,10.169,10.2351,10.252,10.252,10.252,10.252,10.252,10.252,10.252,10.252,10.252,10.252,10.213,10.1368,10.0387,9.9845,9.939,9.8882,9.8578,9.8224,9.819,9.8156,9.8273,9.8409,9.851,9.8341,9.8471,9.8807,9.9097,9.9949,10.1177,10.2643,10.3591,10.4403,10.5331,10.5574,10.5756,10.694,10.8196,10.8003,10.8038,10.8376,10.7242,10.5636,10.5564,10.531,10.484,10.5032,10.467,10.4308,10.3776,10.3559,10.3486,10.3378,10.3341,10.3486,10.362,10.4091,10.4236,10.4767,10.4803,10.4405,10.4308,10.467,10.4851,10.4737,10.4548,10.4812,10.5049,10.5016,10.4876,10.3823,10.2905,10.2669,10.2228,10.1651,10.1247,10.0806,10.0503,10.0319,10.0136,9.9989,9.9502,9.9098,9.9098,9.9135,9.9061,9.9365,10.0429,10.12,10.1871,10.2008,10.1714,10.1604,10.1541,10.121,10.088,9.5093,9.5736,9.5804,9.6683,9.7852,9.7987,9.7987,9.7987,9.7987,9.7987,9.7987,9.7987,9.8172,9.8138,9.8138,9.9085,10.0287,10.0456,10.1336,10.2148,10.2502,10.252,10.252,10.252,10.252,10.252,10.252,10.252,10.2486,10.252,10.2096,10.1638,10.1232,10.0488,9.9627,9.8848,9.8375,9.8089,9.7987,9.7987,9.8055,9.8055,9.8123,9.8055,9.8135,9.8354,9.8716,9.9401,10.035,10.1195,10.1673,10.2827,10.3473,10.3586,10.5009,10.6698,10.8494,10.8401,10.8064,10.8413,10.793,10.6711,10.7012,10.6795,10.6361,10.618,10.5998,10.5673,10.531,10.5069,10.4887,10.4706,10.4561,10.4598,10.4634,10.4743,10.4743,10.484,10.4803,10.4659,10.4561,10.4706,10.4815,10.4775,10.4529,10.4498,10.4568,10.4393,10.4248,10.407,10.3336,10.3246,10.2705,10.1981,10.1614,10.1567,10.131,10.12,10.0319,9.9989,9.9502,9.9539,9.9942,10.0089,9.9722,10.0209,10.1604,10.2595,10.3293,10.3293,10.3256,10.2669,10.2532,10.1567,10.1164,9.462,9.577,9.5804,9.665,9.7886,9.7987,9.7987,9.7987,9.7987,9.7987,9.7987,9.7987,9.824,9.8747,9.8815,9.9694,10.0472,10.1183,10.169,10.2114,10.2249,10.2418,10.2502,10.2418,10.2486,10.2486,10.2486,10.2401,10.2468,10.2468,10.2434,10.2198,10.1706,10.1063,10.0387,9.9424,9.8713,9.8156,9.8055,9.7987,9.7987,9.7987,9.7987,9.7987,9.7987,9.8172,9.8535,9.8862,9.9715,10.054,10.0952,10.2051,10.3917,10.3504,10.4004,10.593,10.7618,10.8662,10.8538,10.8808,10.8594,10.7991,10.8437,10.764,10.7049,10.6723,10.6976,10.6614,10.6143,10.5673,10.5177,10.496,10.4887,10.4887,10.4887,10.4887,10.4887,10.4887,10.4803,10.4561,10.4489,10.4634,10.4743,10.4537,10.4279,10.413,10.3978,10.383,10.3671,10.3545,10.3646,10.3567,10.3246,10.2522,10.2669,10.2705,10.2375,10.1961,10.1274,10.0796,10.087,10.1017,10.1164,10.142,10.1631,10.2228,10.3119,10.3964,10.4687,10.5018,10.4944,10.4173,10.3366,10.2522,10.2008,9.4466,9.5702,9.5804,9.665,9.7852,9.7987,9.7987,9.7987,9.7987,9.7987,9.7987,9.7987,9.8273,9.8544,9.8645,9.9221,10.0235,10.0285,10.0709,10.1234,10.1674,10.1792,10.1893,10.2096,10.2265,10.2299,10.2198,10.1961,10.2062,10.2062,10.2028,10.1961,10.1724,10.1656,10.1097,10.0134,9.9221,9.8612,9.824,9.8055,9.7987,9.7987,9.7987,9.7987,9.7987,9.8141,9.8295,9.8519,9.8974,9.9515,9.974,10.0744,10.2633,10.2873,10.3068,10.4849,10.6138,10.7309,10.7731,10.8528,10.8614,10.8811,10.9209,10.8437,10.7749,10.735,10.7194,10.6868,10.6361,10.5817,10.531,10.4887,10.4887,10.4887,10.4887,10.4887,10.4887,10.4887,10.467,10.4344,10.438,10.4561,10.4489,10.4236,10.403,10.3894,10.3709,10.3506,10.3311,10.3136,10.3447,10.3672,10.3467,10.3109,10.3403,10.366,10.3293,10.3036,10.2815,10.2448,10.2458,10.2458,10.2558,10.3219,10.398,10.4284,10.432,10.5285,10.6019,10.6119,10.6046,10.5422,10.4588,10.377,10.3476,9.4309,9.5612,9.5792,9.669,9.7855,9.7972,9.7987,9.7987,9.7987,9.7987,9.7987,9.7987,9.8037,9.8156,9.819,9.8578,9.9288,9.9507,9.9897,10.022,10.0524,10.0828,10.1183,10.1334,10.1521,10.1792,10.1758,10.1284,10.1284,10.1318,10.1352,10.1402,10.1927,10.1961,10.1571,10.0524,9.9712,9.9221,9.8461,9.7987,9.7987,9.7987,9.7987,9.7987,9.7987,9.8018,9.8018,9.8018,9.7987,9.8052,9.8332,9.914,10.0589,10.2513,10.3,10.3337,10.4495,10.5815,10.6851,10.7721,10.8426,10.8774,10.9209,10.8727,10.8183,10.793,10.7712,10.6868,10.6252,10.5709,10.5202,10.496,10.4887,10.4887,10.4887,10.4887,10.4887,10.4887,10.4815,10.4561,10.4598,10.4743,10.467,10.4417,10.3982,10.3765,10.3183,10.2922,10.2749,10.2552,10.3142,10.3656,10.3866,10.3834,10.4284,10.443,10.4137,10.3953,10.377,10.3623,10.3219,10.3476,10.3964,10.443,10.4861,10.5117,10.5374,10.6046,10.635,10.635,10.6276,10.635,10.5762,10.4881,10.4734,9.336,9.4315,9.5669,9.6806,9.7594,9.7895,9.7987,9.7987,9.7987,9.7987,9.7987,9.7987,9.7987,9.7987,9.7987,9.8375,9.8882,9.8984,9.9509,9.9881,10.0001,10.0051,10.0423,10.0506,10.0693,10.0626,10.0558,10.0675,10.0626,10.0675,10.0878,10.1368,10.1792,10.1859,10.2028,10.0964,10.0017,9.9712,9.863,9.8055,9.7987,9.7987,9.7987,9.7987,9.7987,9.7987,9.7987,9.7987,9.7987,9.8003,9.7987,9.8529,9.9329,10.1671,10.2238,10.1957,10.278,10.4239,10.5646,10.676,10.7669,10.8821,10.9318,10.8944,10.8666,10.8557,10.7978,10.6904,10.6071,10.5528,10.5166,10.5032,10.4887,10.4887,10.4887,10.4887,10.4887,10.4887,10.4887,10.4887,10.4887,10.4851,10.4779,10.4489,10.4018,10.3258,10.2305,10.1817,10.1739,10.1702,10.2719,10.3365,10.4278,10.4551,10.4887,10.4834,10.4394,10.4247,10.4063,10.3953,10.388,10.4063,10.4284,10.4944,10.5411,10.5338,10.5458,10.6082,10.6302,10.6192,10.6229,10.6156,10.635,10.5726,10.5799,9.3031,9.3884,9.5495,9.6506,9.7016,9.7573,9.7864,9.7972,9.7987,9.7987,9.7987,9.7987,9.7987,9.7987,9.7987,9.8123,9.8612,9.8578,9.8747,9.907,9.9374,9.9408,9.9543,9.9746,10.0438,10.0472,10.0641,10.0709,10.0321,10.0709,10.1115,10.1435,10.1622,10.1995,10.2249,10.1099,10.0186,10.0118,9.8731,9.8123,9.7987,9.7987,9.7987,9.7987,9.7987,9.7987,9.7987,9.7987,9.7987,9.8156,9.8307,9.8298,9.8908,10.0071,10.044,10.0329,10.0993,10.2546,10.4178,10.5619,10.6841,10.8133,10.869,10.8038,10.735,10.7169,10.7133,10.618,10.5636,10.5093,10.5021,10.4924,10.4887,10.4887,10.4887,10.4887,10.4887,10.4887,10.4887,10.4887,10.4887,10.4887,10.4851,10.4803,10.4296,10.3728,10.2594,10.1834,10.1575,10.1148,10.2121,10.2807,10.3527,10.4147,10.4284,10.4337,10.432,10.4247,10.421,10.4063,10.3917,10.4247,10.4614,10.4798,10.4908,10.4871,10.5128,10.5532,10.5715,10.5568,10.5715,10.5862,10.6046,10.6203,10.6129,9.2878,9.373,9.5081,9.5922,9.6405,9.7153,9.7677,9.791,9.7972,9.7987,9.7987,9.7987,9.7987,9.7987,9.7987,9.7987,9.8055,9.819,9.8156,9.8123,9.819,9.8562,9.8848,9.9018,9.9694,10.0405,10.0793,10.0574,10.022,10.0626,10.1014,10.1419,10.1927,10.2384,10.2028,10.1133,10.0186,9.9848,9.8968,9.8156,9.7987,9.7987,9.7987,9.7987,9.7987,9.7987,9.7987,9.8089,9.8123,9.8273,9.8544,9.8489,9.8548,9.9143,9.8989,9.9109,9.987,10.1385,10.2857,10.438,10.5776,10.6895,10.7123,10.6976,10.6397,10.618,10.6155,10.5757,10.5202,10.4985,10.4924,10.4887,10.4887,10.4887,10.4887,10.4887,10.4887,10.4887,10.4887,10.4887,10.4887,10.4887,10.4887,10.4876,10.4561,10.4018,10.3439,10.2751,10.2099,10.1589,10.1719,10.1939,10.2196,10.279,10.3561,10.3782,10.3907,10.41,10.4027,10.3953,10.3917,10.4137,10.4173,10.4063,10.4137,10.4247,10.421,10.443,10.4567,10.4861,10.4944,10.5091,10.5275,10.5469,10.5836,9.223,9.2976,9.4141,9.4981,9.5724,9.6934,9.7519,9.7612,9.7879,9.7987,9.7987,9.7987,9.7987,9.7987,9.7987,9.7987,9.7987,9.7987,9.7987,9.8021,9.7987,9.8138,9.8375,9.8747,9.8882,9.9627,10.0438,10.0389,10.0626,10.0659,10.0844,10.1503,10.1503,10.1893,10.2231,10.1234,10.0287,9.9915,9.907,9.8138,9.8055,9.8021,9.7987,9.7987,9.7987,9.7987,9.8123,9.8612,9.8442,9.8442,9.8578,9.851,9.8554,9.876,9.8846,9.8966,9.9676,10.1149,10.2687,10.3882,10.531,10.663,10.6868,10.6687,10.6252,10.5962,10.5781,10.5322,10.4924,10.4924,10.4887,10.4887,10.4887,10.4887,10.4887,10.4887,10.4887,10.4887,10.4887,10.4887,10.4887,10.4887,10.4887,10.4887,10.4887,10.438,10.4018,10.3366,10.2993,10.228,10.153,10.1454,10.1423,10.2172,10.3216,10.33,10.3426,10.364,10.3733,10.3439,10.3439,10.3843,10.3843,10.3403,10.3549,10.378,10.3733,10.3366,10.377,10.4027,10.41,10.421,10.4441,10.4734,10.5128]},{"header":{"parameterUnit":"m.s-1","parameterCategory":1,"la1":31.0,"la2":29.5877,"lo1":-88.7671,"lo2":-86.6584,"dy":0.0162,"dx":0.0185,"nx":115,"ny":88,"refTime":"2026-04-01T00:00:00:Z","depth":0,"parameterNumber":3,"parameterNumberName":"V-component_of_WINDS"},"data":[0.0,0.0,0.0,0.0,0.0,0.0,0.0,0.0,0.0,0.0,0.0,0.0,0.0,0.0,0.0,0.0,0.0,0.0,0.0,0.0,0.0,0.0,0.0,0.0,0.0,0.0,0.0,0.0,0.0,0.0,0.0,0.0,0.0,0.0,0.0,0.0,0.0,0.0,0.0,0.0,0.0,0.0,0.0,0.0,0.0,0.0,0.0,0.0,0.0,0.0,0.0,0.0,0.0,0.0,0.0,0.0,0.0,0.0,0.0,0.0,0.0,0.0,0.0,0.0,0.0,0.0,0.0,0.0,0.0,0.0,0.0,0.0,0.0,0.0,0.0,0.0,0.0,0.0,0.0,0.0,0.0,0.0,0.0,0.0,0.0,0.0,0.0,0.0,0.0,0.0,0.0,0.0,0.0,0.0,0.0,0.0,0.0,0.0,0.0,0.0,0.0,0.0,0.0,0.0,0.0,0.0,0.0,0.0,0.0,0.0,0.0,0.0,0.0,0.0,0.0,0.0,0.0,0.0,0.0,0.0,0.0,0.0,0.0,0.0,0.0,0.0,0.0,0.0,0.0,0.0,0.0,0.0,0.0,0.0,0.0,0.0,0.0,0.0,0.0,0.0,0.0,0.0,0.0,0.0,0.0,0.0,0.0,0.0,0.0,0.0,0.0,0.0,0.0,0.0,0.0,0.0,0.0,0.0,0.0,0.0,0.0,0.0,0.0,0.0,0.0,0.0,0.0,0.0,0.0,0.0,0.0,0.0,0.0,0.0,0.0,0.0,0.0,0.0,0.0,0.0,0.0,0.0,0.0,0.0,0.0,0.0,0.0,0.0,0.0,0.0,0.0,0.0,0.0,0.0,0.0,0.0,0.0,0.0,0.0,0.0,0.0,0.0,0.0,0.0,0.0,0.0,0.0,0.0,0.0,0.0,0.0,0.0,0.0,0.0,0.0,0.0,0.0,0.0,0.0,0.0,0.0,0.0,0.0,0.0,0.0,0.0,0.0,0.0,0.0,0.0,0.0,0.0,0.0,0.0,0.0,0.0,0.0,0.0,0.0,0.0,0.0,0.0,0.0,0.0,0.0,0.0,0.0,0.0,0.0,0.0,0.0,0.0,0.0,0.0,0.0,0.0,0.0,0.0,0.0,0.0,0.0,0.0,0.0,0.0,0.0,0.0,0.0,0.0,0.0,0.0,0.0,0.0,0.0,0.0,0.0,0.0,0.0,0.0,0.0,0.0,0.0,0.0,0.0,0.0,0.0,0.0,0.0,0.0,0.0,0.0,0.0,0.0,0.0,0.0,0.0,0.0,0.0,0.0,0.0,0.0,0.0,0.0,0.0,0.0,0.0,0.0,0.0,0.0,0.0,0.0,0.0,0.0,0.0,0.0,0.0,0.0,0.0,0.0,0.0,0.0,0.0,0.0,0.0,0.0,0.0,0.0,0.0,0.0,0.0,0.0,0.0,0.0,0.0,0.0,0.0,0.0,0.0,0.0,0.0,0.0,0.0,0.0,0.0,0.0,0.0,0.0,0.0,0.0,0.0,0.0,0.0,0.0,0.0,0.0,0.0,0.0,0.0,0.0,0.0,0.0,0.0,0.0,0.0,0.0,0.0,0.0,0.0,0.0,0.0,0.0,0.0,0.0,0.0,0.0,0.0,0.0,0.0,0.0,0.0,0.0,0.0,0.0,0.0,0.0,0.0,0.0,0.0,0.0,0.0,0.0,0.0,0.0,0.0,0.0,0.0,0.0,0.0,0.0,0.0,0.0,0.0,0.0,0.0,0.0,0.0,0.0,0.0,0.0,0.0,0.0,0.0,0.0,0.0,0.0,0.0,0.0,0.0,0.0,0.0,0.0,0.0,0.0,0.0,0.0,0.0,0.0,0.0,0.0,0.0,0.0,0.0,0.0,0.0,0.0,0.0,0.0,0.0,0.0,0.0,0.0,0.0,0.0,0.0,0.0,0.0,0.0,0.0,0.0,0.0,0.0,0.0,0.0,0.0,0.0,0.0,0.0,0.0,0.0,0.0,0.0,0.0,0.0,0.0,0.0,0.0,0.0,0.0,0.0,0.0,0.0,0.0,0.0,0.0,0.0,0.0,0.0,0.0,0.0,0.0,0.0,0.0,0.0,0.0,0.0,0.0,0.0,0.0,0.0,0.0,0.0,0.0,0.0,0.0,0.0,0.0,0.0,0.0,0.0,0.0,0.0,0.0,0.0,0.0,0.0,0.0,0.0,0.0,0.0,0.0,0.0,0.0,0.0,0.0,0.0,0.0,0.0,0.0,0.0,0.0,0.0,0.0,0.0,0.0,0.0,0.0,0.0,0.0,0.0,0.0,0.0,0.0,0.0,0.0,0.0,0.0,0.0,0.0,0.0,0.0,0.0,0.0,0.0,0.0,0.0,0.0,0.0,0.0,0.0,0.0,0.0,0.0,0.0,0.0,0.0,0.0,0.0,0.0,0.0,0.0,0.0,0.0,0.0,0.0,0.0,0.0,0.0,0.0,0.0,0.0,0.0,0.0,0.0,0.0,0.0,0.0,0.0,0.0,0.0,0.0,0.0,0.0,0.0,0.0,0.0,0.0,0.0,0.0,0.0,0.0,0.0,0.0,0.0,0.0,0.0,0.0,0.0,0.0,0.0,0.0,0.0,0.0,0.0,0.0,0.0,0.0,0.0,0.0,0.0,0.0,0.0,0.0,0.0,0.0,0.0,0.0,0.0,0.0,0.0,0.0,0.0,0.0,0.0,0.0,0.0,0.0,0.0,0.0,0.0,0.0,0.0,0.0,0.0,0.0,0.0,0.0,0.0,0.0,0.0,0.0,0.0,0.0,0.0,0.0,0.0,0.0,0.0,0.0,0.0,0.0,0.0,0.0,0.0,0.0,0.0,0.0,0.0,0.0,0.0,0.0,0.0,0.0,0.0,0.0,0.0,0.0,0.0,0.0,0.0,0.0,0.0,0.0,0.0,0.0,0.0,0.0,0.0,0.0,0.0,0.0,0.0,0.0,0.0,0.0,0.0,0.0,0.0,0.0,0.0,0.0,0.0,0.0,0.0,0.0,0.0,0.0,0.0,0.0,0.0,0.0,0.0,0.0,0.0,0.0,0.0,0.0,0.0,0.0,0.0,0.0,0.0,0.0,0.0,0.0,0.0,0.0,0.0,0.0,0.0,0.0,0.0,0.0,0.0,0.0,0.0,0.0,0.0,0.0,0.0,0.0,0.0,0.0,0.0,0.0,0.0,0.0,0.0,0.0,0.0,0.0,0.0,0.0,0.0,0.0,0.0,0.0,0.0,0.0,0.0,0.0,0.0,0.0,0.0,0.0,0.0,0.0,0.0,0.0,0.0,0.0,0.0,0.0,0.0,0.0,0.0,0.0,0.0,0.0,0.0,0.0,0.0,0.0,0.0,0.0,0.0,0.0,0.0,0.0,0.0,0.0,0.0,0.0,0.0,0.0,0.0,0.0,0.0,0.0,0.0,0.0,0.0,0.0,0.0,0.0,0.0,0.0,0.0,0.0,0.0,0.0,0.0,0.0,0.0,0.0,0.0,0.0,0.0,0.0,0.0,0.0,0.0,0.0,0.0,0.0,0.0,0.0,0.0,0.0,0.0,0.0,0.0,0.0,0.0,0.0,0.0,0.0,0.0,0.0,0.0,0.0,0.0,0.0,0.0,0.0,0.0,0.0,0.0,0.0,0.0,0.0,0.0,0.0,0.0,0.0,0.0,0.0,0.0,0.0,0.0,0.0,0.0,0.0,0.0,0.0,0.0,0.0,0.0,0.0,0.0,0.0,0.0,0.0,0.0,0.0,0.0,0.0,0.0,0.0,0.0,0.0,0.0,0.0,0.0,0.0,0.0,0.0,0.0,0.0,0.0,0.0,0.0,0.0,0.0,0.0,0.0,0.0,0.0,0.0,0.0,0.0,0.0,0.0,0.0,0.0,0.0,0.0,0.0,0.0,0.0,0.0,0.0,0.0,0.0,0.0,0.0,0.0,0.0,0.0,0.0,0.0,0.0,0.0,0.0,0.0,0.0,0.0,0.0,0.0,0.0,0.0,0.0,0.0,0.0,0.0,0.0,0.0,0.0,0.0,0.0,0.0,0.0,0.0,0.0,0.0,0.0,0.0,0.0,0.0,0.0,0.0,0.0,0.0,0.0,0.0,0.0,0.0,0.0,0.0,0.0,0.0,0.0,0.0,0.0,0.0,0.0,0.0,0.0,0.0,0.0,0.0,0.0,0.0,0.0,0.0,0.0,0.0,0.0,0.7809,0.0,0.0,0.0,0.0,0.0,0.0,0.0,0.0,0.0,0.0,0.0,0.0,0.0,0.0,0.0,0.0,0.0,0.0,0.0,0.0,0.0,0.0,0.0,0.0,0.0,0.0,0.0,0.0,0.0,0.0,0.0,0.0,0.0,0.0,0.0,0.0,0.0,0.0,0.0,0.0,0.0,0.0,0.0,0.0,0.0,0.0,0.0,0.0,0.0,0.0,0.0,0.0,0.0,0.0,0.0,0.0,0.0,0.0,0.0,0.0,0.0,0.0,0.0,0.0,0.0,0.0,0.0,0.0,0.0,0.0,0.0,0.0,0.0,0.0,0.0,0.0,0.0,0.0,0.0,0.0,0.0,0.0,0.0,0.0,0.0,0.0,0.0,0.0,0.0,0.0,0.0,0.0,0.0,0.0,0.0,0.0,0.0,0.0,0.0,0.0,0.0,0.0,0.0,0.0,0.0,0.0,0.0,0.0,0.0,0.0,0.8001,0.8001,0.8001,0.7967,0.7906,0.0,0.0,0.0,0.0,0.0,0.0,0.0,0.0,0.0,0.0,0.0,0.0,0.0,0.0,0.0,0.0,0.0,0.0,0.0,0.0,0.0,0.0,0.0,0.0,0.0,0.0,0.0,0.0,0.0,0.0,0.0,0.0,0.0,0.0,0.0,0.0,0.0,0.0,0.0,0.0,0.0,0.0,0.0,0.0,0.0,0.0,0.0,0.0,0.0,0.0,0.0,0.0,0.0,0.0,0.0,0.0,0.0,0.0,0.0,0.0,0.0,0.0,0.0,0.0,0.0,0.0,0.0,0.0,0.0,0.0,0.0,0.0,0.0,0.0,0.0,0.0,0.0,0.0,0.0,0.0,0.0,0.0,0.0,0.0,0.0,0.0,0.0,0.0,0.0,0.0,0.0,0.0,0.0,0.0,0.0,0.0,0.0,0.0,0.0,0.0,0.0,0.0,0.0,0.0,0.0,0.0,0.0,0.0,0.0,0.0,0.0,0.0,0.8081,0.8033,0.7953,0.0,0.0,0.0,0.0,0.0,0.0,0.0,0.0,0.0,0.0,0.0,0.0,0.0,0.0,0.0,0.0,0.0,0.0,0.0,0.0,0.0,0.0,0.0,0.0,0.0,0.0,0.0,0.0,0.0,0.0,0.0,0.0,0.0,0.0,0.0,0.0,0.0,0.0,0.0,0.0,0.0,0.0,0.0,0.0,0.0,0.0,0.0,0.0,0.0,0.0,0.0,0.0,0.0,0.0,0.0,0.0,0.0,0.0,0.0,0.0,0.0,0.0,0.0,0.0,0.0,0.0,0.0,0.0,0.0,0.0,0.0,0.0,0.0,0.0,0.0,0.0,0.0,0.0,0.0,0.0,0.0,0.0,0.0,0.0,0.0,0.0,0.0,0.0,0.0,0.0,0.0,0.0,0.0,0.0,0.0,0.0,0.0,0.0,0.0,0.0,0.0,0.0,0.0,0.0,0.0,0.0,0.0,0.0,0.0,0.0,0.8458,0.8451,0.8329,0.0,0.7836,0.0,0.0,0.0,0.0,0.0,0.0,0.0,0.0,0.0,0.0,0.0,0.0,0.0,0.0,0.0,0.0,0.0,0.0,0.0,0.0,0.0,0.0,0.0,0.0,0.0,0.0,0.0,0.0,0.0,0.0,0.0,0.0,0.0,0.0,0.0,0.0,0.0,0.0,0.0,0.0,0.0,0.0,0.0,0.0,0.0,0.0,0.0,0.0,0.0,0.0,0.0,0.0,0.0,0.0,0.0,0.0,0.0,0.0,0.0,0.0,0.0,0.0,0.0,0.0,0.0,0.0,0.0,0.0,0.0,0.0,0.0,0.0,0.0,0.0,0.0,0.0,0.0,0.0,0.0,0.0,0.0,0.0,0.0,0.0,0.0,0.0,0.0,0.0,0.0,0.0,0.0,0.0,0.0,0.0,0.0,0.0,0.0,0.0,0.0,0.0,0.0,0.0,0.0,0.0,0.0,0.0,0.0,0.0,0.0,0.0,0.0,0.89,0.8594,0.8344,0.0,0.0,0.0,0.0,0.0,0.0,0.0,0.0,0.0,0.0,0.0,0.0,0.0,0.0,0.0,0.0,0.0,0.0,0.0,0.0,0.0,0.0,0.0,0.0,0.0,0.0,0.0,0.0,0.0,0.0,0.0,0.0,0.0,0.0,0.0,0.0,0.0,0.0,0.0,0.0,0.0,0.0,0.0,0.0,0.0,0.0,0.0,0.0,0.0,0.0,0.0,0.0,0.0,0.0,0.0,0.0,0.0,0.0,0.0,0.0,0.0,0.0,0.0,0.0,0.0,0.0,0.0,0.0,0.0,0.0,0.0,0.0,0.0,0.0,0.0,0.0,0.0,0.0,0.0,0.0,0.0,0.0,0.0,0.0,0.0,0.0,0.0,0.0,0.0,0.0,0.0,0.0,0.0,0.0,0.0,0.0,0.0,0.0,0.0,0.0,0.0,0.0,0.0,0.0,0.0,0.0,0.0,0.0,0.0,0.0,0.8628,0.0,0.8968,0.8587,0.8336,0.8266,0.0,0.0,0.0,0.0,0.0,0.0,0.0,0.0,0.0,0.0,0.0,0.0,0.0,0.0,0.0,0.0,0.0,0.0,0.0,0.0,0.0,0.0,0.0,0.0,0.0,0.0,0.0,0.0,0.0,0.0,0.0,0.0,0.0,0.0,0.0,0.0,0.0,0.0,0.0,0.0,0.0,0.0,0.0,0.0,0.0,0.0,0.0,0.0,0.0,0.0,0.0,0.0,0.0,0.0,0.0,0.0,0.0,0.0,0.0,0.0,0.0,0.0,0.0,0.0,0.0,0.0,0.0,0.0,0.0,0.0,0.0,0.0,0.0,0.0,0.0,0.0,0.0,0.0,0.0,0.0,0.0,0.0,0.0,0.0,0.0,0.0,0.0,0.0,0.0,0.0,0.0,0.0,0.0,0.0,0.0,0.0,0.0,0.0,0.0,0.0,0.0,0.0,0.0,0.0,0.0,0.0,0.0,0.0,0.0,0.8635,0.8648,0.8533,0.8208,0.7996,0.0,0.0,0.0,0.0,0.0,0.0,0.0,0.0,0.0,0.0,0.0,0.0,0.0,0.0,0.0,0.0,0.0,0.0,0.0,0.0,0.0,0.0,0.0,0.0,0.0,0.0,0.0,0.0,0.0,0.0,0.0,0.0,0.0,0.0,0.0,0.0,0.0,0.0,0.0,0.0,0.0,0.0,0.0,0.0,0.0,0.0,0.0,0.0,0.0,0.0,0.0,0.0,0.0,0.0,0.0,0.0,0.0,0.0,0.0,0.0,0.0,0.0,0.0,0.0,0.0,0.0,0.0,0.0,0.0,0.0,0.0,0.0,0.0,0.0,0.0,0.0,0.0,0.0,0.0,0.0,0.0,0.0,0.0,0.0,0.0,0.0,0.0,0.0,0.0,0.0,0.0,0.0,0.0,0.0,0.0,0.0,0.0,0.0,0.0,0.0,0.0,0.0,0.0,0.0,0.0,0.0,0.0,0.0,0.0,0.8512,0.8832,0.8859,0.8506,0.8302,0.8183,0.0,0.0,0.0,0.0,0.0,0.0,0.0,0.0,0.0,0.0,0.0,0.0,0.0,0.0,0.0,0.0,0.0,0.0,0.0,0.0,0.0,0.0,0.0,0.0,0.0,0.0,0.0,0.0,0.0,0.0,0.0,0.0,0.0,0.0,0.0,0.0,0.0,0.0,0.0,0.0,0.0,0.0,0.0,0.0,0.0,0.0,0.0,0.0,0.0,0.0,0.0,0.0,0.0,0.0,0.0,0.0,0.0,0.0,0.0,0.0,0.0,0.0,0.0,0.0,0.0,0.0,0.0,0.0,0.0,0.0,0.0,0.0,0.0,0.0,0.0,0.0,0.0,0.0,0.0,0.0,0.0,0.0,0.0,0.0,0.0,0.0,0.0,0.0,0.0,0.0,0.0,0.0,0.0,0.0,0.0,0.0,0.0,0.0,0.0,0.0,0.0,0.0,0.0,0.0,0.0,0.0,0.0,0.0,0.0,0.8641,0.0,0.9175,0.0,0.8423,0.8328,0.0,0.0,0.0,0.0,0.0,0.0,0.0,0.0,0.0,0.0,0.0,0.0,0.0,0.0,0.0,0.0,0.0,0.0,0.0,0.0,0.0,0.0,0.0,0.0,0.0,0.0,0.0,0.0,0.0,0.0,0.0,0.0,0.0,0.0,0.0,0.0,0.0,0.0,0.0,0.0,0.0,0.0,0.0,0.0,0.0,0.0,0.0,0.0,0.0,0.0,0.0,0.0,0.0,0.0,0.0,0.0,0.0,0.0,0.0,0.0,0.0,0.0,0.0,0.0,0.0,0.0,0.0,0.0,0.0,0.0,0.0,0.0,0.0,0.0,0.0,0.0,0.0,0.0,0.0,0.0,0.0,0.0,0.0,0.0,0.0,0.0,0.0,0.0,0.0,0.0,0.0,0.0,0.0,0.0,0.0,0.0,0.0,0.0,0.0,0.0,0.0,0.0,0.0,0.0,0.0,0.0,0.0,0.0,0.0,0.8927,0.9574,0.9574,0.8926,0.8533,0.8391,0.0,0.0,0.0,0.0,0.0,0.0,0.0,0.0,0.0,0.0,0.0,0.0,0.0,0.0,0.0,0.0,0.0,0.0,0.0,0.0,0.0,0.0,0.0,0.0,0.0,0.0,0.0,0.0,0.0,0.0,0.0,0.0,0.0,0.0,0.0,0.0,0.0,0.0,0.0,0.0,0.0,0.0,0.0,0.0,0.0,0.0,0.0,0.0,0.0,0.0,0.0,0.0,0.0,0.0,0.0,0.0,0.0,0.0,0.0,0.0,0.0,0.0,0.0,0.0,0.0,0.0,0.0,0.0,0.0,0.0,0.0,0.0,0.0,0.0,0.0,0.0,0.0,0.0,0.0,0.0,0.0,0.0,0.0,0.0,0.0,0.0,0.0,0.0,0.0,0.0,0.0,0.0,0.0,0.0,0.0,0.0,0.0,0.0,0.0,0.0,0.0,0.0,0.0,0.0,0.0,0.0,0.0,0.0,0.0,0.9813,1.0076,0.9974,0.9469,0.8968,0.8703,0.0,0.0,0.0,0.0,0.0,0.0,0.0,0.0,0.0,0.0,0.0,0.0,0.0,0.0,0.0,0.0,0.0,0.0,0.0,0.0,0.0,0.0,0.0,0.0,0.0,0.0,0.0,0.0,0.0,0.0,0.0,0.0,0.0,0.0,0.0,0.0,0.0,0.0,0.0,0.0,0.0,0.0,0.0,0.0,0.0,0.0,0.0,0.0,0.0,0.0,0.0,0.0,0.0,0.0,0.0,0.0,0.0,0.0,0.0,0.0,0.0,0.0,0.0,0.0,0.0,0.0,0.0,0.0,0.0,0.0,0.0,0.0,0.0,0.0,0.0,0.0,0.0,0.0,0.0,0.0,0.0,0.0,0.0,0.0,0.0,0.0,0.0,0.0,0.0,0.0,0.0,0.0,0.0,0.0,0.0,0.0,0.0,0.0,0.0,0.0,0.0,0.0,0.0,0.0,0.0,0.0,0.0,0.0,0.0,1.169,1.1572,1.1229,1.0649,1.0061,0.9644,0.9455,0.0,0.0,0.0,0.0,0.0,0.0,0.0,0.0,0.0,0.0,0.0,0.0,0.0,0.0,0.0,0.0,0.0,0.0,0.0,0.0,0.0,0.0,0.0,0.0,0.0,0.0,0.0,0.0,0.0,0.0,0.0,0.0,0.0,0.0,0.0,0.0,0.0,0.0,0.0,0.0,0.0,0.0,0.0,0.0,0.0,0.0,0.0,0.0,0.0,0.0,0.0,0.0,0.0,0.0,0.0,0.0,0.0,0.0,0.0,0.0,0.0,0.0,0.0,0.0,0.0,0.0,0.0,0.0,0.0,0.0,0.0,0.0,0.0,0.0,0.0,0.0,0.0,0.0,0.0,0.0,0.0,0.0,0.0,0.0,0.0,0.0,0.0,0.0,0.0,0.0,0.0,0.0,0.0,0.0,0.0,0.0,0.0,0.0,0.0,0.0,0.0,0.0,0.0,0.0,0.0,0.0,0.0,0.0,1.4231,1.3849,1.3212,1.2357,1.167,1.1103,0.0,0.0,0.0,0.0,0.0,0.0,0.0,0.0,0.0,0.0,0.0,0.0,0.0,0.0,0.0,0.0,0.0,0.0,0.0,0.0,0.0,0.0,0.0,0.0,0.0,0.0,0.0,0.0,0.0,0.0,0.0,0.0,0.0,0.0,0.0,0.0,0.0,0.0,0.0,0.0,0.0,0.0,0.0,0.0,0.0,0.0,0.0,0.0,0.0,0.0,0.0,0.0,0.0,0.0,0.0,0.0,0.0,0.0,0.0,0.0,0.0,0.0,0.0,0.0,0.0,0.0,0.0,0.0,0.0,0.0,0.0,0.0,0.0,0.0,0.0,0.0,0.0,0.0,0.0,0.0,0.0,0.0,0.0,0.0,0.0,0.0,0.0,0.0,0.0,0.0,0.0,0.0,0.0,0.0,0.0,0.0,0.0,0.0,0.0,0.0,0.0,0.0,0.0,0.0,0.0,0.0,0.0,0.0,0.0,1.4916,1.5869,1.5573,1.397,1.3212,1.2389,0.0,0.0,0.0,0.0,0.0,0.0,0.0,0.0,0.0,0.0,0.0,0.0,0.0,0.0,0.0,0.0,0.0,0.0,0.0,0.0,0.0,0.0,0.0,0.0,0.0,0.0,0.0,0.0,0.0,0.0,0.0,0.0,0.0,0.0,0.0,0.0,0.0,0.0,0.0,0.0,0.0,0.0,0.0,0.0,0.0,0.0,0.0,0.0,0.0,0.0,0.0,0.0,0.0,0.0,0.0,0.0,0.0,0.0,0.0,0.0,0.0,0.0,0.0,0.0,0.0,0.0,0.0,0.0,0.0,0.0,0.0,0.0,0.0,0.0,0.0,0.0,0.0,0.0,0.0,0.0,0.0,0.0,0.0,0.0,0.0,0.0,0.0,0.0,0.0,0.0,0.0,0.0,0.0,0.0,0.0,0.0,0.0,0.0,0.0,0.0,0.0,0.0,0.0,0.0,0.0,0.0,0.0,0.0,1.4497,1.576,1.721,1.7307,1.5964,1.4857,1.372,0.0,0.0,0.0,0.0,0.0,0.0,0.0,0.0,0.0,0.0,0.0,0.0,0.0,0.0,0.0,0.0,0.0,0.0,0.0,0.0,0.0,0.0,0.0,0.0,0.0,0.0,0.0,0.0,0.0,0.0,0.0,0.0,0.0,0.0,0.0,0.0,0.0,0.0,0.0,0.0,0.0,0.0,0.0,0.0,0.0,0.0,0.0,0.0,0.0,0.0,0.0,0.0,0.0,0.0,0.0,0.0,0.0,0.0,0.0,0.0,0.0,0.0,0.0,0.0,0.0,0.0,0.0,0.0,0.0,0.0,0.0,0.0,0.0,0.0,0.0,0.0,0.0,0.0,0.0,0.0,0.0,0.0,0.0,0.0,0.0,0.0,0.0,0.0,0.0,0.0,0.0,0.0,0.0,0.0,0.0,0.0,0.0,0.0,0.0,0.0,0.0,0.0,0.0,0.0,0.0,0.0,0.0,0.0,1.519,1.6715,1.8045,1.8485,1.7908,1.6441,1.5,0.0,0.0,0.0,0.0,0.0,0.0,0.0,0.0,0.0,0.0,0.0,0.0,0.0,0.0,0.0,0.0,0.0,0.0,0.0,0.0,0.0,0.0,0.0,0.0,0.0,0.0,0.0,0.0,0.0,0.0,0.0,0.0,0.0,0.0,0.0,0.0,0.0,0.0,0.0,0.0,0.0,0.0,0.0,0.0,0.0,0.0,0.0,0.0,0.0,0.0,0.0,0.0,0.0,0.0,0.0,0.0,0.0,0.0,0.0,0.0,0.0,0.0,0.0,0.0,0.0,0.0,0.0,0.0,0.0,0.0,0.0,0.0,0.0,0.0,0.0,0.0,0.0,0.0,0.0,0.0,0.0,0.0,0.0,0.0,0.0,0.0,0.0,0.0,0.0,0.0,0.0,0.0,0.0,0.0,0.0,0.0,0.0,0.0,0.0,0.0,0.0,0.0,0.0,0.0,0.0,0.0,0.0,0.0,1.6566,1.754,1.8445,1.8606,1.7909,1.7155,1.6011,0.0,0.0,0.0,0.0,0.0,0.0,0.0,0.0,0.0,0.0,0.0,0.0,0.0,0.0,0.0,0.0,0.0,0.0,0.0,0.0,0.0,0.0,0.0,0.0,0.0,0.0,0.0,0.0,0.0,0.0,0.0,0.0,0.0,0.0,0.0,0.0,0.0,0.0,0.0,0.0,0.0,0.0,0.0,0.0,0.0,0.0,0.0,0.0,1.0056,0.0,0.0,0.0,0.0,0.0,0.0,0.0,0.0,0.0,0.0,0.0,0.0,0.0,0.0,0.0,0.0,0.0,0.0,0.0,0.0,0.0,0.0,0.0,0.0,0.0,0.0,0.0,0.0,0.0,0.0,0.0,0.0,0.0,0.0,0.0,0.0,0.0,0.0,0.0,0.0,0.0,0.0,0.0,0.0,0.0,0.0,0.0,0.0,0.0,0.0,0.0,0.0,0.0,0.0,0.0,0.0,0.0,0.0,0.0,1.852,1.9196,1.9323,1.9102,1.8582,1.794,1.6779,0.0,0.0,0.0,0.0,0.0,0.0,0.0,0.0,0.0,0.0,0.0,0.0,0.0,0.0,0.0,0.0,0.0,0.0,0.0,0.0,0.0,0.0,0.0,0.0,0.0,0.0,0.0,0.0,0.0,0.0,0.0,0.0,0.0,0.0,0.0,0.0,0.0,0.0,0.0,0.0,0.0,0.0,0.0,0.0,0.0,0.0,0.0,0.0,0.0,0.0,0.0,0.0,0.0,0.0,0.0,0.0,0.0,0.0,0.0,0.0,0.0,0.0,0.0,0.0,0.0,0.0,0.0,0.0,0.0,0.0,0.0,0.0,0.0,0.0,0.0,0.0,0.0,0.0,0.0,0.0,0.0,0.0,0.0,0.0,0.0,0.0,0.0,0.0,0.0,0.0,0.0,0.0,0.0,0.0,0.0,0.0,0.0,0.0,0.0,0.0,0.0,0.0,0.0,0.0,0.0,0.0,0.0,2.0528,2.0785,2.1197,2.0634,2.0091,1.9691,1.8917,1.7574,1.5597,0.0,0.0,0.0,0.0,0.0,0.0,0.0,0.0,0.0,0.0,0.0,0.0,0.0,0.0,0.0,0.0,0.0,0.0,0.0,0.0,0.0,0.0,0.0,0.0,0.0,0.0,0.0,0.0,0.0,0.0,0.0,0.0,0.0,0.0,0.0,0.0,0.0,0.0,0.9701,1.0039,0.0,0.0,0.0,0.0,0.0,0.0,0.0,0.0,1.055,0.0,0.0,0.0,0.0,0.0,0.0,0.0,0.0,0.0,0.0,0.0,0.0,0.0,0.0,0.0,0.0,0.0,0.0,0.0,0.0,0.0,0.0,0.0,0.0,0.0,0.0,0.0,0.0,0.0,0.0,0.0,0.0,0.0,0.0,0.0,0.0,0.0,0.0,0.0,0.0,0.0,0.0,0.0,0.0,0.0,0.0,0.0,0.0,0.0,0.0,0.0,0.0,0.0,0.0,0.0,0.0,2.1869,2.262,2.3083,2.3223,2.2776,2.2181,2.1407,2.0391,1.8974,1.7054,0.0,0.0,0.0,0.0,0.0,0.0,0.0,0.0,0.0,0.0,0.0,0.0,0.0,0.0,0.0,0.0,0.0,0.0,0.0,0.0,0.0,0.0,0.0,0.0,0.0,0.0,0.0,0.0,0.0,0.0,0.0,0.0,0.0,0.0,0.0,0.0,0.0,0.0,0.0,1.0938,1.1199,0.0,0.0,0.0,0.0,0.0,0.0,0.0,0.0,1.0447,0.0,0.0,0.0,0.0,0.0,0.0,0.0,0.0,0.0,0.0,0.0,0.0,0.0,0.0,0.0,0.0,0.0,0.0,0.0,0.0,0.0,0.0,0.0,0.0,0.0,0.0,0.0,0.0,0.0,0.0,0.0,0.0,0.0,0.0,0.0,0.0,0.0,0.0,0.0,0.0,0.0,0.0,0.0,0.0,0.0,0.0,0.0,0.0,0.0,0.0,0.0,0.0,0.0,0.0,0.0,2.438,2.5659,2.6254,2.6181,2.545,2.4521,2.3398,2.1951,2.0245,0.0,0.0,0.0,0.0,0.0,0.0,0.0,0.0,0.0,0.0,0.0,0.0,0.0,0.0,0.0,0.0,0.0,0.0,0.0,0.0,0.0,0.0,0.0,0.0,0.0,0.0,0.0,0.0,0.0,0.0,0.0,0.0,0.0,0.0,0.0,0.0,0.0,0.0,0.0,0.0,1.1322,1.1649,1.1763,0.0,0.0,0.0,0.0,0.0,0.0,1.1245,1.0849,0.0,0.0,0.0,0.0,0.0,0.0,0.0,0.0,0.0,0.0,0.0,0.0,0.0,0.0,0.0,0.0,0.0,0.0,0.0,0.0,0.0,0.0,0.0,0.0,0.0,0.0,0.0,0.0,0.0,0.0,0.0,0.0,0.0,0.0,0.0,0.0,0.0,0.0,0.0,0.0,0.0,0.0,0.0,0.0,0.0,0.0,0.0,0.0,0.0,0.0,0.0,0.0,0.0,0.0,0.0,2.6527,2.8272,2.9078,2.8897,2.8025,2.6915,2.5502,2.3771,2.1762,0.0,0.0,0.0,0.0,0.0,0.0,0.0,0.0,0.0,0.0,0.0,0.0,0.0,0.0,0.0,0.0,0.0,0.0,0.0,0.0,0.0,0.0,0.0,0.0,0.0,0.0,0.0,0.0,0.0,0.0,0.0,0.0,0.0,0.0,0.0,0.0,0.0,0.0,0.0,0.0,0.0,1.2053,1.2467,1.183,0.0,0.0,0.0,0.0,1.2077,1.1921,0.0,0.0,0.0,0.0,0.0,0.0,0.0,0.0,0.0,0.0,0.0,0.0,0.0,0.0,0.0,0.0,0.0,0.0,0.0,0.0,0.0,0.0,0.0,0.0,0.0,0.0,0.0,0.0,0.0,0.0,0.0,0.0,0.0,0.0,0.0,0.0,0.0,0.0,0.0,0.0,0.0,0.0,0.0,0.0,0.0,0.0,0.0,0.0,0.0,0.0,0.0,0.0,0.0,0.0,0.0,0.0,2.6854,2.9133,3.0326,3.0342,2.9995,2.9177,2.7843,2.6269,2.4081,0.0,0.0,0.0,0.0,0.0,0.0,0.0,0.0,0.0,0.0,0.0,0.0,0.0,0.0,0.0,0.0,0.0,0.0,0.0,0.0,0.0,0.0,0.0,0.0,0.0,0.0,0.0,0.0,0.0,0.0,0.0,0.0,0.0,0.0,0.0,0.0,0.0,0.0,0.0,0.0,0.0,1.2748,1.3213,1.2925,1.2783,0.0,0.0,1.2644,1.314,1.3051,0.0,0.0,0.0,0.0,0.0,0.0,0.0,0.0,0.0,0.0,0.0,0.0,0.0,0.0,0.0,0.0,0.0,0.0,0.0,0.0,0.0,0.0,0.0,0.0,0.0,0.0,0.0,0.0,0.0,0.0,0.0,0.0,0.0,0.0,0.0,0.0,0.0,0.0,0.0,0.0,0.0,0.0,0.0,0.0,0.0,0.0,0.0,0.0,0.0,0.0,0.0,0.0,0.0,0.0,0.0,2.5071,2.7622,3.0464,3.1909,3.1958,3.2005,3.133,2.9935,2.8315,2.5999,0.0,0.0,0.0,0.0,0.0,0.0,0.0,0.0,0.0,0.0,0.0,0.0,0.0,0.0,0.0,0.0,0.0,0.0,0.0,0.0,0.0,0.0,0.0,0.0,0.0,0.0,0.0,0.0,0.0,0.0,0.0,0.0,0.0,0.0,0.0,0.0,0.0,0.0,0.0,0.0,0.0,0.0,1.3873,1.3748,0.0,0.0,0.0,1.3397,1.419,0.0,0.0,0.0,0.0,0.0,0.0,0.0,0.0,0.0,0.0,0.0,0.0,0.0,0.0,0.0,0.0,0.0,0.0,0.0,0.0,0.0,0.0,0.0,0.0,0.0,0.0,0.0,0.0,0.0,0.0,0.0,0.0,0.0,0.0,0.0,0.0,0.0,0.0,0.0,0.0,0.0,0.0,0.0,0.0,0.0,0.0,0.0,0.0,0.0,0.0,0.0,0.0,0.0,0.0,0.0,0.0,0.0,2.8286,3.1417,3.3038,3.3118,3.3293,3.2761,3.144,2.9873,0.0,0.0,0.0,0.0,0.0,0.0,0.0,0.0,0.0,0.0,0.0,0.0,0.0,0.0,0.0,0.0,0.0,0.0,0.0,0.0,0.0,0.0,0.0,0.0,0.0,0.0,0.0,0.7711,0.0,0.0,0.0,0.0,0.0,0.0,0.0,0.0,0.0,0.0,0.0,0.0,0.0,0.0,1.3963,1.4657,1.4628,1.4661,0.0,0.0,1.4318,1.519,1.5342,1.4989,0.0,0.0,0.0,0.0,0.0,0.0,0.0,0.0,0.0,0.0,0.0,0.0,0.0,0.0,0.0,0.0,0.0,0.0,0.0,0.0,0.0,0.0,0.0,0.0,0.0,0.0,0.0,0.0,0.0,0.0,0.0,0.0,0.0,0.0,0.0,0.0,0.0,0.0,0.0,0.0,0.0,0.0,0.0,0.0,0.0,0.0,0.0,0.0,0.0,0.0,0.0,0.0,0.0,0.0,0.0,2.8551,3.1476,3.3131,3.3349,3.34,3.2973,3.2064,3.0898,2.8763,0.0,0.0,0.0,0.0,0.0,0.0,0.0,0.0,0.0,0.0,0.0,0.0,0.0,0.0,0.0,0.0,0.0,0.0,0.0,0.0,0.0,0.0,0.0,0.0,0.0,0.0,0.0,0.0,0.0,0.0,0.0,0.0,0.0,0.0,0.0,0.0,0.0,0.0,0.0,0.0,0.0,1.4807,1.559,1.5704,1.5871,0.0,0.0,1.5638,1.6145,1.5943,1.5394,1.4337,0.0,0.0,0.0,0.0,0.0,0.0,0.0,0.0,0.0,0.0,0.0,0.0,0.0,0.0,0.0,0.0,0.0,0.0,0.0,0.0,0.0,0.0,0.0,0.0,0.0,0.0,0.0,0.0,0.0,0.0,0.0,0.0,0.0,0.0,0.0,0.0,0.0,0.0,0.0,0.0,0.0,0.0,0.0,0.0,0.0,0.0,0.0,0.0,0.0,0.0,0.0,0.0,0.0,2.5899,2.8836,3.1957,3.3519,3.3427,3.3601,3.336,3.2652,3.1874,3.0002,0.0,0.0,0.0,0.0,0.0,0.0,0.0,0.0,0.0,0.0,0.0,0.0,0.0,0.0,0.0,0.0,0.0,0.0,0.0,0.0,0.0,0.0,0.0,0.0,0.0,0.0,0.0,0.0,0.8864,0.8913,0.8914,0.0,0.0,0.0,0.0,0.0,0.0,0.0,0.0,0.0,0.0,1.5544,1.6469,1.6715,0.0,0.0,1.6769,1.6484,1.6739,1.6503,1.5922,1.4876,1.3637,0.0,0.0,0.0,0.0,0.0,0.0,0.0,0.0,0.0,0.0,0.0,0.0,0.0,0.0,0.0,0.0,0.0,0.0,0.0,0.0,0.0,0.0,0.0,0.0,0.0,0.0,0.0,0.0,0.0,0.0,0.0,0.0,0.0,0.0,0.0,0.0,0.0,0.0,0.0,0.0,0.0,0.0,0.0,0.0,0.0,0.0,0.0,0.0,0.0,0.0,0.0,0.0,2.6053,2.8975,3.212,3.3641,3.3414,3.3627,3.3494,3.2986,3.2436,3.0808,0.0,0.0,0.0,0.0,0.0,0.0,0.0,0.0,0.0,0.0,0.0,0.0,0.0,0.0,0.0,0.0,0.0,0.0,0.0,0.0,0.0,0.0,0.0,0.0,0.0,0.0,0.0,0.0,0.9332,0.9254,0.8995,0.0,0.0,0.0,0.0,0.0,0.0,0.0,0.0,0.0,0.0,1.623,1.7125,1.7414,1.7632,1.7838,1.7484,1.7192,1.719,1.6866,1.6248,1.5231,0.0,0.0,0.0,0.0,0.0,0.0,0.0,0.0,0.0,0.0,0.0,0.0,0.0,0.0,0.0,0.0,0.0,0.0,0.0,0.0,0.0,0.0,0.0,0.0,0.0,0.0,0.0,1.5787,0.0,0.0,1.5799,0.0,0.0,0.0,0.0,0.0,0.0,0.0,0.0,0.0,0.0,0.0,0.0,0.0,0.0,0.0,0.0,0.0,0.0,0.0,0.0,0.0,0.0,2.6053,2.8975,3.192,3.3427,3.3389,3.3427,3.3293,3.3011,3.2436,3.0972,2.8596,0.0,0.0,0.0,0.0,0.0,0.0,0.0,0.0,0.0,0.0,0.0,0.0,0.0,0.0,0.0,0.0,0.0,0.0,0.0,0.0,0.0,0.0,0.0,0.0,0.0,0.0,0.9832,0.9872,0.9738,0.0,0.0,0.0,0.0,0.0,0.0,0.0,0.0,0.0,0.0,1.5638,1.6828,1.7489,1.778,1.8031,1.8403,1.8127,1.7755,1.7421,1.6939,1.6276,0.0,0.0,0.0,0.0,0.0,0.0,0.0,0.0,0.0,0.0,0.0,0.0,0.0,0.0,0.0,0.0,0.0,0.0,0.0,0.0,0.0,0.0,0.0,0.0,0.0,0.0,0.0,1.845,1.817,0.0,0.0,0.0,0.0,0.0,0.0,0.0,0.0,0.0,0.0,0.0,2.4017,2.4253,0.0,0.0,0.0,0.0,0.0,0.0,0.0,0.0,0.0,0.0,0.0,0.0,2.604,2.8988,3.2131,3.3614,3.3427,3.3627,3.3574,3.328,3.2893,3.1129,2.7837,0.0,0.0,0.0,0.0,0.0,0.0,0.0,0.0,0.0,0.0,0.0,0.0,0.0,0.0,0.0,0.0,0.0,0.0,0.0,0.0,0.0,0.0,0.0,0.0,0.0,1.0428,0.0,0.0,0.0,0.0,0.0,0.0,0.0,0.0,0.0,0.0,0.0,1.4076,1.5179,1.6154,1.7033,1.7875,1.8175,1.8386,0.0,0.0,0.0,0.0,0.0,0.0,0.0,0.0,0.0,0.0,0.0,0.0,0.0,0.0,1.5025,1.4065,1.4195,1.4448,1.4397,0.0,0.0,0.0,0.0,0.0,0.0,0.0,0.0,0.0,0.0,0.0,0.0,0.0,0.0,2.0855,0.0,1.9761,0.0,0.0,0.0,0.0,0.0,0.0,0.0,0.0,2.5229,2.6226,2.6894,2.7222,2.7248,0.0,2.7369,2.5971,0.0,0.0,0.0,0.0,0.0,0.0,0.0,0.0,2.6326,2.9157,3.2171,3.3627,3.3402,3.3614,3.3627,3.3389,3.2732,3.0955,2.7976,2.5251,2.2806,0.0,0.0,0.0,0.0,0.0,0.0,0.0,0.0,0.0,0.0,0.0,0.0,0.0,0.0,0.0,0.0,0.0,0.0,0.0,0.0,0.0,0.0,0.0,1.1734,0.0,0.0,0.0,0.0,0.0,0.0,0.0,0.0,0.0,1.3912,1.4565,1.5482,1.6221,1.6759,1.7382,1.8214,0.0,0.0,0.0,0.0,0.0,0.0,0.0,1.6365,1.6174,1.6036,1.6118,1.6697,1.7252,1.7704,1.7875,0.0,0.0,1.6028,1.6276,1.694,1.735,1.7947,1.8671,1.9477,1.9851,2.0119,0.0,0.0,0.0,0.0,0.0,0.0,0.0,0.0,2.3621,2.3313,0.0,2.179,0.0,0.0,0.0,0.0,0.0,2.1707,0.0,0.0,2.7443,2.8727,2.9513,2.982,2.9944,2.9993,3.0243,2.9624,2.8052,2.4449,0.0,0.0,0.0,0.0,0.0,0.0,2.6841,2.9495,3.2091,3.3414,3.3389,3.3389,3.3414,3.3387,3.2,3.0576,2.9121,2.7415,2.5417,2.3134,2.1844,0.0,0.0,0.0,0.0,0.0,0.0,0.0,0.0,0.0,0.0,0.0,0.0,0.0,0.0,0.0,0.0,0.0,0.0,0.0,0.0,1.4029,0.0,0.0,0.0,0.0,0.0,0.0,0.0,0.0,0.0,0.0,1.6404,1.6704,1.7238,1.7383,0.0,0.0,0.0,0.0,1.8761,1.8972,1.8818,1.8526,1.8046,1.7771,1.7577,1.7461,0.0,0.0,1.9657,2.0416,2.103,2.1563,2.1904,2.1198,1.833,1.8564,1.9448,2.0573,2.149,2.2586,2.392,2.4162,2.4353,2.7617,0.0,0.0,0.0,0.0,2.5879,2.6573,2.7201,2.6914,2.65,2.5971,2.477,0.0,0.0,0.0,0.0,0.0,0.0,2.5632,2.8001,2.9227,3.0239,3.1072,3.1343,3.137,3.1183,3.1296,3.0801,2.9731,2.8224,2.5739,2.2425,0.0,0.0,0.0,0.0,2.7348,2.9766,3.2185,3.3389,3.3389,3.3389,3.3389,3.3375,3.2374,3.1626,3.1199,2.9304,2.7589,2.6091,2.4124,0.0,0.0,0.0,0.0,0.0,0.0,0.0,0.0,0.0,0.0,0.0,0.0,0.0,0.0,0.0,0.0,0.0,0.0,0.0,1.6211,1.642,1.5882,0.0,0.0,0.0,0.0,0.0,0.0,0.0,0.0,0.0,2.1873,2.0116,1.8995,0.0,0.0,1.8168,1.859,1.8672,1.885,1.9297,1.9102,0.0,1.8907,1.8533,1.8313,1.8516,1.9536,2.0811,2.2257,2.3333,2.4222,2.5,2.5222,2.4916,2.3989,2.2964,2.2776,2.3594,2.4571,2.5628,2.6708,2.7081,2.7284,3.1072,2.8692,2.7869,2.7783,2.819,2.8818,2.9566,3.0314,3.0065,2.9753,2.9329,2.8024,2.6607,2.5122,2.4553,0.0,0.0,0.0,2.7808,2.9918,3.0845,3.1727,3.2556,3.2853,3.2839,3.2583,3.2449,3.1995,3.1269,3.0778,2.9032,2.6119,0.0,0.0,2.489,2.6466,2.831,3.0385,3.2374,3.3389,3.3389,3.3389,3.3389,3.3375,3.2786,3.2398,3.2276,3.0755,2.9237,2.7843,2.6018,2.4026,0.0,0.0,0.0,0.0,0.0,0.0,0.0,0.0,0.0,0.0,0.0,1.2039,0.0,0.0,0.0,0.0,1.5607,1.7629,1.8941,1.9335,0.0,0.0,0.0,0.0,0.0,0.0,0.0,2.3153,2.5199,2.6506,2.6484,2.4554,2.2694,2.1457,2.0501,2.0022,2.0302,0.0,2.0614,2.1022,2.0917,2.0829,2.0951,2.0681,2.0601,2.0951,2.2251,2.3662,2.4975,2.6151,2.7236,2.8106,2.8393,2.8348,2.824,2.7529,2.6943,2.6979,2.7791,2.8884,2.9967,3.03,3.0416,3.3721,3.3051,3.1132,3.0621,3.1022,3.1293,3.2064,3.3064,3.2822,3.2688,3.253,3.1179,2.9909,2.8676,2.7343,0.0,2.7976,2.8826,2.9976,3.1373,3.2284,3.3127,3.3921,3.4163,3.4136,3.3893,3.3561,3.312,3.2621,3.2289,3.1583,3.048,2.7495,2.6493,2.7489,2.835,2.9584,3.1253,3.2692,3.3389,3.3389,3.3389,3.3389,3.3389,3.316,3.2904,3.2621,3.177,3.0532,2.8876,2.7655,2.5806,2.3322,0.0,0.0,0.0,0.0,0.0,0.0,0.0,0.0,0.0,0.0,0.0,0.0,0.0,0.0,0.0,1.8677,0.0,2.1871,2.2473,0.0,0.0,0.0,1.9882,2.1396,2.319,2.4981,2.6741,0.0,0.0,3.0135,2.928,2.7434,2.4372,2.3387,2.2976,2.311,2.3296,2.3542,2.3804,2.3868,2.3862,2.391,2.3878,2.3945,2.4273,2.5443,2.6592,2.7743,2.8879,3.0025,3.1081,3.1352,3.1339,3.1352,3.1576,3.1685,3.0425,3.0939,3.1964,3.2984,3.3225,3.3187,3.5338,3.4937,3.4443,3.3708,3.2801,3.312,3.3547,3.3961,3.3694,3.344,3.3148,3.2409,3.1393,3.0243,2.9642,2.9612,3.0096,3.0705,3.1543,3.2581,3.3214,3.3771,3.4202,3.4256,3.4162,3.3907,3.3536,3.3227,3.2904,3.2634,3.2209,3.1674,3.0711,2.9922,2.9339,2.994,3.0808,3.1891,3.2868,3.3389,3.3389,3.3389,3.3389,3.3389,3.3347,3.3173,3.2904,3.2489,3.173,3.0612,2.9237,2.7595,2.5657,2.33,0.0,0.0,0.0,0.0,0.0,0.0,0.0,0.0,0.0,1.6204,1.702,0.0,1.8066,0.0,2.075,2.279,2.3947,2.4463,0.0,0.0,2.3216,2.3211,2.4437,2.6031,2.7547,2.8815,3.0293,3.1152,3.1029,3.0608,2.9971,2.8976,2.7145,2.5905,2.5942,2.6142,2.6373,2.6593,2.6787,2.6986,2.7086,2.7039,2.6918,2.6934,2.7852,2.8932,3.0028,3.117,3.2258,3.3279,3.3536,3.3536,3.3498,3.364,3.3613,3.3288,3.3133,3.3236,3.3942,3.407,3.4042,3.6896,3.6569,3.6569,3.6104,3.534,3.4876,3.4724,3.4857,3.4723,3.4537,3.435,3.4066,3.3638,3.3068,3.2534,3.2472,3.2876,3.2815,3.3324,3.4287,3.4353,3.461,3.5034,3.4814,3.4496,3.4068,3.3494,3.3158,3.2998,3.2741,3.2543,3.2505,3.2623,3.2332,3.1704,3.1634,3.1968,3.2654,3.3427,3.3789,3.3789,3.3694,3.3627,3.3614,3.336,3.3104,3.281,3.2433,3.1767,3.0862,2.9642,2.8276,2.664,2.4449,2.2352,0.0,0.0,0.0,0.0,0.0,0.0,0.0,0.0,0.0,0.0,0.0,2.1071,2.145,2.2952,2.4444,2.5785,2.6557,2.7077,2.7274,2.6993,2.7144,2.8017,2.9012,2.9985,3.0885,3.1745,3.2275,3.2236,3.2242,3.219,3.2082,3.0982,2.979,2.88,2.8686,2.8891,2.924,2.9436,2.958,2.9804,2.9762,2.9668,2.9675,3.0274,3.1128,3.1968,3.2819,3.3707,3.4501,3.4684,3.4684,3.4684,3.471,3.471,3.4658,3.4462,3.4291,3.4298,3.4296,3.4216,3.8146,3.7865,3.7865,3.7837,3.7701,3.6475,3.5926,3.5899,3.5858,3.5791,3.5777,3.5776,3.5856,3.5921,3.5191,3.5037,3.5333,3.4626,3.482,3.5758,3.5406,3.5519,3.6031,3.5625,3.5092,3.4501,3.3641,3.3249,3.3249,3.2977,3.3004,3.3316,3.3854,3.4137,3.4137,3.3408,3.3161,3.3521,3.4029,3.4296,3.4296,3.4042,3.3868,3.3801,3.3265,3.2757,3.238,3.1888,3.1206,3.0333,2.949,2.8422,2.6967,2.5304,2.3612,0.0,2.1015,0.0,0.0,0.0,0.0,0.0,0.0,0.0,0.0,2.3283,2.3986,2.4609,2.5163,2.6078,2.7456,2.8591,2.9571,3.039,3.0564,3.0805,3.1253,3.166,3.2086,3.2594,3.2877,3.3146,3.3389,3.3721,3.3881,3.382,3.3853,3.3188,3.1608,3.1172,3.1356,3.1783,3.1869,3.1991,3.2175,3.2224,3.2211,3.2265,3.2586,3.3101,3.3593,3.4069,3.457,3.5045,3.5151,3.5164,3.5191,3.5177,3.5177,3.5151,3.5124,3.4951,3.4577,3.4457,3.4336,3.8454,3.8215,3.8215,3.8061,3.7797,3.779,3.7626,3.7349,3.7113,3.6863,3.6678,3.6824,3.6523,3.5918,3.5698,3.5253,3.4703,3.4751,3.49,3.5196,3.5811,3.6148,3.6325,3.6498,3.6225,3.5575,3.4948,3.4629,3.4615,3.4348,3.4498,3.5015,3.514,3.532,3.5582,0.0,0.0,0.0,3.423,3.4296,3.4283,3.4042,3.3761,3.3482,3.2957,0.0,3.1219,3.1236,3.0795,2.9735,2.9508,0.0,0.0,0.0,0.0,0.0,0.0,0.0,0.0,0.0,0.0,0.0,2.5905,2.6079,2.5611,2.5932,2.638,2.6987,2.7403,2.8018,2.8986,2.9913,3.0621,3.0999,3.149,3.1824,3.1944,3.2423,3.281,3.2904,3.3171,3.3454,3.3748,3.3855,3.4014,3.4202,3.4256,3.4234,3.4018,3.3863,3.398,3.415,3.415,3.4426,3.4544,3.4478,3.4346,3.4557,3.461,3.4716,3.4795,3.4874,3.5006,3.5204,3.5204,3.5204,3.5204,3.5204,3.5204,3.5204,3.5204,3.5164,3.5057,3.5017,3.495,3.9499,0.0,3.9383,3.9283,0.0,3.9311,3.9283,3.9057,3.8178,3.7787,3.7769,3.7719,3.7483,3.7114,3.6235,3.5609,3.5255,3.4665,3.4808,3.5541,3.5906,3.6312,3.6798,3.6875,3.6563,3.5921,3.5344,3.5061,3.5022,3.4906,3.5075,3.5498,3.5781,3.603,3.6184,3.6313,3.6098,3.5568,3.5607,3.5568,3.5554,3.4874,3.4409,3.4208,3.3173,0.0,0.0,0.0,0.0,0.0,0.0,0.0,0.0,0.0,0.0,2.5678,2.5133,2.4819,2.4797,2.5778,2.6694,2.7442,2.8663,2.8951,2.7789,2.7709,2.7982,2.8724,2.9093,2.965,3.0497,3.1126,3.161,3.2038,3.2358,3.261,3.2759,3.3146,3.3427,3.3479,3.3681,3.3935,3.4082,3.4268,3.4401,3.4523,3.467,3.479,3.4923,3.4883,3.4829,3.4976,3.5084,3.5164,3.5204,3.5204,3.5204,3.5178,3.5204,3.5204,3.5204,3.5204,3.5204,3.5204,3.5204,3.5204,3.5204,3.5204,3.5204,3.5204,3.5204,3.5204,3.5204,3.5204,3.511,4.0621,4.0605,4.0663,4.0621,4.0605,4.0605,4.0561,4.0433,0.0,0.0,0.0,3.8542,3.8448,3.8378,3.6846,3.6148,3.6095,3.4813,3.4947,3.6168,3.6094,3.649,3.7326,3.724,3.6902,3.6363,3.5797,3.5528,3.5528,3.5553,3.5698,3.5984,3.6453,3.6707,3.6721,3.7017,3.7173,3.7173,3.699,3.6885,3.6871,3.586,3.5233,3.5034,3.3595,3.245,3.1647,3.141,3.1009,3.044,3.0167,2.9913,2.9575,2.8738,2.8298,2.8372,2.8029,2.7934,2.8277,2.8775,2.9202,2.9597,3.0745,3.0879,2.9571,2.9285,2.9446,3.0167,3.0511,3.0992,3.1701,3.2088,3.2452,3.2957,3.3026,3.3173,3.3454,3.3721,3.3907,3.4,3.4123,3.4323,3.4402,3.4615,3.4842,3.4883,3.5017,3.5204,3.5164,3.503,3.4963,3.5124,3.5191,3.5204,3.5204,3.5204,3.5204,3.5204,3.5204,3.5204,3.5204,3.5204,3.5204,3.5204,3.5204,3.5204,3.5204,3.5204,3.5204,3.5204,3.5204,3.5204,3.5204,3.5204,3.5124,4.1148,4.0956,4.1164,4.112,4.0927,4.0927,4.0738,4.046,3.9976,3.9628,3.9376,3.9332,3.902,3.8474,3.7691,3.7059,3.6509,3.5797,3.5832,3.6539,3.6801,3.7286,3.7958,3.8175,3.812,3.7782,3.7418,3.7244,3.7244,3.7244,3.7404,3.7695,3.7811,3.7844,3.7884,3.8135,3.8283,3.8257,3.7382,3.6885,3.6871,3.6457,3.5741,3.4809,3.4027,3.2883,3.1343,3.1503,3.1246,3.0467,3.0578,3.0421,2.9887,3.0122,3.0178,3.0063,3.1015,3.1454,3.1071,3.1792,3.2188,3.212,3.2276,3.2075,3.1393,3.1286,3.1313,3.146,3.1677,3.1891,3.2064,3.257,3.2944,3.3024,3.3213,3.348,3.3813,3.3881,3.4015,3.4229,3.4295,3.4442,3.4696,3.4776,3.4909,3.5097,3.5151,3.5204,3.5191,3.5164,3.5151,3.5191,3.5204,3.5204,3.5204,3.5204,3.5204,3.5204,3.5204,3.5204,3.5204,3.5204,3.5204,3.5204,3.5204,3.5204,3.5204,3.5204,3.5204,3.5204,3.5204,3.5204,3.5204,3.5204,3.5177,4.1604,4.1251,4.1354,4.134,4.1221,4.1073,4.081,4.049,4.0329,4.0182,4.0036,3.986,3.9509,3.8985,3.8233,3.7603,3.712,3.6466,3.6534,3.7124,3.7285,3.7695,3.8295,3.8444,3.843,3.8309,3.8178,3.8064,3.8079,3.8104,3.8163,3.8309,3.8324,3.8324,3.8339,3.8444,3.8517,3.8491,3.8023,3.7773,3.7747,3.7187,3.6657,3.6104,3.5224,3.4214,3.3103,3.3175,3.2938,3.222,3.2306,3.2238,3.2,3.2066,3.2236,3.2554,3.2911,3.3196,3.3389,3.3222,3.3048,3.2857,3.3091,3.3064,3.265,3.2342,3.226,3.2396,3.2639,3.2879,3.3053,3.3454,3.3708,3.3708,3.3828,3.3961,3.4108,3.4294,3.4441,3.4575,3.4696,3.4843,3.5003,3.503,3.5057,3.5177,3.5204,3.5204,3.5204,3.5204,3.5204,3.5204,3.5204,3.5204,3.5204,3.5204,3.5204,3.5204,3.5204,3.5204,3.5204,3.5204,3.5204,3.5204,3.5204,3.5204,3.5204,3.5204,3.5204,3.5204,3.5204,3.5204,3.5204,3.5204,3.5204,4.2359,4.1515,4.1603,4.1588,4.1486,4.1133,4.0854,4.0619,4.0546,4.0502,4.0446,4.0212,3.9919,3.9553,3.8748,3.8221,3.7881,3.73,3.7344,3.7896,3.79,3.8207,3.8678,3.8737,3.8737,3.8737,3.8722,3.8693,3.8634,3.862,3.8576,3.8517,3.8517,3.8517,3.8517,3.8517,3.8517,3.8517,3.8517,3.8517,3.8477,3.7907,3.7489,3.726,3.6408,3.5582,3.4962,3.492,3.4668,3.4149,3.4037,3.3991,3.3907,3.3816,3.4102,3.4698,3.4596,3.4719,3.5188,3.4311,3.3693,3.3677,3.3914,3.4073,3.3961,3.3473,3.3148,3.3223,3.3374,3.3627,3.3895,3.4148,3.4296,3.4296,3.4296,3.431,3.4429,3.4655,3.4855,3.4896,3.5083,3.5191,3.5204,3.5204,3.5191,3.5191,3.5204,3.5204,3.5204,3.5204,3.5204,3.5204,3.5204,3.5204,3.5204,3.5204,3.5204,3.5204,3.5204,3.5204,3.5204,3.5204,3.5204,3.5204,3.5204,3.5204,3.5204,3.5204,3.5204,3.5204,3.5204,3.5204,3.5204,3.5204,3.5204,4.3686,4.2037,4.2243,4.2129,4.1792,4.1249,4.0986,4.0898,4.0621,4.0502,4.0475,4.0446,4.0255,3.9934,3.9538,3.9187,3.8854,3.8503,3.8532,3.8839,3.8868,3.9058,3.9351,3.938,3.9421,3.938,3.9366,3.9205,3.8956,3.8941,3.8795,3.8547,3.8517,3.8532,3.8517,3.8532,3.8532,3.8517,3.8517,3.8517,3.8517,3.841,3.8042,3.7314,3.7205,3.6723,3.5947,3.586,3.5705,3.5344,3.5124,3.4858,3.4629,3.4964,3.5372,3.5747,3.6357,3.6776,3.6546,3.5549,3.514,3.5631,3.5219,3.5182,3.5619,3.5182,3.455,3.4059,3.3853,3.3988,3.4216,3.431,3.435,3.4377,3.435,3.439,3.467,3.4776,3.4883,3.515,3.5164,3.5204,3.5204,3.5204,3.5204,3.5204,3.5204,3.5204,3.5204,3.5204,3.5204,3.5204,3.5204,3.5204,3.5204,3.5204,3.5204,3.5204,3.5204,3.5204,3.5204,3.5204,3.5204,3.5204,3.5204,3.5204,3.5204,3.5204,3.5204,3.5204,3.5204,3.5204,3.5204,3.5204,3.5204,4.576,4.4327,4.4068,4.3395,4.2401,4.1581,4.1148,4.0971,4.0621,4.0502,4.0502,4.0502,4.0416,4.027,4.0153,4.0007,3.9875,3.9743,3.9758,3.986,3.9699,3.967,3.9773,3.957,3.9483,3.9483,3.9483,3.9451,3.9278,3.9088,3.8824,3.8576,3.8667,3.8795,3.881,3.8985,3.9088,3.9088,3.9088,3.9088,3.9044,3.8707,3.834,3.8057,3.8002,3.7779,3.731,3.7242,3.7098,3.677,3.6612,3.6435,3.6094,3.6477,3.6688,3.6659,3.7097,3.7229,3.6827,3.6343,3.6088,3.6011,3.6062,3.6113,3.5986,3.573,3.5361,3.4969,3.4608,3.4495,3.4576,3.4736,3.4843,3.483,3.4843,3.4883,3.499,3.5017,3.5084,3.5191,3.5204,3.5204,3.5204,3.5204,3.5204,3.5204,3.5204,3.5204,3.5204,3.5204,3.5204,3.5204,3.5204,3.5204,3.5204,3.5204,3.5204,3.5204,3.5204,3.5204,3.5204,3.5204,3.5204,3.5204,3.5204,3.5204,3.5204,3.5204,3.5204,3.5204,3.5204,3.5204,3.5204,3.5204,3.5204,4.8194,4.6892,4.5811,4.4586,4.3326,4.1966,4.1281,4.106,4.0693,4.0502,4.0502,4.0502,4.0458,4.04,4.0473,4.0502,4.0502,4.0502,4.0502,4.046,4.0241,4.0124,4.0095,3.989,3.9773,3.9773,3.9787,3.9743,3.9626,3.9292,3.9015,3.8839,3.9015,3.9132,3.9173,3.938,3.9483,3.9483,3.9483,3.9483,3.9424,3.9029,3.8737,3.8649,3.8535,3.84,3.8233,3.8218,3.809,3.7856,3.7793,3.7632,3.7413,3.753,3.753,3.7417,3.7665,3.7688,3.7264,3.715,3.6971,3.6766,3.7028,3.7057,3.6717,3.6437,3.6188,3.5924,3.5327,3.4909,3.4936,3.507,3.5191,3.5204,3.5204,3.5204,3.5191,3.5204,3.5191,3.5204,3.5204,3.5204,3.5204,3.5204,3.5204,3.5204,3.5204,3.5204,3.5204,3.5204,3.5204,3.5204,3.5204,3.5204,3.5204,3.5204,3.5204,3.5204,3.5204,3.5204,3.5204,3.5204,3.5204,3.5204,3.5204,3.5204,3.5204,3.5204,3.5204,3.5204,3.5204,3.5204,3.5204,3.5204,3.5204,5.0984,4.9089,4.6831,4.561,4.4817,4.2519,4.1483,4.155,4.0865,4.0559,4.0643,4.0601,4.0356,4.0205,4.0538,4.0517,4.0488,4.0458,4.0444,4.0444,4.0416,4.0473,4.0488,4.0473,4.0402,4.0314,4.0299,4.0197,3.9948,3.9614,3.948,3.9439,3.9439,3.9495,3.9468,3.9526,3.9512,3.9582,3.9556,3.9526,3.9512,3.9495,3.9278,3.9015,3.8693,3.8517,3.8474,3.8488,3.8433,3.8459,3.8218,3.8057,3.8013,3.7764,3.7735,3.8013,3.8269,3.8444,3.83,3.7907,3.7817,3.8213,3.8126,3.8175,3.8118,3.7495,3.6986,3.6818,3.5768,3.5163,3.5151,3.5164,3.5204,3.5204,3.5204,3.5204,3.5204,3.5204,3.5204,3.5204,3.5204,3.5204,3.5204,3.5204,3.5204,3.5204,3.5204,3.5204,3.5204,3.5204,3.5204,3.5204,3.5204,3.5204,3.5204,3.5204,3.5204,3.5204,3.5204,3.5204,3.5204,3.5204,3.5204,3.5204,3.5204,3.5204,3.5204,3.5204,3.5204,3.5204,3.5204,3.5204,3.5204,3.5204,3.5204,5.2281,5.0524,4.8929,4.7703,4.6635,4.4818,4.3794,4.3387,4.2571,4.2264,4.2279,4.2237,4.2204,4.2126,4.1993,4.1182,3.9931,3.986,3.986,3.986,3.986,3.986,3.986,3.986,3.9992,4.0153,4.0168,4.0124,4.0007,3.9875,3.9714,3.9582,3.9729,3.9816,3.986,4.0036,4.0138,4.0138,4.0138,4.0138,4.0095,3.9934,3.9773,3.9626,3.9102,3.8696,3.8517,3.8517,3.8517,3.8517,3.84,3.828,3.8101,3.7984,3.8031,3.8324,3.8444,3.8517,3.8491,3.8321,3.8283,3.848,3.8653,3.8646,3.8399,3.7783,3.7181,3.6785,3.5875,3.5243,3.5204,3.5204,3.5204,3.5204,3.5204,3.5204,3.5204,3.5204,3.5204,3.5204,3.5204,3.5204,3.5204,3.5204,3.5204,3.5204,3.5204,3.5204,3.5204,3.5204,3.5204,3.5204,3.5204,3.5204,3.5204,3.5204,3.5204,3.5204,3.5204,3.5204,3.5204,3.5204,3.5204,3.5204,3.5204,3.5204,3.5204,3.5204,3.5204,3.5204,3.5204,3.5204,3.5204,3.5204,3.5204,5.4033,5.26,5.1249,5.012,4.9062,4.7363,4.629,4.5619,4.4371,4.3927,4.408,4.3899,4.3864,4.3866,4.3566,4.2414,4.0705,4.0154,3.9983,4.0274,4.0463,4.057,4.0514,4.0452,4.0377,4.0394,4.0234,4.0153,4.0153,4.0168,4.0036,3.986,4.0065,4.0153,4.0197,4.0387,4.0502,4.0502,4.0502,4.0502,4.0446,4.027,4.0095,3.9963,3.9568,3.9161,3.8839,3.8824,3.8824,3.8824,3.8824,3.8763,3.8558,3.8555,3.8631,3.8795,3.8824,3.8824,3.8824,3.8824,3.8824,3.8839,3.9117,3.9175,3.8804,3.8011,3.7399,3.6872,3.5902,3.5204,3.5204,3.5204,3.5204,3.5204,3.5204,3.5204,3.5204,3.5204,3.5204,3.5204,3.5204,3.5204,3.5204,3.5204,3.5204,3.5204,3.5204,3.5204,3.5204,3.5204,3.5204,3.5204,3.5204,3.5204,3.5204,3.5204,3.5204,3.5204,3.5204,3.5204,3.5204,3.5204,3.5204,3.5204,3.5204,3.5204,3.5204,3.5204,3.5204,3.5204,3.5204,3.5204,3.5204,3.5204,3.5204,5.6154,5.5248,5.3741,5.2573,5.1744,4.9913,4.87,4.7859,4.6032,4.5578,4.5973,4.542,4.5461,4.5384,4.5111,4.4151,4.3119,4.1635,4.1152,4.1714,4.2346,4.2647,4.2616,4.2249,4.158,4.0949,4.0647,4.0444,4.0385,4.0356,4.0314,4.0402,4.0358,4.0358,4.0446,4.0473,4.0502,4.0502,4.0502,4.0502,4.0502,4.0488,4.0341,4.0065,3.9977,3.9816,3.9524,3.9453,3.9409,3.9424,3.9424,3.9468,3.9366,3.9392,3.9439,3.9395,3.9439,3.9453,3.9439,3.9409,3.938,3.9424,3.9773,3.9743,3.9291,3.8463,3.7749,3.7296,3.6265,3.5336,3.5336,3.5283,3.5257,3.5204,3.5204,3.5204,3.5204,3.5204,3.5204,3.5204,3.5204,3.5204,3.5204,3.5204,3.5191,3.5151,3.5137,3.511,3.507,3.5084,3.5164,3.5177,3.5177,3.5204,3.5204,3.5204,3.5204,3.5204,3.5204,3.5204,3.5204,3.5204,3.5204,3.5204,3.5204,3.5204,3.5204,3.5204,3.5204,3.5204,3.5204,3.5204,3.5204,3.5204,3.5204,5.6261,5.5617,5.4644,5.3941,5.3344,5.2264,5.1254,5.0194,4.8735,4.8259,4.8404,4.8259,4.8237,4.8195,4.7867,4.7064,4.5925,4.4357,4.3117,4.261,4.3251,4.3943,4.4075,4.3326,4.1734,4.0045,3.9794,3.9831,3.9887,3.986,3.9816,3.9846,4.0065,4.0153,4.0182,4.0358,4.0502,4.0502,4.0502,4.0502,4.0502,4.0502,4.0431,4.0371,4.0329,4.0285,4.0168,3.9758,3.9497,3.9512,3.9483,3.9483,3.9497,3.9483,3.9483,3.9483,3.9483,3.9483,3.9483,3.9497,3.9512,3.9556,3.9831,3.9816,3.9517,3.9016,3.8529,3.8205,3.7283,3.6519,3.6161,3.5879,3.5599,3.5257,3.5204,3.5217,3.5257,3.5231,3.5204,3.5204,3.5204,3.5204,3.5191,3.5191,3.5097,3.4963,3.4936,3.4857,3.4683,3.4803,3.4923,3.4923,3.503,3.5177,3.5204,3.5204,3.5204,3.5204,3.5204,3.5204,3.5204,3.5204,3.5204,3.5204,3.5204,3.5204,3.5204,3.5204,3.5204,3.5204,3.5204,3.5204,3.5204,3.5204,3.5204,5.5901,5.5529,5.5137,5.4798,5.447,5.4068,5.337,5.2344,5.1175,5.0781,5.0908,5.0894,5.102,5.1094,5.0738,5.0003,4.8998,4.744,4.6286,4.566,4.5628,4.6137,4.6276,4.5106,4.3374,4.1466,4.1171,4.1079,4.0862,4.0618,4.0326,4.0031,4.0197,4.0253,4.0065,4.0314,4.0502,4.0502,4.0502,4.0502,4.0502,4.0502,4.0502,4.0502,4.0502,4.0502,4.0488,4.008,3.9875,3.9875,3.9875,3.9875,3.9875,3.989,3.9875,3.9875,3.9875,3.989,3.9875,3.9919,3.9875,3.9919,4.0065,4.0095,3.9826,3.9466,3.9052,3.8772,3.7879,3.7148,3.6801,3.629,3.5903,3.5735,3.547,3.5431,3.5485,3.5551,3.5458,3.5431,3.5351,3.5311,3.5231,3.507,3.5003,3.4816,3.4696,3.4563,3.4402,3.4496,3.4589,3.4749,3.4909,3.503,3.5177,3.5204,3.5204,3.5204,3.5204,3.5204,3.5204,3.5204,3.5204,3.5204,3.5204,3.5204,3.5204,3.5204,3.5204,3.5204,3.5204,3.5204,3.5204,3.5204,3.5204,5.5351,5.5351,5.5286,5.5266,5.526,5.522,5.4832,5.4206,5.3072,5.2766,5.3163,5.3016,5.3299,5.3716,5.3108,5.2527,5.2008,5.0447,5.0102,5.0392,5.0018,4.9427,4.8965,4.7738,4.6191,4.4698,4.4218,4.3733,4.2904,4.2384,4.1682,4.044,4.0519,4.0548,4.0036,4.0255,4.0416,4.0429,4.0488,4.0517,4.0561,4.0561,4.059,4.0592,4.0607,4.0621,4.0621,4.0563,4.0504,4.0475,4.0429,4.0414,4.0446,4.0502,4.0416,4.0414,4.0488,4.0444,4.0473,4.0458,4.0458,4.0387,4.0446,4.049,4.0347,3.9802,3.9388,3.9248,3.8305,3.7592,3.7391,3.6863,3.6492,3.6445,3.6006,3.5792,3.6033,3.6059,3.5885,3.5658,3.5578,3.5498,3.5191,3.4963,3.4816,3.4642,3.4429,3.427,3.4176,3.4229,3.4416,3.4549,3.4669,3.4789,3.487,3.503,3.503,3.5057,3.511,3.5204,3.5204,3.5204,3.5204,3.5204,3.5217,3.5217,3.5204,3.5204,3.5204,3.5204,3.5204,3.5204,3.5204,3.5204,3.5204,5.5755,5.5716,5.543,5.5312,5.5351,5.5599,5.5419,5.4914,5.4431,5.4278,5.4442,5.4345,5.4466,5.4647,5.4447,5.4022,5.3399,5.26,5.2527,5.3208,5.3388,5.2459,5.1395,5.0429,4.8889,4.7088,4.6375,4.5243,4.3867,4.343,4.2027,3.9829,4.0416,4.0115,3.9424,4.0068,4.0136,4.0168,4.0442,4.0704,4.0894,4.0896,4.0973,4.115,4.115,4.115,4.1164,4.1164,4.0916,4.0519,4.0502,4.0502,4.0519,4.0519,4.0548,4.0534,4.0519,4.0504,4.0548,4.0737,4.0751,4.0576,4.0737,4.0766,4.0532,4.0293,4.0125,4.004,3.9558,3.9055,3.8704,3.8221,3.7766,3.714,3.6504,3.6073,3.6113,3.6086,3.5952,3.5672,3.5631,3.5444,3.5137,3.4922,3.4696,3.4361,3.4148,3.3976,3.3963,3.3989,3.4229,3.4189,3.4255,3.4402,3.4563,3.4776,3.4883,3.4923,3.5004,3.5204,3.5204,3.5204,3.5204,3.5204,3.5244,3.5258,3.5244,3.5217,3.5204,3.5297,3.5244,3.5271,3.5217,3.5204,3.5204,5.541,5.539,5.5137,5.5156,5.5351,5.5716,5.5823,5.5764,5.5809,5.5724,5.5667,5.5782,5.5744,5.5609,5.5571,5.541,5.506,5.4736,5.479,5.506,5.5337,5.4621,5.3406,5.2625,5.1485,5.001,4.9028,4.7867,4.6527,4.5523,4.3929,4.2441,4.2152,4.1955,4.1633,4.1803,4.2091,4.2125,4.2073,4.2036,4.1937,4.1662,4.1445,4.1482,4.1413,4.1413,4.1413,4.1413,4.1223,4.0973,4.0899,4.0885,4.0885,4.0885,4.0885,4.0857,4.0857,4.0899,4.0886,4.1075,4.1075,4.0929,4.1015,4.0898,4.0737,4.0605,4.0502,4.0431,4.0209,3.9901,3.9558,3.9144,3.8442,3.7537,3.7033,3.6706,3.6488,3.646,3.6299,3.6072,3.5952,3.5832,3.5377,3.523,3.4923,3.4589,3.4468,3.4189,3.3975,3.4015,3.4095,3.4175,3.4242,3.4417,3.4536,3.4683,3.4776,3.4802,3.4883,3.5084,3.5164,3.5177,3.5258,3.5284,3.5324,3.5364,3.5431,3.5471,3.5525,3.5538,3.5431,3.5311,3.5231,3.5204,3.5204,5.483,5.485,5.485,5.5019,5.5423,5.5852,5.6275,5.668,5.7009,5.6943,5.6709,5.6997,5.6753,5.6609,5.6368,5.6528,5.6502,5.6261,5.6395,5.6395,5.6395,5.5816,5.4953,5.4458,5.3908,5.3132,5.2263,5.1061,4.9778,4.8694,4.7214,4.5673,4.5516,4.5399,4.4779,4.4998,4.5243,4.4974,4.4631,4.4011,4.341,4.2861,4.2383,4.1674,4.1632,4.1618,4.1603,4.1574,4.153,4.153,4.1429,4.1326,4.1369,4.1398,4.1384,4.134,4.1325,4.134,4.137,4.1384,4.1427,4.134,4.1177,4.1073,4.0987,4.0768,4.0619,4.0619,4.0241,4.0097,3.9959,3.9495,3.8831,3.8043,3.7867,3.755,3.7204,3.6968,3.6806,3.6553,3.6473,3.6353,3.6072,3.5792,3.5445,3.4776,3.4655,3.4416,3.4215,3.415,3.4309,3.4456,3.4523,3.4563,3.4604,3.4617,3.4656,3.4696,3.4776,3.4923,3.5083,3.5151,3.5351,3.5418,3.5445,3.5645,3.5899,3.5926,3.5872,3.5698,3.5498,3.5364,3.5258,3.5217,3.5204,5.5638,5.5638,5.5638,5.5677,5.5891,5.6575,5.6992,5.7129,5.7586,5.7519,5.7187,5.7207,5.6992,5.6628,5.6648,5.6609,5.6628,5.6628,5.6609,5.6609,5.6609,5.6528,5.6181,5.5939,5.5912,5.549,5.506,5.3833,5.2382,5.1288,5.005,4.8084,4.7921,4.7559,4.7192,4.7393,4.7187,4.6952,4.6904,4.6073,4.4806,4.4317,4.3557,4.2454,4.2214,4.2186,4.2187,4.2187,4.2187,4.207,4.172,4.1501,4.1486,4.1471,4.1486,4.1486,4.1471,4.1442,4.1471,4.1632,4.1661,4.1501,4.1559,4.1574,4.131,4.1031,4.0912,4.0812,4.0577,4.0358,4.0289,3.984,3.9374,3.895,3.8482,3.8167,3.8101,3.7453,3.6863,3.6634,3.6541,3.6326,3.5818,3.5805,3.5471,3.5017,3.4843,3.4682,3.4563,3.4496,3.4616,3.4843,3.4776,3.4764,3.4537,3.4576,3.4629,3.4709,3.4776,3.487,3.503,3.511,3.5271,3.5444,3.5578,3.5845,3.6193,3.618,3.6099,3.5872,3.5645,3.5551,3.5485,3.5351,3.5324,5.5852,5.6204,5.623,5.6465,5.6914,5.7539,5.7922,5.8144,5.8406,5.8242,5.7883,5.7805,5.7453,5.6894,5.6875,5.6797,5.668,5.6816,5.7012,5.7117,5.7039,5.6875,5.6797,5.668,5.6609,5.6502,5.5939,5.496,5.3977,5.3253,5.2191,5.0801,5.0639,5.0595,5.0188,5.0117,5.0045,4.976,4.9272,4.8302,4.6956,4.6271,4.5281,4.3929,4.3405,4.3148,4.2863,4.252,4.2406,4.2304,4.207,4.188,4.188,4.1851,4.1851,4.1851,4.1894,4.1894,4.1953,4.2011,4.2055,4.1894,4.1924,4.1792,4.1572,4.1278,4.1029,4.0899,4.0694,4.0475,4.049,4.0284,3.9955,3.9528,3.9041,3.8628,3.8359,3.7634,3.7125,3.7017,3.6892,3.6621,3.6326,3.6125,3.6005,3.5792,3.5752,3.5618,3.5458,3.5351,3.5164,3.5204,3.5071,3.4897,3.4576,3.4523,3.4655,3.4762,3.487,3.4977,3.5084,3.5137,3.5204,3.5444,3.5752,3.6139,3.6406,3.6366,3.634,3.6219,3.6059,3.5872,3.5752,3.5712,3.5698,5.5918,5.6609,5.666,5.7136,5.7801,5.8203,5.8535,5.8895,5.9012,5.8515,5.8371,5.8351,5.7773,5.7246,5.7168,5.6992,5.6875,5.7012,5.7324,5.7664,5.7305,5.7168,5.7051,5.6797,5.6609,5.6528,5.6154,5.5517,5.5095,5.4636,5.4147,5.3652,5.3616,5.3402,5.3366,5.32,5.2774,5.2464,5.1836,5.0721,4.9479,4.8707,4.7642,4.5964,4.4794,4.4214,4.3591,4.292,4.2377,4.2392,4.2464,4.245,4.2421,4.2377,4.2377,4.2363,4.2304,4.2275,4.226,4.2333,4.2333,4.2406,4.2158,4.1997,4.1879,4.1571,4.1308,4.109,4.0929,4.0724,4.0636,4.0627,4.042,4.0016,3.9578,3.9118,3.8656,3.8029,3.777,3.7482,3.7289,3.7042,3.6849,3.6673,3.6633,3.6593,3.654,3.6433,3.6246,3.6046,3.5752,3.5498,3.5338,3.5057,3.4736,3.4469,3.4589,3.4749,3.4897,3.4977,3.5044,3.4897,3.4963,3.5631,3.5979,3.6259,3.6527,3.666,3.662,3.658,3.6406,3.6166,3.6086,3.6099,3.6073,5.6465,5.6648,5.6953,5.718,5.7383,5.782,5.8074,5.8094,5.8172,5.7879,5.7578,5.7812,5.7586,5.6992,5.709,5.7148,5.7148,5.7265,5.7519,5.7859,5.7539,5.7297,5.7285,5.6953,5.6726,5.6582,5.648,5.6385,5.6234,5.6207,5.5778,5.5893,5.5851,5.5682,5.5352,5.5302,5.476,5.4345,5.3965,5.3,5.1666,5.1041,5.0155,4.8043,4.6547,4.5451,4.456,4.3306,4.2377,4.2407,4.2669,4.2626,4.245,4.2377,4.2377,4.2377,4.2377,4.2377,4.2377,4.2377,4.2377,4.2391,4.2333,4.2289,4.2187,4.1938,4.1646,4.1558,4.1397,4.1223,4.1239,4.1164,4.1195,4.0967,4.0533,4.0214,4.0082,3.9387,3.834,3.7783,3.7606,3.7466,3.7245,3.6983,3.678,3.6659,3.6633,3.6527,3.6367,3.6179,3.5992,3.5778,3.5565,3.5231,3.4869,3.4616,3.4549,3.4683,3.4817,3.487,3.483,3.4563,3.475,3.5404,3.5765,3.5912,3.6259,3.6646,3.674,3.6593,3.6513,3.642,3.6353,3.6273,3.622,5.6504,5.6914,5.7129,5.7344,5.7586,5.7801,5.7879,5.7879,5.7879,5.7781,5.7734,5.7949,5.7734,5.7207,5.7363,5.7539,5.7539,5.7586,5.7957,5.8328,5.8125,5.7863,5.7785,5.7422,5.7312,5.7273,5.7273,5.6999,5.6621,5.6555,5.6648,5.6614,5.6777,5.6797,5.6555,5.628,5.6055,5.5656,5.5258,5.4489,5.3137,5.2905,5.1715,5.0279,4.8264,4.6852,4.5817,4.3791,4.2727,4.2655,4.2655,4.2552,4.2464,4.2392,4.2377,4.2377,4.2377,4.2377,4.2377,4.2377,4.2377,4.2377,4.2363,4.2377,4.2304,4.2113,4.185,4.1675,4.1574,4.1413,4.1398,4.1442,4.1413,4.131,4.0872,4.0651,4.0523,3.9984,3.9115,3.812,3.7908,3.7729,3.748,3.719,3.6916,3.6766,3.6686,3.6567,3.6406,3.6353,3.6233,3.6086,3.5899,3.5645,3.5351,3.5163,3.4923,3.4963,3.491,3.4963,3.4883,3.4736,3.4843,3.5257,3.5485,3.5551,3.5979,3.6393,3.6513,3.6646,3.6593,3.6527,3.6513,3.646,3.6393,5.6438,5.709,5.709,5.7312,5.7605,5.7625,5.7605,5.7644,5.7605,5.7613,5.7703,5.8066,5.7871,5.7344,5.7429,5.7664,5.784,5.7859,5.8348,5.8895,5.8625,5.8468,5.8371,5.8125,5.7801,5.7722,5.7762,5.7554,5.7097,5.698,5.6902,5.7039,5.7246,5.7265,5.7109,5.6836,5.6699,5.6253,5.587,5.5145,5.4641,5.4108,5.3429,5.2399,5.002,4.8181,4.7272,4.4437,4.3048,4.2801,4.2684,4.2494,4.2435,4.2479,4.2479,4.2421,4.2362,4.2289,4.226,4.2158,4.2099,4.2085,4.2172,4.2187,4.2158,4.1953,4.1807,4.1574,4.1618,4.1661,4.1705,4.1632,4.1588,4.1427,4.109,4.0651,4.0577,4.0264,3.9894,3.9078,3.8484,3.7908,3.7565,3.7182,3.6841,3.6513,3.6433,3.646,3.638,3.6567,3.6513,3.638,3.6233,3.6086,3.5912,3.5859,3.5698,3.5645,3.5458,3.5364,3.5231,3.507,3.5204,3.5231,3.5043,3.5177,3.5672,3.6206,3.6553,3.6713,3.6674,3.6619,3.6659,3.6659,3.6633,5.6562,5.6687,5.6706,5.6699,5.6804,5.6804,5.6784,5.6804,5.6843,5.6765,5.6894,5.7586,5.7547,5.7012,5.6863,5.7273,5.7722,5.7996,5.8426,5.9023,5.8789,5.8585,5.8468,5.8094,5.8074,5.8074,5.8016,5.7859,5.7703,5.7703,5.7664,5.7683,5.7683,5.7664,5.7375,5.7277,5.6711,5.6243,5.6326,5.6383,5.6268,5.6105,5.5627,5.4264,5.1839,4.9503,4.8354,4.5357,4.3267,4.302,4.2918,4.2699,4.2523,4.2699,4.264,4.2407,4.2158,4.1953,4.1953,4.1807,4.1647,4.1661,4.1618,4.1544,4.1647,4.185,4.188,4.188,4.2055,4.2172,4.2158,4.2216,4.2099,4.1778,4.1398,4.1104,4.0899,4.049,4.012,3.9882,3.9221,3.8217,3.7535,3.7141,3.6748,3.6437,3.622,3.6287,3.6394,3.662,3.6713,3.6579,3.6513,3.6366,3.6326,3.6313,3.6287,3.6233,3.5979,3.5738,3.5645,3.5485,3.5204,3.519,3.5016,3.519,3.5845,3.6393,3.6713,3.6793,3.6713,3.6766,3.6873,3.686,3.678,5.6609,5.6609,5.6609,5.6609,5.6609,5.6609,5.6609,5.6609,5.6609,5.6609,5.6765,5.7507,5.7781,5.7539,5.7441,5.7683,5.8144,5.8203,5.8555,5.9062,5.8984,5.8887,5.8887,5.8739,5.8641,5.8582,5.8613,5.8699,5.8524,5.8133,5.7898,5.7957,5.8105,5.8203,5.7902,5.7922,5.7746,5.7492,5.7383,5.7351,5.7332,5.727,5.6956,5.6095,5.3184,5.1364,4.9463,4.6589,4.4411,4.3957,4.3429,4.2845,4.2684,4.2655,4.2538,4.2407,4.2085,4.1924,4.188,4.1574,4.1457,4.1413,4.1413,4.1442,4.1471,4.169,4.188,4.1894,4.2202,4.2363,4.2377,4.2377,4.2187,4.1938,4.1632,4.1325,4.1031,4.0694,4.0347,4.0205,3.9982,3.9061,3.8216,3.7865,3.7469,3.6979,3.6719,3.6595,3.6661,3.6753,3.6806,3.6766,3.6699,3.6647,3.666,3.666,3.6647,3.658,3.638,3.6165,3.6072,3.5912,3.5618,3.5631,3.5819,3.6019,3.6313,3.6393,3.658,3.6673,3.6766,3.682,3.686,3.6713,3.6673,5.6609,5.6609,5.6609,5.6609,5.6609,5.6609,5.6609,5.6609,5.6609,5.6609,5.6765,5.7273,5.7754,5.8008,5.7722,5.7703,5.832,5.8332,5.873,5.9023,5.9227,5.9188,5.9149,5.9149,5.9149,5.9227,5.9062,5.911,5.8926,5.8641,5.8309,5.823,5.8555,5.8652,5.8664,5.8605,5.8488,5.8273,5.793,5.782,5.782,5.782,5.7462,5.6409,5.4755,5.2867,5.1275,4.8033,4.596,4.5179,4.3677,4.2918,4.2845,4.2611,4.2464,4.2319,4.2085,4.1909,4.1807,4.1618,4.1457,4.1413,4.1398,4.1384,4.1338,4.1602,4.1749,4.172,4.2041,4.2231,4.2363,4.2377,4.2202,4.1968,4.1691,4.1411,4.1148,4.0929,4.0812,4.0771,4.0557,4.0213,3.9473,3.8915,3.8321,3.7647,3.7263,3.6973,3.6848,3.6833,3.6753,3.6686,3.6593,3.658,3.6673,3.674,3.682,3.682,3.6619,3.6459,3.6326,3.6206,3.5992,3.618,3.6353,3.65,3.6539,3.646,3.6393,3.6633,3.6833,3.6806,3.678,3.6633,3.6619,5.6609,5.6609,5.6609,5.6609,5.6609,5.6609,5.6609,5.6609,5.6609,5.6601,5.6687,5.6738,5.709,5.7246,5.7273,5.739,5.7976,5.7957,5.8524,5.9012,5.9227,5.9227,5.9227,5.9227,5.9227,5.9227,5.9227,5.9227,5.9207,5.9043,5.9012,5.9101,5.8965,5.9062,5.9062,5.8945,5.8711,5.8437,5.8074,5.7898,5.7898,5.7902,5.7748,5.7161,5.5721,5.4242,5.323,4.948,4.7055,4.6383,4.4172,4.3006,4.2918,4.2611,4.2435,4.2392,4.2259,4.2099,4.2055,4.1691,4.1457,4.1413,4.1398,4.1296,4.1161,4.1296,4.1399,4.1486,4.1734,4.2026,4.2216,4.2333,4.207,4.1836,4.1587,4.1485,4.1296,4.1296,4.1223,4.1296,4.1079,4.0718,4.0547,3.9959,3.8944,3.8211,3.74,3.7068,3.6782,3.6699,3.6607,3.65,3.634,3.6366,3.654,3.6619,3.6753,3.674,3.6593,3.6513,3.6406,3.6299,3.6153,3.6233,3.6353,3.6566,3.6713,3.6513,3.6473,3.674,3.6872,3.686,3.686,3.6793,3.6793,5.6609,5.6609,5.6609,5.6609,5.6609,5.6609,5.6609,5.6609,5.6609,5.6758,5.6953,5.6992,5.7207,5.7441,5.7547,5.7676,5.8223,5.8281,5.8672,5.9012,5.9227,5.9227,5.9227,5.9227,5.9227,5.9227,5.9227,5.9227,5.9227,5.9227,5.8984,5.8926,5.9062,5.9188,5.9168,5.8867,5.8535,5.825,5.8016,5.7898,5.7937,5.8117,5.7947,5.7123,5.6671,5.5058,5.3247,5.0133,4.8376,4.6692,4.4403,4.3414,4.3036,4.2684,4.2552,4.2611,4.2508,4.2552,4.2494,4.1983,4.1442,4.1413,4.1398,4.131,4.1132,4.1252,4.1267,4.131,4.1457,4.1764,4.1749,4.1764,4.1632,4.1485,4.1455,4.1485,4.1486,4.1515,4.1544,4.1559,4.1413,4.1136,4.1066,4.0984,3.9835,3.8722,3.7894,3.7178,3.6945,3.6674,3.658,3.65,3.638,3.642,3.6579,3.6659,3.6699,3.666,3.658,3.6446,3.634,3.6246,3.6139,3.626,3.6273,3.6353,3.6406,3.6393,3.65,3.6673,3.682,3.69,3.6872,3.6886,3.6886,5.6387,5.6387,5.6387,5.6465,5.6609,5.6609,5.6609,5.6609,5.6609,5.6719,5.7012,5.7031,5.7187,5.7449,5.7488,5.7801,5.8105,5.8301,5.8691,5.8984,5.9227,5.9227,5.9227,5.9227,5.9227,5.9227,5.9227,5.9227,5.9227,5.9227,5.9062,5.8926,5.8867,5.8887,5.8699,5.8496,5.8164,5.7957,5.7879,5.7879,5.7937,5.8105,5.8093,5.7381,5.7098,5.6184,5.4038,5.135,4.9166,4.7306,4.5221,4.34,4.3036,4.2904,4.2669,4.2757,4.286,4.2962,4.2977,4.2567,4.1808,4.1808,4.1764,4.1602,4.1411,4.1427,4.1486,4.1397,4.1514,4.1574,4.1618,4.1837,4.1851,4.1836,4.185,4.188,4.1821,4.1836,4.1836,4.1808,4.1691,4.1647,4.1375,4.122,4.0346,3.9127,3.8015,3.7419,3.7171,3.6914,3.6633,3.6593,3.6527,3.662,3.6726,3.662,3.6487,3.654,3.6446,3.6299,3.6206,3.6126,3.6099,3.6166,3.6166,3.6113,3.6193,3.6326,3.6446,3.6567,3.6647,3.6646,3.6726,3.6699,3.6806,5.593,5.5911,5.595,5.6211,5.6589,5.6609,5.6609,5.6609,5.6609,5.6628,5.666,5.6687,5.6726,5.6804,5.696,5.741,5.7996,5.8094,5.8445,5.9071,5.9227,5.9227,5.9227,5.9227,5.9227,5.9227,5.9227,5.9227,5.9227,5.9227,5.9121,5.8887,5.8613,5.8301,5.7957,5.7918,5.7879,5.7859,5.7801,5.7742,5.7742,5.782,5.7758,5.7559,5.7547,5.6706,5.4883,5.2115,5.0068,4.8751,4.553,4.3922,4.3825,4.3148,4.2914,4.3078,4.2728,4.2845,4.3299,4.3006,4.2699,4.2289,4.2143,4.2069,4.1894,4.185,4.1777,4.1572,4.1691,4.1924,4.2143,4.2246,4.2114,4.2055,4.2026,4.207,4.2025,4.2113,4.207,4.1997,4.2143,4.2202,4.1813,4.1355,4.0646,3.9588,3.8286,3.7687,3.7534,3.7181,3.6901,3.6766,3.674,3.6659,3.6686,3.6393,3.63,3.6367,3.6366,3.6259,3.618,3.6113,3.6099,3.6099,3.6046,3.5992,3.6166,3.6353,3.65,3.6633,3.634,3.6326,3.6433,3.6553,3.6686,5.5657,5.5911,5.5911,5.6165,5.6589,5.6609,5.6609,5.6609,5.6609,5.6609,5.6609,5.6609,5.6777,5.6914,5.7031,5.7402,5.8144,5.832,5.8711,5.9149,5.9227,5.9227,5.9227,5.9227,5.9227,5.9227,5.9227,5.9227,5.9227,5.9227,5.8984,5.8664,5.8195,5.759,5.7461,5.7402,5.7324,5.7097,5.7019,5.7039,5.7078,5.7293,5.7351,5.7117,5.7305,5.6782,5.542,5.252,5.0995,5.0028,4.6778,4.5539,4.5297,4.4669,4.4018,4.3941,4.359,4.3226,4.3548,4.3445,4.3138,4.2699,4.2421,4.2333,4.1968,4.1909,4.1807,4.1719,4.1749,4.185,4.1691,4.1705,4.1647,4.1691,4.1748,4.1924,4.1982,4.2216,4.2275,4.2114,4.2143,4.2304,4.2102,4.1729,4.1045,4.0519,3.9401,3.8469,3.8158,3.76,3.7195,3.7101,3.7021,3.6833,3.6659,3.6487,3.638,3.6406,3.642,3.634,3.626,3.6126,3.6099,3.6099,3.5992,3.5885,3.6246,3.6553,3.6674,3.6674,3.6553,3.6487,3.6647,3.6659,3.6619,5.5306,5.5677,5.5696,5.6028,5.655,5.6609,5.6609,5.6609,5.6609,5.6609,5.6609,5.6628,5.6699,5.6914,5.7051,5.7461,5.8242,5.8301,5.8711,5.9129,5.9227,5.9227,5.9227,5.9227,5.9227,5.9227,5.9227,5.9227,5.9227,5.9227,5.8965,5.8488,5.7922,5.7609,5.7383,5.709,5.6914,5.6745,5.6726,5.6706,5.6738,5.6816,5.6875,5.6777,5.6709,5.6437,5.4966,5.3319,5.1726,5.0722,4.9306,4.7751,4.731,4.6282,4.5471,4.5084,4.4402,4.3842,4.365,4.3752,4.3328,4.2713,4.2684,4.2582,4.2391,4.2436,4.2289,4.2143,4.1895,4.1808,4.1778,4.1734,4.172,4.1778,4.1865,4.2055,4.2114,4.2362,4.2377,4.2216,4.2143,4.2289,4.2363,4.2018,4.1545,4.1088,4.0588,3.9689,3.8723,3.8077,3.7518,3.7368,3.7208,3.6966,3.682,3.6659,3.658,3.6513,3.6446,3.6393,3.6246,3.6099,3.6099,3.6113,3.6086,3.6166,3.6553,3.6834,3.7047,3.7128,3.7021,3.6981,3.6926,3.6806,3.6686,5.4902,5.5273,5.5312,5.582,5.653,5.6609,5.6609,5.6609,5.6609,5.6609,5.6609,5.6609,5.668,5.666,5.666,5.7207,5.7937,5.8035,5.8543,5.9012,5.918,5.9227,5.9227,5.9227,5.9227,5.9227,5.9227,5.9227,5.9207,5.9227,5.8945,5.8644,5.841,5.798,5.7519,5.707,5.6797,5.6667,5.6609,5.6609,5.6648,5.6648,5.6687,5.6648,5.6587,5.6285,5.5248,5.4006,5.3146,5.2119,5.0831,5.0083,4.9008,4.7377,4.6787,4.6048,4.5113,4.4521,4.4004,4.4181,4.3606,4.3182,4.327,4.3182,4.3006,4.2933,4.286,4.2728,4.2582,4.245,4.2377,4.2304,4.2246,4.226,4.2275,4.2319,4.2319,4.2391,4.2377,4.2318,4.2246,4.2304,4.2348,4.2133,4.1802,4.1459,4.096,4.0334,3.9399,3.8426,3.7931,3.761,3.7382,3.7087,3.6953,3.6967,3.6874,3.6834,3.6513,3.6393,3.6246,3.626,3.6407,3.646,3.6327,3.6473,3.6981,3.7342,3.7595,3.7595,3.7582,3.7368,3.7287,3.6967,3.6821,5.4629,5.5293,5.5312,5.5801,5.655,5.6609,5.6609,5.6609,5.6609,5.6609,5.6609,5.6609,5.6719,5.7012,5.7051,5.7558,5.8008,5.8418,5.8711,5.8993,5.9071,5.9168,5.918,5.9168,5.9207,5.9207,5.9207,5.9121,5.916,5.916,5.914,5.9004,5.8683,5.8312,5.7922,5.7402,5.6992,5.6706,5.6648,5.6609,5.6609,5.6609,5.6609,5.6609,5.6609,5.6288,5.5571,5.4906,5.4246,5.3704,5.3008,5.2419,5.1846,5.0029,4.8705,4.7025,4.648,4.6124,4.5514,4.507,4.4462,4.3768,4.3811,4.3489,4.3284,4.3153,4.3255,4.3109,4.2918,4.2728,4.2494,4.2407,4.2377,4.2377,4.2377,4.2377,4.2377,4.2377,4.2377,4.2246,4.2216,4.2275,4.2319,4.2202,4.19,4.1643,4.1286,4.0704,3.9925,3.8939,3.8333,3.7983,3.761,3.7315,3.7368,3.7382,3.7261,3.7142,3.6861,3.6687,3.6714,3.6767,3.6821,3.6914,3.7022,3.7208,3.75,3.7808,3.8103,3.8223,3.8197,3.7916,3.7622,3.7315,3.7128,5.4505,5.5254,5.5312,5.5801,5.653,5.6609,5.6609,5.6609,5.6609,5.6609,5.6609,5.6609,5.6738,5.6894,5.6953,5.7285,5.7871,5.7863,5.8144,5.8485,5.8739,5.8769,5.8828,5.8945,5.9043,5.9062,5.9004,5.8867,5.8926,5.8926,5.8906,5.8867,5.873,5.8691,5.8332,5.7812,5.7285,5.6933,5.6719,5.6648,5.6609,5.6609,5.6609,5.6609,5.6609,5.6341,5.6073,5.5598,5.5428,5.534,5.4932,5.4806,5.4177,5.2699,5.0479,4.8927,4.837,4.7672,4.6808,4.6242,4.5232,4.4343,4.4089,4.3811,4.3533,4.3372,4.3343,4.3211,4.3006,4.2787,4.2582,4.2377,4.2377,4.2377,4.2377,4.2377,4.2377,4.2377,4.2289,4.2158,4.2172,4.2246,4.2216,4.2114,4.1998,4.1811,4.154,4.1099,4.0208,3.9139,3.8645,3.8375,3.7915,3.7529,3.7635,3.7729,3.7595,3.7502,3.7422,3.7288,3.726,3.726,3.7328,3.7569,3.7878,3.7956,3.7969,3.8288,3.8555,3.8624,3.8597,3.837,3.8034,3.7769,3.7662,5.4621,5.541,5.541,5.5965,5.6603,5.6635,5.6609,5.6609,5.6609,5.6609,5.6609,5.6609,5.6601,5.6706,5.6726,5.6914,5.7324,5.7414,5.7676,5.7898,5.8074,5.825,5.8418,5.8468,5.8613,5.8769,5.875,5.8476,5.8476,5.8496,5.8515,5.8507,5.8848,5.8867,5.8605,5.8074,5.7605,5.7285,5.6882,5.6609,5.6609,5.6609,5.6609,5.6609,5.6609,5.6555,5.6555,5.6555,5.6609,5.6575,5.6558,5.6484,5.5578,5.4902,5.2623,5.117,5.0402,4.9167,4.8028,4.7223,4.578,4.4743,4.4089,4.3928,4.3709,4.3606,4.3519,4.3211,4.2962,4.2743,4.2538,4.2407,4.2377,4.2377,4.2377,4.2377,4.2377,4.2377,4.2348,4.2246,4.226,4.2319,4.2289,4.2187,4.2011,4.1924,4.159,4.1192,4.0571,3.9462,3.9013,3.8755,3.8415,3.8049,3.7956,3.801,3.7903,3.7836,3.7769,3.7716,3.7569,3.7662,3.7808,3.801,3.8198,3.8292,3.8386,3.8597,3.8675,3.8675,3.8649,3.8675,3.8462,3.8141,3.8088,5.5543,5.6077,5.6318,5.6774,5.7129,5.6769,5.6609,5.6609,5.6609,5.6609,5.6609,5.6609,5.6609,5.6609,5.6609,5.6797,5.709,5.7148,5.7488,5.7703,5.7808,5.7801,5.8016,5.8027,5.8172,5.8133,5.8094,5.8125,5.8133,5.8125,5.8242,5.8488,5.8769,5.8808,5.8906,5.8328,5.7781,5.7605,5.698,5.6648,5.6609,5.6609,5.6609,5.6609,5.6609,5.6609,5.6609,5.6609,5.6609,5.6582,5.6609,5.6136,5.5272,5.531,5.4504,5.3111,5.2193,5.0841,4.9158,4.7847,4.6362,4.4936,4.4133,4.4016,4.3869,4.3826,4.3592,4.3226,4.2889,4.2669,4.2523,4.2436,4.2377,4.2377,4.2377,4.2377,4.2377,4.2377,4.2377,4.2377,4.2377,4.2363,4.2333,4.2216,4.2026,4.1719,4.1366,4.1008,4.0783,4.003,3.9462,3.9194,3.8988,3.8701,3.8468,3.8157,3.7996,3.7943,3.7876,3.7836,3.7809,3.7876,3.7956,3.8197,3.8399,3.8372,3.8384,3.8611,3.8691,3.8651,3.8664,3.8638,3.8675,3.8448,3.8475,5.5864,5.6341,5.6919,5.713,5.7111,5.701,5.6822,5.6635,5.6609,5.6609,5.6609,5.6609,5.6609,5.6609,5.6609,5.6687,5.6933,5.6914,5.7012,5.7234,5.741,5.7429,5.7507,5.7625,5.7988,5.8008,5.8105,5.8144,5.7957,5.8144,5.8379,5.8527,5.8672,5.8887,5.9071,5.8406,5.7879,5.784,5.7039,5.6687,5.6609,5.6609,5.6609,5.6609,5.6609,5.6609,5.6609,5.6609,5.6609,5.6706,5.6758,5.6538,5.6102,5.6186,5.5926,5.5078,5.4017,5.2567,5.025,4.8377,4.6699,4.4963,4.3914,4.365,4.3372,4.3299,4.3285,4.2933,4.2713,4.2494,4.2464,4.2392,4.2377,4.2377,4.2377,4.2377,4.2377,4.2377,4.2377,4.2377,4.2377,4.2377,4.2363,4.2377,4.2172,4.1909,4.1483,4.1176,4.0878,4.0578,4.0033,3.9561,3.932,3.9004,3.8634,3.8266,3.7969,3.7943,3.7929,3.7876,3.7823,3.7943,3.8076,3.8143,3.8183,3.817,3.8263,3.841,3.8477,3.8424,3.8477,3.8531,3.8597,3.8622,3.8595,5.6118,5.6597,5.7307,5.7423,5.707,5.7263,5.7142,5.6742,5.6635,5.6609,5.6609,5.6609,5.6609,5.6609,5.6609,5.6609,5.6648,5.6726,5.6706,5.6687,5.6726,5.6941,5.707,5.7168,5.7558,5.7969,5.8156,5.8066,5.7898,5.8133,5.832,5.8555,5.8848,5.9149,5.8906,5.8426,5.7879,5.7683,5.7175,5.6706,5.6609,5.6609,5.6609,5.6609,5.6609,5.6609,5.6609,5.6667,5.6687,5.6738,5.6894,5.6755,5.6575,5.6557,5.6433,5.5824,5.4614,5.2602,5.0375,4.8639,4.6405,4.4482,4.3723,4.3255,4.3021,4.2933,4.2889,4.2728,4.2538,4.245,4.2392,4.2377,4.2377,4.2377,4.2377,4.2377,4.2377,4.2377,4.2377,4.2377,4.2377,4.2377,4.2377,4.2406,4.2246,4.2026,4.1792,4.1514,4.1251,4.0948,4.0518,3.9962,3.9517,3.9168,3.8784,3.8416,3.8076,3.7889,3.7863,3.7836,3.7823,3.7903,3.7916,3.7876,3.7903,3.7943,3.7929,3.801,3.8092,3.8198,3.8197,3.825,3.8317,3.8355,3.8488,5.7178,5.7605,5.7725,5.7849,5.798,5.7634,5.7335,5.7176,5.6796,5.6609,5.6609,5.6609,5.6609,5.6609,5.6609,5.6609,5.6609,5.6609,5.6609,5.6628,5.6609,5.666,5.6797,5.7012,5.709,5.7519,5.7988,5.7996,5.8133,5.8152,5.8223,5.8566,5.8566,5.8828,5.9023,5.8485,5.7937,5.7722,5.7234,5.666,5.6648,5.6628,5.6609,5.6609,5.6609,5.6609,5.6687,5.6933,5.6836,5.6836,5.6914,5.6875,5.6721,5.6518,5.621,5.5282,5.4155,5.1781,4.9565,4.7856,4.5517,4.3793,4.3211,4.3138,4.2962,4.2845,4.2772,4.2553,4.2392,4.2392,4.2377,4.2377,4.2377,4.2377,4.2377,4.2377,4.2377,4.2377,4.2377,4.2377,4.2377,4.2377,4.2377,4.2377,4.2377,4.2172,4.2026,4.1763,4.1644,4.1324,4.0989,4.0444,3.9888,3.9252,3.8816,3.859,3.8252,3.801,3.7756,3.7649,3.7649,3.7796,3.7796,3.7635,3.7689,3.7741,3.7756,3.7622,3.7769,3.7863,3.7889,3.7929,3.7981,3.8088,3.8263]}]]